Wetterdaten: Montag, 31.07.2017
Datum Zeit Temp. A. Pool Temp. Feuchte A. Luftdruck Regen Wind Richtung Richtung Sonnenschein ET UV Solar Taupunkt Windchill Windben Empfang
31.07.2017 00:00 22,0 C 23,9 C 76 % 1013,5 hPa 0,0 l/m 11,8 km/h (2 Bft) W-NW 288 0 min 0,000 mm 0,0 UV-I 0 W/m 17,6 C 20,4 C 16,1 km/h (3 Bft) 93,62 %
31.07.2017 00:02 21,9 C 23,9 C 76 % 1013,4 hPa 0,0 l/m 4,3 km/h (1 Bft) W 261 0 min 0,000 mm 0,0 UV-I 0 W/m 17,5 C 21,9 C 11,3 km/h (2 Bft) 94,87 %
31.07.2017 00:04 21,8 C 23,9 C 77 % 1013,6 hPa 0,0 l/m 6,1 km/h (2 Bft) S-SW 202 0 min 0,000 mm 0,0 UV-I 0 W/m 17,6 C 21,8 C 16,1 km/h (3 Bft) 95,74 %
31.07.2017 00:06 21,8 C 23,9 C 77 % 1013,6 hPa 0,0 l/m 9,2 km/h (2 Bft) W-SW 246 0 min 0,000 mm 0,0 UV-I 0 W/m 17,6 C 20,9 C 14,5 km/h (3 Bft) 97,87 %
31.07.2017 00:08 21,8 C 23,9 C 77 % 1013,6 hPa 0,0 l/m 10,7 km/h (2 Bft) W-SW 240 0 min 0,000 mm 0,0 UV-I 0 W/m 17,6 C 20,4 C 17,7 km/h (3 Bft) 95,83 %
31.07.2017 00:10 21,8 C 23,9 C 77 % 1013,8 hPa 0,0 l/m 12,6 km/h (3 Bft) W-SW 237 0 min 0,000 mm 0,0 UV-I 0 W/m 17,6 C 20,0 C 17,7 km/h (3 Bft) 96,23 %
31.07.2017 00:12 21,7 C 23,9 C 77 % 1014,0 hPa 0,0 l/m 8,3 km/h (2 Bft) SW 225 0 min 0,000 mm 0,0 UV-I 0 W/m 17,5 C 21,0 C 14,5 km/h (3 Bft) 97,87 %
31.07.2017 00:14 21,6 C 23,9 C 78 % 1013,9 hPa 0,0 l/m 11,7 km/h (2 Bft) SW 227 0 min 0,000 mm 0,0 UV-I 0 W/m 17,6 C 19,9 C 16,1 km/h (3 Bft) 97,87 %
31.07.2017 00:16 21,6 C 23,9 C 78 % 1013,9 hPa 0,0 l/m 12,2 km/h (2 Bft) SW 231 0 min 0,000 mm 0,0 UV-I 0 W/m 17,6 C 19,8 C 17,7 km/h (3 Bft) 95,74 %
31.07.2017 00:18 21,6 C 23,9 C 78 % 1013,7 hPa 0,0 l/m 11,8 km/h (2 Bft) W-SW 257 0 min 0,000 mm 0,0 UV-I 0 W/m 17,6 C 19,9 C 19,3 km/h (3 Bft) 95,74 %
31.07.2017 00:20 21,5 C 23,9 C 78 % 1013,9 hPa 0,0 l/m 8,9 km/h (2 Bft) W-SW 249 0 min 0,000 mm 0,0 UV-I 0 W/m 17,5 C 20,6 C 12,9 km/h (3 Bft) 97,14 %
31.07.2017 00:22 21,4 C 23,9 C 78 % 1014,0 hPa 0,0 l/m 10,2 km/h (2 Bft) SW 230 0 min 0,000 mm 0,0 UV-I 0 W/m 17,4 C 20,1 C 14,5 km/h (3 Bft) 95,74 %
31.07.2017 00:24 21,4 C 23,9 C 78 % 1013,9 hPa 0,0 l/m 12,1 km/h (2 Bft) W-SW 242 0 min 0,000 mm 0,0 UV-I 0 W/m 17,4 C 19,6 C 16,1 km/h (3 Bft) 95,74 %
31.07.2017 00:26 21,4 C 23,9 C 77 % 1013,9 hPa 0,0 l/m 11,0 km/h (2 Bft) W 265 0 min 0,000 mm 0,0 UV-I 0 W/m 17,2 C 19,9 C 16,1 km/h (3 Bft) 91,49 %
31.07.2017 00:28 21,5 C 23,9 C 77 % 1013,9 hPa 0,0 l/m 10,6 km/h (2 Bft) W-SW 238 0 min 0,000 mm 0,0 UV-I 0 W/m 17,3 C 20,1 C 17,7 km/h (3 Bft) 95,74 %
31.07.2017 00:30 21,5 C 23,9 C 77 % 1014,0 hPa 0,0 l/m 12,8 km/h (3 Bft) SW 222 0 min 0,000 mm 0,0 UV-I 0 W/m 17,3 C 19,6 C 17,7 km/h (3 Bft) 95,74 %
31.07.2017 00:32 21,5 C 23,9 C 77 % 1014,0 hPa 0,0 l/m 8,6 km/h (2 Bft) SW 229 0 min 0,000 mm 0,0 UV-I 0 W/m 17,3 C 20,7 C 16,1 km/h (3 Bft) 95,74 %
31.07.2017 00:34 21,4 C 23,9 C 77 % 1014,0 hPa 0,0 l/m 7,2 km/h (2 Bft) W-SW 242 0 min 0,000 mm 0,0 UV-I 0 W/m 17,2 C 21,1 C 9,7 km/h (2 Bft) 95,74 %
31.07.2017 00:36 21,4 C 23,9 C 78 % 1014,0 hPa 0,0 l/m 7,3 km/h (2 Bft) SW 226 0 min 0,000 mm 0,0 UV-I 0 W/m 17,4 C 21,1 C 11,3 km/h (2 Bft) 93,62 %
31.07.2017 00:38 21,3 C 23,9 C 78 % 1014,0 hPa 0,0 l/m 10,7 km/h (2 Bft) S-SW 212 0 min 0,000 mm 0,0 UV-I 0 W/m 17,3 C 19,9 C 14,5 km/h (3 Bft) 98,00 %
31.07.2017 00:40 21,3 C 23,9 C 78 % 1014,0 hPa 0,0 l/m 9,3 km/h (2 Bft) SW 234 0 min 0,000 mm 0,0 UV-I 0 W/m 17,3 C 20,3 C 16,1 km/h (3 Bft) 93,62 %
31.07.2017 00:42 21,2 C 23,9 C 79 % 1014,0 hPa 0,0 l/m 9,2 km/h (2 Bft) SW 234 0 min 0,000 mm 0,0 UV-I 0 W/m 17,4 C 20,2 C 14,5 km/h (3 Bft) 94,00 %
31.07.2017 00:44 21,2 C 23,9 C 79 % 1013,9 hPa 0,0 l/m 9,9 km/h (2 Bft) W-SW 249 0 min 0,000 mm 0,0 UV-I 0 W/m 17,4 C 20,0 C 16,1 km/h (3 Bft) 91,49 %
31.07.2017 00:46 21,2 C 23,9 C 78 % 1014,0 hPa 0,0 l/m 8,0 km/h (2 Bft) W-SW 244 0 min 0,000 mm 0,0 UV-I 0 W/m 17,2 C 20,6 C 12,9 km/h (3 Bft) 91,49 %
31.07.2017 00:48 21,2 C 23,9 C 78 % 1013,9 hPa 0,0 l/m 8,1 km/h (2 Bft) SW 230 0 min 0,000 mm 0,0 UV-I 0 W/m 17,2 C 20,6 C 14,5 km/h (3 Bft) 95,74 %
31.07.2017 00:50 21,2 C 23,9 C 78 % 1013,8 hPa 0,0 l/m 9,9 km/h (2 Bft) SW 234 0 min 0,000 mm 0,0 UV-I 0 W/m 17,2 C 20,0 C 14,5 km/h (3 Bft) 95,83 %
31.07.2017 00:52 21,2 C 23,9 C 79 % 1013,8 hPa 0,0 l/m 7,3 km/h (2 Bft) SW 233 0 min 0,000 mm 0,0 UV-I 0 W/m 17,4 C 20,9 C 11,3 km/h (2 Bft) 97,87 %
31.07.2017 00:54 21,2 C 23,9 C 78 % 1013,6 hPa 0,0 l/m 8,5 km/h (2 Bft) SW 229 0 min 0,000 mm 0,0 UV-I 0 W/m 17,2 C 20,4 C 11,3 km/h (2 Bft) 97,92 %
31.07.2017 00:56 21,2 C 23,9 C 78 % 1013,6 hPa 0,0 l/m 8,6 km/h (2 Bft) SW 221 0 min 0,000 mm 0,0 UV-I 0 W/m 17,2 C 20,4 C 12,9 km/h (3 Bft) 95,74 %
31.07.2017 00:58 21,2 C 23,9 C 78 % 1013,6 hPa 0,0 l/m 8,2 km/h (2 Bft) W-SW 244 0 min 0,000 mm 0,0 UV-I 0 W/m 17,2 C 20,5 C 14,5 km/h (3 Bft) 97,37 %
31.07.2017 01:00 21,2 C 23,9 C 78 % 1013,6 hPa 0,0 l/m 7,1 km/h (2 Bft) SW 221 0 min 0,025 mm 0,0 UV-I 0 W/m 17,2 C 20,9 C 12,9 km/h (3 Bft) 97,87 %
31.07.2017 01:02 21,2 C 23,9 C 78 % 1013,5 hPa 0,0 l/m 6,6 km/h (2 Bft) S-SW 211 0 min 0,000 mm 0,0 UV-I 0 W/m 17,2 C 21,1 C 9,7 km/h (2 Bft) 95,83 %
31.07.2017 01:04 21,1 C 23,9 C 78 % 1013,5 hPa 0,0 l/m 5,1 km/h (1 Bft) W-SW 238 0 min 0,000 mm 0,0 UV-I 0 W/m 17,1 C 21,1 C 8,0 km/h (2 Bft) 98,00 %
31.07.2017 01:06 21,1 C 23,9 C 78 % 1013,5 hPa 0,0 l/m 5,4 km/h (1 Bft) SW 236 0 min 0,000 mm 0,0 UV-I 0 W/m 17,1 C 21,1 C 9,7 km/h (2 Bft) 93,62 %
31.07.2017 01:08 21,1 C 23,9 C 78 % 1013,5 hPa 0,0 l/m 4,4 km/h (1 Bft) W-SW 241 0 min 0,000 mm 0,0 UV-I 0 W/m 17,1 C 21,1 C 9,7 km/h (2 Bft) 97,87 %
31.07.2017 01:10 21,0 C 23,9 C 78 % 1013,5 hPa 0,0 l/m 4,0 km/h (1 Bft) SW 232 0 min 0,000 mm 0,0 UV-I 0 W/m 17,0 C 21,0 C 8,0 km/h (2 Bft) 97,87 %
31.07.2017 01:12 21,0 C 23,9 C 78 % 1013,4 hPa 0,0 l/m 5,2 km/h (1 Bft) S 169 0 min 0,000 mm 0,0 UV-I 0 W/m 17,0 C 21,0 C 8,0 km/h (2 Bft) 95,74 %
31.07.2017 01:14 21,0 C 23,9 C 78 % 1013,5 hPa 0,0 l/m 4,5 km/h (1 Bft) S-SW 211 0 min 0,000 mm 0,0 UV-I 0 W/m 17,0 C 21,0 C 8,0 km/h (2 Bft) 97,87 %
31.07.2017 01:16 20,9 C 23,9 C 78 % 1013,5 hPa 0,0 l/m 5,8 km/h (2 Bft) S-SW 210 0 min 0,000 mm 0,0 UV-I 0 W/m 16,9 C 20,9 C 9,7 km/h (2 Bft) 95,74 %
31.07.2017 01:18 20,9 C 23,9 C 78 % 1013,4 hPa 0,0 l/m 5,4 km/h (1 Bft) SW 229 0 min 0,000 mm 0,0 UV-I 0 W/m 16,9 C 20,9 C 8,0 km/h (2 Bft) 97,87 %
31.07.2017 01:20 20,9 C 23,9 C 78 % 1013,4 hPa 0,0 l/m 5,2 km/h (1 Bft) SW 222 0 min 0,000 mm 0,0 UV-I 0 W/m 16,9 C 20,9 C 8,0 km/h (2 Bft) 95,74 %
31.07.2017 01:22 20,9 C 23,9 C 78 % 1013,4 hPa 0,0 l/m 5,8 km/h (2 Bft) S-SW 208 0 min 0,000 mm 0,0 UV-I 0 W/m 16,9 C 20,9 C 8,0 km/h (2 Bft) 93,62 %
31.07.2017 01:24 20,9 C 23,9 C 78 % 1013,3 hPa 0,0 l/m 4,4 km/h (1 Bft) SW 216 0 min 0,000 mm 0,0 UV-I 0 W/m 16,9 C 20,9 C 6,4 km/h (2 Bft) 95,74 %
31.07.2017 01:26 20,8 C 23,9 C 78 % 1013,3 hPa 0,0 l/m 5,1 km/h (1 Bft) SW 215 0 min 0,000 mm 0,0 UV-I 0 W/m 16,8 C 20,8 C 6,4 km/h (2 Bft) 95,74 %
31.07.2017 01:28 20,8 C 23,9 C 79 % 1013,3 hPa 0,0 l/m 3,2 km/h (1 Bft) S 182 0 min 0,000 mm 0,0 UV-I 0 W/m 17,0 C 20,8 C 6,4 km/h (2 Bft) 95,83 %
31.07.2017 01:30 20,7 C 23,9 C 79 % 1013,3 hPa 0,0 l/m 3,4 km/h (1 Bft) S 183 0 min 0,000 mm 0,0 UV-I 0 W/m 16,9 C 20,7 C 6,4 km/h (2 Bft) 95,74 %
31.07.2017 01:32 20,7 C 23,9 C 79 % 1013,2 hPa 0,0 l/m 3,1 km/h (1 Bft) S 183 0 min 0,000 mm 0,0 UV-I 0 W/m 16,9 C 20,7 C 6,4 km/h (2 Bft) 95,74 %
31.07.2017 01:34 20,6 C 23,9 C 79 % 1013,2 hPa 0,0 l/m 2,0 km/h (1 Bft) S 183 0 min 0,000 mm 0,0 UV-I 0 W/m 16,8 C 20,6 C 4,8 km/h (1 Bft) 100,00 %
31.07.2017 01:36 20,5 C 23,9 C 79 % 1013,1 hPa 0,0 l/m 2,0 km/h (1 Bft) S 184 0 min 0,000 mm 0,0 UV-I 0 W/m 16,7 C 20,5 C 4,8 km/h (1 Bft) 95,74 %
31.07.2017 01:38 20,4 C 23,9 C 80 % 1013,2 hPa 0,0 l/m 2,3 km/h (1 Bft) S 184 0 min 0,000 mm 0,0 UV-I 0 W/m 16,8 C 20,4 C 4,8 km/h (1 Bft) 97,87 %
31.07.2017 01:40 20,3 C 23,9 C 80 % 1013,2 hPa 0,0 l/m 2,8 km/h (1 Bft) S 189 0 min 0,000 mm 0,0 UV-I 0 W/m 16,7 C 20,3 C 4,8 km/h (1 Bft) 97,87 %
31.07.2017 01:42 20,3 C 23,9 C 80 % 1013,2 hPa 0,0 l/m 1,6 km/h (1 Bft) S 189 0 min 0,000 mm 0,0 UV-I 0 W/m 16,7 C 20,3 C 3,2 km/h (1 Bft) 97,87 %
31.07.2017 01:44 20,2 C 23,9 C 80 % 1013,2 hPa 0,0 l/m 2,4 km/h (1 Bft) S 189 0 min 0,000 mm 0,0 UV-I 0 W/m 16,6 C 20,2 C 3,2 km/h (1 Bft) 100,00 %
31.07.2017 01:46 20,1 C 23,9 C 81 % 1013,2 hPa 0,0 l/m 2,4 km/h (1 Bft) S 189 0 min 0,000 mm 0,0 UV-I 0 W/m 16,7 C 20,1 C 3,2 km/h (1 Bft) 100,00 %
31.07.2017 01:48 20,0 C 23,9 C 81 % 1013,2 hPa 0,0 l/m 2,3 km/h (1 Bft) S 189 0 min 0,000 mm 0,0 UV-I 0 W/m 16,6 C 20,0 C 3,2 km/h (1 Bft) 91,43 %
31.07.2017 01:50 20,1 C 23,9 C 81 % 1013,3 hPa 0,0 l/m 2,7 km/h (1 Bft) S 189 0 min 0,000 mm 0,0 UV-I 0 W/m 16,7 C 20,1 C 4,8 km/h (1 Bft) 97,92 %
31.07.2017 01:52 20,1 C 23,9 C 81 % 1013,2 hPa 0,0 l/m 2,5 km/h (1 Bft) S 189 0 min 0,000 mm 0,0 UV-I 0 W/m 16,7 C 20,1 C 3,2 km/h (1 Bft) 98,11 %
31.07.2017 01:54 20,1 C 23,9 C 81 % 1013,3 hPa 0,0 l/m 3,2 km/h (1 Bft) S 189 0 min 0,000 mm 0,0 UV-I 0 W/m 16,7 C 20,1 C 4,8 km/h (1 Bft) 100,00 %
31.07.2017 01:56 20,1 C 23,9 C 82 % 1013,2 hPa 0,0 l/m 3,8 km/h (1 Bft) S 189 0 min 0,000 mm 0,0 UV-I 0 W/m 16,9 C 20,1 C 4,8 km/h (1 Bft) 91,49 %
31.07.2017 01:58 19,9 C 23,9 C 81 % 1013,2 hPa 0,0 l/m 2,3 km/h (1 Bft) S 189 0 min 0,000 mm 0,0 UV-I 0 W/m 16,5 C 19,9 C 4,8 km/h (1 Bft) 95,74 %
31.07.2017 02:00 19,8 C 23,9 C 81 % 1013,1 hPa 0,0 l/m 2,4 km/h (1 Bft) S 189 0 min 0,026 mm 0,0 UV-I 0 W/m 16,4 C 19,8 C 4,8 km/h (1 Bft) 93,62 %
31.07.2017 02:02 19,8 C 23,9 C 82 % 1013,1 hPa 0,0 l/m 3,4 km/h (1 Bft) S 189 0 min 0,000 mm 0,0 UV-I 0 W/m 16,6 C 19,8 C 4,8 km/h (1 Bft) 95,74 %
31.07.2017 02:04 19,8 C 23,9 C 82 % 1013,2 hPa 0,0 l/m 4,5 km/h (1 Bft) S 189 0 min 0,000 mm 0,0 UV-I 0 W/m 16,6 C 19,8 C 6,4 km/h (2 Bft) 97,87 %
31.07.2017 02:06 19,8 C 23,9 C 82 % 1013,2 hPa 0,0 l/m 3,8 km/h (1 Bft) S 189 0 min 0,000 mm 0,0 UV-I 0 W/m 16,6 C 19,8 C 4,8 km/h (1 Bft) 93,62 %
31.07.2017 02:08 19,9 C 23,9 C 81 % 1013,3 hPa 0,0 l/m 2,8 km/h (1 Bft) S 190 0 min 0,000 mm 0,0 UV-I 0 W/m 16,5 C 19,9 C 4,8 km/h (1 Bft) 94,87 %
31.07.2017 02:10 20,1 C 23,9 C 81 % 1013,4 hPa 0,0 l/m 1,7 km/h (1 Bft) S 190 0 min 0,000 mm 0,0 UV-I 0 W/m 16,7 C 20,1 C 3,2 km/h (1 Bft) 91,49 %
31.07.2017 02:12 20,1 C 23,9 C 81 % 1013,4 hPa 0,0 l/m 2,3 km/h (1 Bft) S 190 0 min 0,000 mm 0,0 UV-I 0 W/m 16,7 C 20,1 C 3,2 km/h (1 Bft) 95,74 %
31.07.2017 02:14 20,1 C 23,9 C 81 % 1013,4 hPa 0,0 l/m 3,5 km/h (1 Bft) S 190 0 min 0,000 mm 0,0 UV-I 0 W/m 16,7 C 20,1 C 4,8 km/h (1 Bft) 95,74 %
31.07.2017 02:16 20,0 C 23,9 C 81 % 1013,5 hPa 0,0 l/m 3,0 km/h (1 Bft) SW 229 0 min 0,000 mm 0,0 UV-I 0 W/m 16,6 C 20,0 C 4,8 km/h (1 Bft) 94,00 %
31.07.2017 02:18 19,9 C 23,9 C 81 % 1013,5 hPa 0,0 l/m 1,6 km/h (1 Bft) SW 232 0 min 0,000 mm 0,0 UV-I 0 W/m 16,5 C 19,9 C 3,2 km/h (1 Bft) 95,74 %
31.07.2017 02:20 19,7 C 23,9 C 82 % 1013,5 hPa 0,0 l/m 0,3 km/h (0 Bft) SW 234 0 min 0,000 mm 0,0 UV-I 0 W/m 16,5 C 19,7 C 1,6 km/h (1 Bft) 95,74 %
31.07.2017 02:22 19,6 C 23,9 C 83 % 1013,5 hPa 0,0 l/m 0,2 km/h (0 Bft) SW 236 0 min 0,000 mm 0,0 UV-I 0 W/m 16,6 C 19,6 C 1,6 km/h (1 Bft) 95,74 %
31.07.2017 02:24 19,6 C 23,9 C 83 % 1013,5 hPa 0,0 l/m 0,1 km/h (0 Bft) SW 236 0 min 0,000 mm 0,0 UV-I 0 W/m 16,6 C 19,6 C 1,6 km/h (1 Bft) 95,74 %
31.07.2017 02:26 19,4 C 23,9 C 83 % 1013,5 hPa 0,0 l/m 0,0 km/h (0 Bft) SW 236 0 min 0,000 mm 0,0 UV-I 0 W/m 16,4 C 19,4 C 0,0 km/h (0 Bft) 97,87 %
31.07.2017 02:28 19,4 C 23,9 C 84 % 1013,6 hPa 0,0 l/m 0,3 km/h (0 Bft) SW 236 0 min 0,000 mm 0,0 UV-I 0 W/m 16,6 C 19,4 C 1,6 km/h (1 Bft) 93,62 %
31.07.2017 02:30 19,4 C 23,9 C 84 % 1013,8 hPa 0,0 l/m 0,1 km/h (0 Bft) SW 236 0 min 0,000 mm 0,0 UV-I 0 W/m 16,6 C 19,4 C 1,6 km/h (1 Bft) 100,00 %
31.07.2017 02:32 19,4 C 23,9 C 84 % 1013,8 hPa 0,0 l/m 0,0 km/h (0 Bft) SW 236 0 min 0,000 mm 0,0 UV-I 0 W/m 16,6 C 19,4 C 0,0 km/h (0 Bft) 97,87 %
31.07.2017 02:34 19,4 C 23,9 C 84 % 1013,8 hPa 0,0 l/m 0,0 km/h (0 Bft) SW 236 0 min 0,000 mm 0,0 UV-I 0 W/m 16,6 C 19,4 C 0,0 km/h (0 Bft) 97,87 %
31.07.2017 02:36 19,3 C 23,9 C 84 % 1013,8 hPa 0,0 l/m 0,0 km/h (0 Bft) SW 236 0 min 0,000 mm 0,0 UV-I 0 W/m 16,5 C 19,3 C 0,0 km/h (0 Bft) 97,87 %
31.07.2017 02:38 19,4 C 23,9 C 84 % 1013,7 hPa 0,0 l/m 0,2 km/h (0 Bft) SW 236 0 min 0,000 mm 0,0 UV-I 0 W/m 16,6 C 19,4 C 1,6 km/h (1 Bft) 97,87 %
31.07.2017 02:40 19,4 C 23,9 C 84 % 1013,7 hPa 0,0 l/m 0,5 km/h (0 Bft) SW 236 0 min 0,000 mm 0,0 UV-I 0 W/m 16,6 C 19,4 C 1,6 km/h (1 Bft) 100,00 %
31.07.2017 02:42 19,4 C 23,9 C 84 % 1013,7 hPa 0,0 l/m 0,0 km/h (0 Bft) SW 236 0 min 0,000 mm 0,0 UV-I 0 W/m 16,6 C 19,4 C 0,0 km/h (0 Bft) 100,00 %
31.07.2017 02:44 19,5 C 23,9 C 83 % 1013,7 hPa 0,0 l/m 1,2 km/h (1 Bft) SW 236 0 min 0,000 mm 0,0 UV-I 0 W/m 16,5 C 19,5 C 3,2 km/h (1 Bft) 100,00 %
31.07.2017 02:46 19,6 C 23,9 C 83 % 1013,7 hPa 0,0 l/m 2,1 km/h (1 Bft) SW 236 0 min 0,000 mm 0,0 UV-I 0 W/m 16,6 C 19,6 C 3,2 km/h (1 Bft) 95,83 %
31.07.2017 02:48 19,6 C 23,9 C 83 % 1013,7 hPa 0,0 l/m 0,3 km/h (0 Bft) SW 236 0 min 0,000 mm 0,0 UV-I 0 W/m 16,6 C 19,6 C 3,2 km/h (1 Bft) 100,00 %
31.07.2017 02:50 19,6 C 23,9 C 83 % 1013,7 hPa 0,0 l/m 0,2 km/h (0 Bft) SW 236 0 min 0,000 mm 0,0 UV-I 0 W/m 16,6 C 19,6 C 1,6 km/h (1 Bft) 95,74 %
31.07.2017 02:52 19,6 C 23,9 C 83 % 1013,7 hPa 0,0 l/m 0,7 km/h (0 Bft) SW 236 0 min 0,000 mm 0,0 UV-I 0 W/m 16,6 C 19,6 C 1,6 km/h (1 Bft) 100,00 %
31.07.2017 02:54 19,5 C 23,9 C 83 % 1013,8 hPa 0,0 l/m 1,5 km/h (1 Bft) SW 236 0 min 0,000 mm 0,0 UV-I 0 W/m 16,5 C 19,5 C 3,2 km/h (1 Bft) 97,87 %
31.07.2017 02:56 19,5 C 23,9 C 83 % 1013,8 hPa 0,0 l/m 1,2 km/h (1 Bft) SW 236 0 min 0,000 mm 0,0 UV-I 0 W/m 16,5 C 19,5 C 3,2 km/h (1 Bft) 95,74 %
31.07.2017 02:58 19,4 C 23,9 C 84 % 1013,8 hPa 0,0 l/m 2,2 km/h (1 Bft) W-SW 239 0 min 0,000 mm 0,0 UV-I 0 W/m 16,6 C 19,4 C 4,8 km/h (1 Bft) 100,00 %
31.07.2017 03:00 19,4 C 23,9 C 84 % 1013,7 hPa 0,0 l/m 2,9 km/h (1 Bft) W-SW 242 0 min 0,000 mm 0,0 UV-I 0 W/m 16,6 C 19,4 C 4,8 km/h (1 Bft) 97,14 %
31.07.2017 03:02 19,4 C 23,9 C 83 % 1013,8 hPa 0,0 l/m 1,6 km/h (1 Bft) W 278 0 min 0,000 mm 0,0 UV-I 0 W/m 16,4 C 19,4 C 4,8 km/h (1 Bft) 98,00 %
31.07.2017 03:04 19,4 C 23,9 C 83 % 1013,9 hPa 0,0 l/m 3,4 km/h (1 Bft) W-NW 286 0 min 0,000 mm 0,0 UV-I 0 W/m 16,4 C 19,4 C 11,3 km/h (2 Bft) 97,87 %
31.07.2017 03:06 19,5 C 23,9 C 83 % 1013,9 hPa 0,0 l/m 2,1 km/h (1 Bft) W 281 0 min 0,000 mm 0,0 UV-I 0 W/m 16,5 C 19,5 C 6,4 km/h (2 Bft) 95,74 %
31.07.2017 03:08 19,6 C 23,9 C 83 % 1013,9 hPa 0,0 l/m 4,1 km/h (1 Bft) W-NW 295 0 min 0,000 mm 0,0 UV-I 0 W/m 16,6 C 19,6 C 11,3 km/h (2 Bft) 97,87 %
31.07.2017 03:10 19,6 C 23,9 C 82 % 1013,9 hPa 0,0 l/m 3,9 km/h (1 Bft) W 269 0 min 0,000 mm 0,0 UV-I 0 W/m 16,4 C 19,6 C 8,0 km/h (2 Bft) 93,62 %
31.07.2017 03:12 19,6 C 23,9 C 82 % 1013,9 hPa 0,0 l/m 2,3 km/h (1 Bft) W-SW 257 0 min 0,000 mm 0,0 UV-I 0 W/m 16,4 C 19,6 C 6,4 km/h (2 Bft) 100,00 %
31.07.2017 03:14 19,7 C 23,9 C 82 % 1013,9 hPa 0,0 l/m 1,8 km/h (1 Bft) W 281 0 min 0,000 mm 0,0 UV-I 0 W/m 16,5 C 19,7 C 4,8 km/h (1 Bft) 95,74 %
31.07.2017 03:16 19,7 C 23,9 C 82 % 1013,9 hPa 0,0 l/m 2,1 km/h (1 Bft) SW 231 0 min 0,000 mm 0,0 UV-I 0 W/m 16,5 C 19,7 C 4,8 km/h (1 Bft) 97,87 %
31.07.2017 03:18 19,7 C 23,9 C 81 % 1013,9 hPa 0,0 l/m 3,9 km/h (1 Bft) W-SW 254 0 min 0,000 mm 0,0 UV-I 0 W/m 16,3 C 19,7 C 6,4 km/h (2 Bft) 97,87 %
31.07.2017 03:20 19,7 C 23,9 C 81 % 1013,9 hPa 0,0 l/m 4,9 km/h (1 Bft) W 274 0 min 0,000 mm 0,0 UV-I 0 W/m 16,3 C 19,7 C 11,3 km/h (2 Bft) 100,00 %
31.07.2017 03:22 19,8 C 23,9 C 81 % 1013,9 hPa 0,0 l/m 2,3 km/h (1 Bft) W 273 0 min 0,000 mm 0,0 UV-I 0 W/m 16,4 C 19,8 C 4,8 km/h (1 Bft) 91,67 %
31.07.2017 03:24 19,8 C 23,9 C 80 % 1013,9 hPa 0,0 l/m 6,0 km/h (2 Bft) W-SW 245 0 min 0,000 mm 0,0 UV-I 0 W/m 16,2 C 19,8 C 12,9 km/h (3 Bft) 97,96 %
31.07.2017 03:26 19,8 C 23,9 C 80 % 1014,0 hPa 0,0 l/m 7,2 km/h (2 Bft) SW 228 0 min 0,000 mm 0,0 UV-I 0 W/m 16,2 C 19,5 C 9,7 km/h (2 Bft) 100,00 %
31.07.2017 03:28 19,8 C 23,9 C 80 % 1014,0 hPa 0,0 l/m 6,2 km/h (2 Bft) W-SW 246 0 min 0,000 mm 0,0 UV-I 0 W/m 16,2 C 19,8 C 9,7 km/h (2 Bft) 100,00 %
31.07.2017 03:30 19,8 C 23,9 C 80 % 1013,9 hPa 0,0 l/m 5,4 km/h (1 Bft) W-SW 251 0 min 0,000 mm 0,0 UV-I 0 W/m 16,2 C 19,8 C 9,7 km/h (2 Bft) 100,00 %
31.07.2017 03:32 19,8 C 23,9 C 80 % 1013,9 hPa 0,0 l/m 3,9 km/h (1 Bft) SW 231 0 min 0,000 mm 0,0 UV-I 0 W/m 16,2 C 19,8 C 6,4 km/h (2 Bft) 95,74 %
31.07.2017 03:34 19,9 C 23,9 C 80 % 1013,9 hPa 0,0 l/m 5,4 km/h (1 Bft) SW 224 0 min 0,000 mm 0,0 UV-I 0 W/m 16,3 C 19,9 C 6,4 km/h (2 Bft) 100,00 %
31.07.2017 03:36 19,9 C 23,9 C 80 % 1013,9 hPa 0,0 l/m 4,6 km/h (1 Bft) S-SW 211 0 min 0,000 mm 0,0 UV-I 0 W/m 16,3 C 19,9 C 6,4 km/h (2 Bft) 97,87 %
31.07.2017 03:38 19,8 C 23,9 C 80 % 1014,0 hPa 0,0 l/m 4,7 km/h (1 Bft) SW 225 0 min 0,000 mm 0,0 UV-I 0 W/m 16,2 C 19,8 C 6,4 km/h (2 Bft) 97,87 %
31.07.2017 03:40 19,9 C 23,9 C 80 % 1014,0 hPa 0,0 l/m 4,0 km/h (1 Bft) SW 227 0 min 0,000 mm 0,0 UV-I 0 W/m 16,3 C 19,9 C 6,4 km/h (2 Bft) 94,00 %
31.07.2017 03:42 19,8 C 23,9 C 80 % 1014,0 hPa 0,0 l/m 4,1 km/h (1 Bft) SW 231 0 min 0,000 mm 0,0 UV-I 0 W/m 16,2 C 19,8 C 6,4 km/h (2 Bft) 97,87 %
31.07.2017 03:44 19,8 C 23,9 C 80 % 1014,0 hPa 0,0 l/m 4,4 km/h (1 Bft) SW 214 0 min 0,000 mm 0,0 UV-I 0 W/m 16,2 C 19,8 C 6,4 km/h (2 Bft) 97,87 %
31.07.2017 03:46 19,8 C 23,9 C 80 % 1014,0 hPa 0,0 l/m 4,1 km/h (1 Bft) SW 222 0 min 0,000 mm 0,0 UV-I 0 W/m 16,2 C 19,8 C 8,0 km/h (2 Bft) 97,87 %
31.07.2017 03:48 19,8 C 23,9 C 80 % 1014,0 hPa 0,0 l/m 4,6 km/h (1 Bft) S-SW 204 0 min 0,000 mm 0,0 UV-I 0 W/m 16,2 C 19,8 C 6,4 km/h (2 Bft) 98,00 %
31.07.2017 03:50 19,7 C 23,9 C 80 % 1014,0 hPa 0,0 l/m 5,1 km/h (1 Bft) S-SW 213 0 min 0,000 mm 0,0 UV-I 0 W/m 16,1 C 19,7 C 6,4 km/h (2 Bft) 93,62 %
31.07.2017 03:52 19,7 C 23,9 C 81 % 1014,1 hPa 0,0 l/m 7,0 km/h (2 Bft) S-SW 209 0 min 0,000 mm 0,0 UV-I 0 W/m 16,3 C 19,5 C 9,7 km/h (2 Bft) 97,87 %
31.07.2017 03:54 19,6 C 23,9 C 81 % 1014,1 hPa 0,0 l/m 6,4 km/h (2 Bft) S-SW 195 0 min 0,000 mm 0,0 UV-I 0 W/m 16,2 C 19,6 C 9,7 km/h (2 Bft) 93,62 %
31.07.2017 03:56 19,6 C 23,9 C 81 % 1014,1 hPa 0,0 l/m 5,5 km/h (1 Bft) S-SW 199 0 min 0,000 mm 0,0 UV-I 0 W/m 16,2 C 19,6 C 8,0 km/h (2 Bft) 97,14 %
31.07.2017 03:58 19,6 C 23,9 C 81 % 1014,1 hPa 0,0 l/m 3,9 km/h (1 Bft) S-SW 208 0 min 0,000 mm 0,0 UV-I 0 W/m 16,2 C 19,6 C 8,0 km/h (2 Bft) 93,75 %
31.07.2017 04:00 19,6 C 23,9 C 81 % 1014,1 hPa 0,0 l/m 5,2 km/h (1 Bft) S-SW 203 0 min 0,025 mm 0,0 UV-I 0 W/m 16,2 C 19,6 C 9,7 km/h (2 Bft) 93,62 %
31.07.2017 04:02 19,6 C 23,9 C 81 % 1014,3 hPa 0,0 l/m 5,3 km/h (1 Bft) SW 226 0 min 0,000 mm 0,0 UV-I 0 W/m 16,2 C 19,6 C 8,0 km/h (2 Bft) 100,00 %
31.07.2017 04:04 19,6 C 23,9 C 81 % 1014,4 hPa 0,0 l/m 7,6 km/h (2 Bft) SW 215 0 min 0,000 mm 0,0 UV-I 0 W/m 16,2 C 19,1 C 12,9 km/h (3 Bft) 94,00 %
31.07.2017 04:06 19,4 C 23,9 C 81 % 1014,6 hPa 0,0 l/m 7,9 km/h (2 Bft) SW 221 0 min 0,000 mm 0,0 UV-I 0 W/m 16,1 C 18,8 C 11,3 km/h (2 Bft) 93,62 %
31.07.2017 04:08 19,4 C 23,9 C 82 % 1014,7 hPa 0,0 l/m 10,6 km/h (2 Bft) SW 231 0 min 0,000 mm 0,0 UV-I 0 W/m 16,2 C 17,8 C 17,7 km/h (3 Bft) 95,74 %
31.07.2017 04:10 19,3 C 23,9 C 82 % 1014,8 hPa 0,0 l/m 14,9 km/h (3 Bft) SW 229 0 min 0,000 mm 0,0 UV-I 0 W/m 16,1 C 16,4 C 22,5 km/h (4 Bft) 97,37 %
31.07.2017 04:12 19,2 C 23,9 C 82 % 1015,0 hPa 0,0 l/m 17,8 km/h (3 Bft) SW 220 0 min 0,000 mm 0,0 UV-I 0 W/m 16,0 C 15,6 C 24,1 km/h (4 Bft) 98,00 %
31.07.2017 04:14 19,2 C 23,9 C 82 % 1015,1 hPa 0,0 l/m 13,9 km/h (3 Bft) W-SW 258 0 min 0,000 mm 0,0 UV-I 0 W/m 16,0 C 16,6 C 20,9 km/h (4 Bft) 95,74 %
31.07.2017 04:16 19,2 C 23,3 C 82 % 1015,2 hPa 0,0 l/m 13,1 km/h (3 Bft) W-SW 240 0 min 0,000 mm 0,0 UV-I 0 W/m 16,0 C 16,8 C 20,9 km/h (4 Bft) 97,87 %
31.07.2017 04:18 19,2 C 23,3 C 82 % 1015,2 hPa 0,0 l/m 11,9 km/h (2 Bft) S-SW 209 0 min 0,000 mm 0,0 UV-I 0 W/m 16,0 C 17,1 C 19,3 km/h (3 Bft) 95,74 %
31.07.2017 04:20 19,2 C 23,9 C 82 % 1015,1 hPa 0,0 l/m 11,5 km/h (2 Bft) SW 216 0 min 0,000 mm 0,0 UV-I 0 W/m 16,0 C 17,3 C 19,3 km/h (3 Bft) 95,74 %
31.07.2017 04:22 19,2 C 23,3 C 82 % 1014,9 hPa 0,0 l/m 13,2 km/h (3 Bft) SW 236 0 min 0,000 mm 0,0 UV-I 0 W/m 16,0 C 16,8 C 19,3 km/h (3 Bft) 91,49 %
31.07.2017 04:24 19,2 C 23,3 C 82 % 1015,0 hPa 0,0 l/m 10,6 km/h (2 Bft) W-SW 249 0 min 0,000 mm 0,0 UV-I 0 W/m 16,0 C 17,6 C 16,1 km/h (3 Bft) 95,74 %
31.07.2017 04:26 19,3 C 23,3 C 81 % 1015,1 hPa 0,0 l/m 13,4 km/h (3 Bft) W-SW 240 0 min 0,000 mm 0,0 UV-I 0 W/m 16,0 C 16,8 C 19,3 km/h (3 Bft) 95,74 %
31.07.2017 04:28 19,3 C 23,3 C 81 % 1015,1 hPa 0,0 l/m 12,1 km/h (2 Bft) SW 223 0 min 0,000 mm 0,0 UV-I 0 W/m 16,0 C 17,2 C 16,1 km/h (3 Bft) 91,49 %
31.07.2017 04:30 19,3 C 23,3 C 81 % 1015,1 hPa 0,0 l/m 10,4 km/h (2 Bft) SW 234 0 min 0,000 mm 0,0 UV-I 0 W/m 16,0 C 17,7 C 16,1 km/h (3 Bft) 95,74 %
31.07.2017 04:32 19,3 C 23,3 C 81 % 1015,1 hPa 0,0 l/m 8,8 km/h (2 Bft) SW 220 0 min 0,000 mm 0,0 UV-I 0 W/m 16,0 C 18,3 C 17,7 km/h (3 Bft) 94,00 %
31.07.2017 04:34 19,3 C 23,3 C 80 % 1015,0 hPa 0,0 l/m 7,7 km/h (2 Bft) S-SW 207 0 min 0,000 mm 0,0 UV-I 0 W/m 15,8 C 18,7 C 11,3 km/h (2 Bft) 94,74 %
31.07.2017 04:36 19,3 C 23,3 C 80 % 1015,0 hPa 0,0 l/m 9,8 km/h (2 Bft) W-SW 252 0 min 0,000 mm 0,0 UV-I 0 W/m 15,8 C 17,9 C 14,5 km/h (3 Bft) 97,87 %
31.07.2017 04:38 19,3 C 23,3 C 80 % 1015,0 hPa 0,0 l/m 7,5 km/h (2 Bft) SW 223 0 min 0,000 mm 0,0 UV-I 0 W/m 15,8 C 18,8 C 12,9 km/h (3 Bft) 93,75 %
31.07.2017 04:40 19,3 C 23,3 C 80 % 1014,9 hPa 0,0 l/m 8,4 km/h (2 Bft) SW 230 0 min 0,000 mm 0,0 UV-I 0 W/m 15,8 C 18,5 C 11,3 km/h (2 Bft) 96,00 %
31.07.2017 04:42 19,3 C 23,3 C 80 % 1015,0 hPa 0,0 l/m 7,3 km/h (2 Bft) S-SW 205 0 min 0,000 mm 0,0 UV-I 0 W/m 15,8 C 18,9 C 16,1 km/h (3 Bft) 96,00 %
31.07.2017 04:44 19,3 C 23,3 C 80 % 1014,9 hPa 0,0 l/m 9,0 km/h (2 Bft) SW 216 0 min 0,000 mm 0,0 UV-I 0 W/m 15,8 C 18,2 C 14,5 km/h (3 Bft) 95,74 %
31.07.2017 04:46 19,3 C 23,3 C 80 % 1014,8 hPa 0,0 l/m 7,8 km/h (2 Bft) S-SW 207 0 min 0,000 mm 0,0 UV-I 0 W/m 15,8 C 18,7 C 14,5 km/h (3 Bft) 95,12 %
31.07.2017 04:48 19,3 C 23,3 C 81 % 1014,8 hPa 0,0 l/m 10,4 km/h (2 Bft) S-SW 192 0 min 0,000 mm 0,0 UV-I 0 W/m 16,0 C 17,7 C 16,1 km/h (3 Bft) 96,00 %
31.07.2017 04:50 19,3 C 23,3 C 80 % 1014,8 hPa 0,0 l/m 10,5 km/h (2 Bft) S-SW 205 0 min 0,000 mm 0,0 UV-I 0 W/m 15,8 C 17,7 C 16,1 km/h (3 Bft) 97,87 %
31.07.2017 04:52 19,3 C 23,3 C 81 % 1014,7 hPa 0,0 l/m 9,3 km/h (2 Bft) W-SW 240 0 min 0,000 mm 0,0 UV-I 0 W/m 16,0 C 18,1 C 16,1 km/h (3 Bft) 95,74 %
31.07.2017 04:54 19,3 C 23,3 C 80 % 1014,8 hPa 0,0 l/m 8,8 km/h (2 Bft) SW 223 0 min 0,000 mm 0,0 UV-I 0 W/m 15,8 C 18,3 C 14,5 km/h (3 Bft) 97,87 %
31.07.2017 04:56 19,3 C 23,3 C 81 % 1014,7 hPa 0,0 l/m 7,9 km/h (2 Bft) SW 233 0 min 0,000 mm 0,0 UV-I 0 W/m 16,0 C 18,7 C 14,5 km/h (3 Bft) 95,74 %
31.07.2017 04:58 19,3 C 23,3 C 81 % 1014,7 hPa 0,0 l/m 8,6 km/h (2 Bft) SW 231 0 min 0,000 mm 0,0 UV-I 0 W/m 16,0 C 18,4 C 16,1 km/h (3 Bft) 96,00 %
31.07.2017 05:00 19,3 C 23,3 C 81 % 1014,6 hPa 0,0 l/m 8,7 km/h (2 Bft) SW 225 0 min 0,026 mm 0,0 UV-I 0 W/m 16,0 C 18,3 C 12,9 km/h (3 Bft) 95,74 %
31.07.2017 05:02 19,3 C 23,3 C 80 % 1014,6 hPa 0,0 l/m 6,5 km/h (2 Bft) SW 214 0 min 0,000 mm 0,0 UV-I 0 W/m 15,8 C 19,3 C 11,3 km/h (2 Bft) 97,87 %
31.07.2017 05:04 19,3 C 23,3 C 80 % 1014,6 hPa 0,0 l/m 8,4 km/h (2 Bft) S-SW 195 0 min 0,000 mm 0,0 UV-I 0 W/m 15,8 C 18,5 C 14,5 km/h (3 Bft) 97,87 %
31.07.2017 05:06 19,3 C 23,3 C 80 % 1014,6 hPa 0,0 l/m 9,9 km/h (2 Bft) S 191 0 min 0,000 mm 0,0 UV-I 0 W/m 15,8 C 17,9 C 14,5 km/h (3 Bft) 97,44 %
31.07.2017 05:08 19,3 C 23,3 C 80 % 1014,6 hPa 0,0 l/m 8,3 km/h (2 Bft) S-SW 210 0 min 0,000 mm 0,0 UV-I 0 W/m 15,8 C 18,5 C 12,9 km/h (3 Bft) 95,74 %
31.07.2017 05:10 19,3 C 23,3 C 81 % 1014,7 hPa 0,0 l/m 8,2 km/h (2 Bft) SW 215 0 min 0,000 mm 0,0 UV-I 0 W/m 16,0 C 18,5 C 17,7 km/h (3 Bft) 95,74 %
31.07.2017 05:12 19,3 C 23,3 C 81 % 1014,8 hPa 0,0 l/m 9,6 km/h (2 Bft) SW 228 0 min 0,000 mm 0,0 UV-I 0 W/m 16,0 C 18,0 C 16,1 km/h (3 Bft) 97,87 %
31.07.2017 05:14 19,2 C 23,3 C 81 % 1014,7 hPa 0,0 l/m 6,3 km/h (2 Bft) S 190 0 min 0,000 mm 0,0 UV-I 0 W/m 15,9 C 19,2 C 11,3 km/h (2 Bft) 93,62 %
31.07.2017 05:16 19,2 C 23,3 C 81 % 1014,6 hPa 0,0 l/m 5,8 km/h (2 Bft) S-SW 198 0 min 0,000 mm 0,0 UV-I 0 W/m 15,9 C 19,2 C 9,7 km/h (2 Bft) 97,87 %
31.07.2017 05:18 19,2 C 23,3 C 81 % 1014,6 hPa 0,0 l/m 7,5 km/h (2 Bft) S 184 0 min 0,000 mm 0,0 UV-I 0 W/m 15,9 C 18,7 C 14,5 km/h (3 Bft) 95,83 %
31.07.2017 05:20 19,2 C 23,3 C 81 % 1014,6 hPa 0,0 l/m 6,2 km/h (2 Bft) S 189 0 min 0,000 mm 0,0 UV-I 0 W/m 15,9 C 19,2 C 11,3 km/h (2 Bft) 97,87 %
31.07.2017 05:22 19,2 C 23,3 C 81 % 1014,6 hPa 0,0 l/m 5,6 km/h (1 Bft) S-SO 160 0 min 0,000 mm 0,0 UV-I 0 W/m 15,9 C 19,2 C 9,7 km/h (2 Bft) 92,00 %
31.07.2017 05:24 19,2 C 23,3 C 81 % 1014,6 hPa 0,0 l/m 6,2 km/h (2 Bft) SW 225 0 min 0,000 mm 0,0 UV-I 1 W/m 15,9 C 19,2 C 11,3 km/h (2 Bft) 95,74 %
31.07.2017 05:26 19,2 C 23,3 C 82 % 1014,6 hPa 0,0 l/m 5,4 km/h (1 Bft) S-SW 192 0 min 0,000 mm 0,0 UV-I 5 W/m 16,0 C 19,2 C 9,7 km/h (2 Bft) 95,74 %
31.07.2017 05:28 19,1 C 23,3 C 82 % 1014,7 hPa 0,0 l/m 5,7 km/h (1 Bft) S-SW 196 0 min 0,000 mm 0,0 UV-I 5 W/m 16,0 C 19,1 C 9,7 km/h (2 Bft) 100,00 %
31.07.2017 05:30 19,1 C 23,3 C 82 % 1014,7 hPa 0,0 l/m 6,4 km/h (2 Bft) SW 234 0 min 0,000 mm 0,0 UV-I 5 W/m 16,0 C 19,1 C 9,7 km/h (2 Bft) 100,00 %
31.07.2017 05:32 19,1 C 23,3 C 82 % 1014,8 hPa 0,0 l/m 7,6 km/h (2 Bft) S-SW 207 0 min 0,000 mm 0,0 UV-I 5 W/m 16,0 C 18,6 C 11,3 km/h (2 Bft) 97,14 %
31.07.2017 05:34 19,0 C 23,3 C 82 % 1014,9 hPa 0,0 l/m 7,4 km/h (2 Bft) SW 215 0 min 0,000 mm 0,0 UV-I 5 W/m 15,9 C 18,6 C 11,3 km/h (2 Bft) 100,00 %
31.07.2017 05:36 18,9 C 23,3 C 82 % 1014,9 hPa 0,0 l/m 10,1 km/h (2 Bft) SW 217 0 min 0,000 mm 0,0 UV-I 5 W/m 15,8 C 17,4 C 14,5 km/h (3 Bft) 100,00 %
31.07.2017 05:38 18,9 C 23,3 C 82 % 1014,9 hPa 0,0 l/m 9,4 km/h (2 Bft) SW 218 0 min 0,000 mm 0,0 UV-I 6 W/m 15,8 C 17,6 C 16,1 km/h (3 Bft) 93,62 %
31.07.2017 05:40 18,9 C 23,3 C 83 % 1014,9 hPa 0,0 l/m 7,0 km/h (2 Bft) W-SW 238 0 min 0,000 mm 0,0 UV-I 7 W/m 15,9 C 18,6 C 9,7 km/h (2 Bft) 100,00 %
31.07.2017 05:42 18,8 C 23,3 C 83 % 1014,8 hPa 0,0 l/m 7,8 km/h (2 Bft) SW 227 0 min 0,000 mm 0,0 UV-I 7 W/m 15,8 C 18,2 C 11,3 km/h (2 Bft) 97,87 %
31.07.2017 05:44 18,8 C 23,3 C 83 % 1014,9 hPa 0,0 l/m 6,7 km/h (2 Bft) SW 234 0 min 0,000 mm 0,0 UV-I 9 W/m 15,8 C 18,7 C 11,3 km/h (2 Bft) 98,00 %
31.07.2017 05:46 18,8 C 23,3 C 83 % 1014,9 hPa 0,0 l/m 6,1 km/h (2 Bft) W-SW 242 0 min 0,000 mm 0,0 UV-I 11 W/m 15,8 C 18,8 C 8,0 km/h (2 Bft) 98,00 %
31.07.2017 05:48 18,8 C 23,3 C 83 % 1015,0 hPa 0,0 l/m 5,0 km/h (1 Bft) W-SW 258 0 min 0,000 mm 0,0 UV-I 11 W/m 15,8 C 18,8 C 9,7 km/h (2 Bft) 97,87 %
31.07.2017 05:50 18,8 C 23,3 C 83 % 1014,9 hPa 0,0 l/m 6,7 km/h (2 Bft) W-SW 250 2 min 0,000 mm 0,0 UV-I 13 W/m 15,8 C 18,7 C 9,7 km/h (2 Bft) 97,14 %
31.07.2017 05:52 18,7 C 23,3 C 83 % 1014,9 hPa 0,0 l/m 5,2 km/h (1 Bft) W 268 2 min 0,000 mm 0,0 UV-I 14 W/m 15,8 C 18,7 C 9,7 km/h (2 Bft) 100,00 %
31.07.2017 05:54 18,6 C 23,3 C 83 % 1014,9 hPa 0,0 l/m 3,8 km/h (1 Bft) W 274 2 min 0,000 mm 0,0 UV-I 17 W/m 15,7 C 18,6 C 6,4 km/h (2 Bft) 100,00 %
31.07.2017 05:56 18,5 C 23,3 C 84 % 1014,9 hPa 0,0 l/m 4,6 km/h (1 Bft) W-SW 244 2 min 0,000 mm 0,0 UV-I 19 W/m 15,7 C 18,5 C 6,4 km/h (2 Bft) 97,92 %
31.07.2017 05:58 18,4 C 23,3 C 84 % 1014,9 hPa 0,0 l/m 5,3 km/h (1 Bft) W 260 2 min 0,000 mm 0,0 UV-I 24 W/m 15,6 C 18,4 C 9,7 km/h (2 Bft) 93,62 %
31.07.2017 06:00 18,5 C 23,3 C 84 % 1015,0 hPa 0,0 l/m 5,9 km/h (2 Bft) W-SW 251 2 min 0,025 mm 0,0 UV-I 26 W/m 15,7 C 18,5 C 8,0 km/h (2 Bft) 96,00 %
31.07.2017 06:02 18,6 C 23,3 C 84 % 1014,9 hPa 0,0 l/m 5,0 km/h (1 Bft) W-SW 250 0 min 0,000 mm 0,0 UV-I 24 W/m 15,8 C 18,6 C 6,4 km/h (2 Bft) 95,74 %
31.07.2017 06:04 18,6 C 23,3 C 84 % 1014,9 hPa 0,0 l/m 4,6 km/h (1 Bft) W-SW 250 0 min 0,000 mm 0,0 UV-I 19 W/m 15,8 C 18,6 C 6,4 km/h (2 Bft) 96,00 %
31.07.2017 06:06 18,6 C 23,3 C 84 % 1014,9 hPa 0,0 l/m 3,4 km/h (1 Bft) W-SW 250 0 min 0,000 mm 0,0 UV-I 21 W/m 15,8 C 18,6 C 6,4 km/h (2 Bft) 97,87 %
31.07.2017 06:08 18,6 C 23,3 C 84 % 1014,9 hPa 0,0 l/m 1,9 km/h (1 Bft) W-SW 250 0 min 0,000 mm 0,0 UV-I 26 W/m 15,8 C 18,6 C 4,8 km/h (1 Bft) 95,74 %
31.07.2017 06:10 18,5 C 23,3 C 84 % 1014,9 hPa 0,0 l/m 2,6 km/h (1 Bft) W 267 0 min 0,000 mm 0,0 UV-I 34 W/m 15,7 C 18,5 C 4,8 km/h (1 Bft) 95,74 %
31.07.2017 06:12 18,5 C 23,3 C 84 % 1014,9 hPa 0,0 l/m 2,7 km/h (1 Bft) W 280 0 min 0,000 mm 0,0 UV-I 37 W/m 15,7 C 18,5 C 4,8 km/h (1 Bft) 97,87 %
31.07.2017 06:14 18,5 C 23,3 C 84 % 1014,9 hPa 0,0 l/m 1,7 km/h (1 Bft) W 279 0 min 0,000 mm 0,0 UV-I 34 W/m 15,7 C 18,5 C 4,8 km/h (1 Bft) 95,74 %
31.07.2017 06:16 18,5 C 23,3 C 84 % 1014,8 hPa 0,0 l/m 0,8 km/h (0 Bft) W 279 0 min 0,000 mm 0,0 UV-I 37 W/m 15,7 C 18,5 C 1,6 km/h (1 Bft) 95,74 %
31.07.2017 06:18 18,6 C 23,3 C 84 % 1014,8 hPa 0,0 l/m 1,9 km/h (1 Bft) W 279 0 min 0,000 mm 0,0 UV-I 39 W/m 15,8 C 18,6 C 3,2 km/h (1 Bft) 91,43 %
31.07.2017 06:20 18,6 C 23,3 C 84 % 1014,9 hPa 0,0 l/m 1,2 km/h (1 Bft) SW 223 0 min 0,000 mm 0,0 UV-I 49 W/m 15,8 C 18,6 C 4,8 km/h (1 Bft) 96,00 %
31.07.2017 06:22 18,6 C 23,3 C 84 % 1014,9 hPa 0,0 l/m 0,1 km/h (0 Bft) SW 223 2 min 0,000 mm 0,0 UV-I 76 W/m 15,8 C 18,6 C 1,6 km/h (1 Bft) 97,87 %
31.07.2017 06:24 18,4 C 23,3 C 85 % 1014,9 hPa 0,0 l/m 0,0 km/h (0 Bft) SW 223 2 min 0,000 mm 0,0 UV-I 79 W/m 15,8 C 18,4 C 0,0 km/h (0 Bft) 95,74 %
31.07.2017 06:26 18,4 C 23,3 C 85 % 1014,8 hPa 0,0 l/m 0,0 km/h (0 Bft) SW 223 2 min 0,000 mm 0,0 UV-I 62 W/m 15,8 C 18,4 C 0,0 km/h (0 Bft) 95,74 %
31.07.2017 06:28 18,4 C 23,3 C 85 % 1014,9 hPa 0,0 l/m 0,0 km/h (0 Bft) SW 223 2 min 0,000 mm 0,0 UV-I 65 W/m 15,8 C 18,4 C 0,0 km/h (0 Bft) 97,87 %
31.07.2017 06:30 18,5 C 23,3 C 85 % 1014,8 hPa 0,0 l/m 2,4 km/h (1 Bft) SW 223 2 min 0,000 mm 0,0 UV-I 98 W/m 15,9 C 18,5 C 3,2 km/h (1 Bft) 96,00 %
31.07.2017 06:32 18,5 C 23,3 C 85 % 1014,8 hPa 0,0 l/m 2,9 km/h (1 Bft) SW 223 2 min 0,000 mm 0,0 UV-I 105 W/m 15,9 C 18,5 C 3,2 km/h (1 Bft) 97,87 %
31.07.2017 06:34 18,6 C 23,3 C 85 % 1014,7 hPa 0,0 l/m 3,1 km/h (1 Bft) S-SW 205 2 min 0,000 mm 0,0 UV-I 108 W/m 16,0 C 18,6 C 3,2 km/h (1 Bft) 100,00 %
31.07.2017 06:36 18,6 C 23,3 C 85 % 1014,6 hPa 0,0 l/m 4,0 km/h (1 Bft) S 171 2 min 0,000 mm 0,0 UV-I 111 W/m 16,0 C 18,6 C 6,4 km/h (2 Bft) 98,00 %
31.07.2017 06:38 18,6 C 23,3 C 85 % 1014,6 hPa 0,0 l/m 5,0 km/h (1 Bft) SO 126 2 min 0,000 mm 0,0 UV-I 106 W/m 16,0 C 18,6 C 6,4 km/h (2 Bft) 87,23 %
31.07.2017 06:40 18,6 C 23,3 C 85 % 1014,6 hPa 0,0 l/m 4,9 km/h (1 Bft) O-SO 122 2 min 0,000 mm 0,0 UV-I 108 W/m 16,0 C 18,6 C 6,4 km/h (2 Bft) 100,00 %
31.07.2017 06:42 18,6 C 23,3 C 85 % 1014,7 hPa 0,0 l/m 4,7 km/h (1 Bft) SO 139 2 min 0,000 mm 0,0 UV-I 112 W/m 16,0 C 18,6 C 6,4 km/h (2 Bft) 100,00 %
31.07.2017 06:44 18,7 C 23,3 C 85 % 1014,8 hPa 0,0 l/m 4,8 km/h (1 Bft) S-SO 155 2 min 0,000 mm 0,0 UV-I 113 W/m 16,1 C 18,7 C 8,0 km/h (2 Bft) 93,62 %
31.07.2017 06:46 18,8 C 23,3 C 84 % 1014,8 hPa 0,0 l/m 3,0 km/h (1 Bft) S-SO 159 2 min 0,000 mm 0,0 UV-I 114 W/m 16,0 C 18,8 C 6,4 km/h (2 Bft) 95,74 %
31.07.2017 06:48 18,9 C 23,3 C 84 % 1014,9 hPa 0,0 l/m 2,3 km/h (1 Bft) S-SO 165 2 min 0,000 mm 0,0 UV-I 117 W/m 16,1 C 18,9 C 6,4 km/h (2 Bft) 93,62 %
31.07.2017 06:50 18,9 C 23,3 C 83 % 1015,0 hPa 0,0 l/m 2,4 km/h (1 Bft) S-SO 163 2 min 0,000 mm 0,0 UV-I 114 W/m 15,9 C 18,9 C 6,4 km/h (2 Bft) 93,62 %
31.07.2017 06:52 19,1 C 23,3 C 83 % 1015,0 hPa 0,0 l/m 4,3 km/h (1 Bft) SO 143 2 min 0,000 mm 0,0 UV-I 102 W/m 16,1 C 19,1 C 8,0 km/h (2 Bft) 85,11 %
31.07.2017 06:54 19,1 C 23,3 C 83 % 1015,0 hPa 0,0 l/m 4,7 km/h (1 Bft) O-SO 122 0 min 0,000 mm 0,0 UV-I 98 W/m 16,1 C 19,1 C 6,4 km/h (2 Bft) 100,00 %
31.07.2017 06:56 19,1 C 23,3 C 83 % 1014,9 hPa 0,0 l/m 5,0 km/h (1 Bft) O-SO 121 2 min 0,000 mm 0,0 UV-I 117 W/m 16,1 C 19,1 C 6,4 km/h (2 Bft) 98,00 %
31.07.2017 06:58 19,1 C 23,3 C 84 % 1014,9 hPa 0,0 l/m 4,6 km/h (1 Bft) O 98 2 min 0,000 mm 0,0 UV-I 136 W/m 16,3 C 19,1 C 6,4 km/h (2 Bft) 91,49 %
31.07.2017 07:00 19,0 C 23,3 C 83 % 1014,9 hPa 0,0 l/m 5,0 km/h (1 Bft) O 81 2 min 0,051 mm 0,0 UV-I 114 W/m 16,0 C 19,0 C 6,4 km/h (2 Bft) 97,87 %
31.07.2017 07:02 19,1 C 23,3 C 84 % 1014,9 hPa 0,0 l/m 4,8 km/h (1 Bft) O-SO 102 2 min 0,000 mm 0,0 UV-I 145 W/m 16,3 C 19,1 C 6,4 km/h (2 Bft) 97,87 %
31.07.2017 07:04 19,1 C 23,3 C 83 % 1014,9 hPa 0,0 l/m 1,4 km/h (1 Bft) O-SO 102 2 min 0,000 mm 0,0 UV-I 153 W/m 16,1 C 19,1 C 3,2 km/h (1 Bft) 97,87 %
31.07.2017 07:06 19,2 C 23,3 C 83 % 1015,0 hPa 0,0 l/m 0,2 km/h (0 Bft) O-SO 102 2 min 0,000 mm 0,0 UV-I 157 W/m 16,2 C 19,2 C 1,6 km/h (1 Bft) 92,00 %
31.07.2017 07:08 19,3 C 23,3 C 82 % 1015,0 hPa 0,0 l/m 0,5 km/h (0 Bft) O-SO 102 2 min 0,000 mm 0,0 UV-I 161 W/m 16,1 C 19,3 C 1,6 km/h (1 Bft) 100,00 %
31.07.2017 07:10 19,4 C 23,3 C 82 % 1015,0 hPa 0,0 l/m 0,4 km/h (0 Bft) O-SO 102 2 min 0,000 mm 0,0 UV-I 168 W/m 16,2 C 19,4 C 1,6 km/h (1 Bft) 100,00 %
31.07.2017 07:12 19,5 C 23,3 C 81 % 1015,1 hPa 0,0 l/m 1,5 km/h (1 Bft) O-SO 102 2 min 0,000 mm 0,0 UV-I 174 W/m 16,1 C 19,5 C 3,2 km/h (1 Bft) 95,74 %
31.07.2017 07:14 19,6 C 23,3 C 82 % 1015,0 hPa 0,0 l/m 0,3 km/h (0 Bft) O-SO 102 2 min 0,000 mm 0,0 UV-I 180 W/m 16,4 C 19,6 C 3,2 km/h (1 Bft) 95,74 %
31.07.2017 07:16 19,7 C 23,3 C 81 % 1015,0 hPa 0,0 l/m 3,0 km/h (1 Bft) O-NO 65 2 min 0,000 mm 0,0 UV-I 186 W/m 16,3 C 19,7 C 4,8 km/h (1 Bft) 97,87 %
31.07.2017 07:18 19,8 C 23,3 C 81 % 1015,0 hPa 0,0 l/m 6,0 km/h (2 Bft) NO 51 2 min 0,000 mm 0,0 UV-I 195 W/m 16,4 C 19,8 C 8,0 km/h (2 Bft) 100,00 %
31.07.2017 07:20 19,8 C 23,3 C 81 % 1015,0 hPa 0,0 l/m 4,7 km/h (1 Bft) O-NO 66 2 min 0,000 mm 0,0 UV-I 200 W/m 16,4 C 19,8 C 8,0 km/h (2 Bft) 97,92 %
31.07.2017 07:22 19,9 C 23,3 C 81 % 1015,0 hPa 0,0 l/m 2,8 km/h (1 Bft) O-NO 66 2 min 0,000 mm 0,0 UV-I 205 W/m 16,5 C 19,9 C 4,8 km/h (1 Bft) 97,37 %
31.07.2017 07:24 20,0 C 23,3 C 80 % 1015,0 hPa 0,0 l/m 4,2 km/h (1 Bft) O-NO 62 2 min 0,000 mm 0,0 UV-I 210 W/m 16,4 C 20,0 C 6,4 km/h (2 Bft) 95,74 %
31.07.2017 07:26 20,1 C 23,3 C 80 % 1015,0 hPa 0,0 l/m 2,5 km/h (1 Bft) O-NO 62 2 min 0,000 mm 0,0 UV-I 219 W/m 16,5 C 20,1 C 4,8 km/h (1 Bft) 95,74 %
31.07.2017 07:28 20,2 C 23,3 C 80 % 1015,1 hPa 0,0 l/m 2,4 km/h (1 Bft) O-NO 62 2 min 0,000 mm 0,0 UV-I 223 W/m 16,6 C 20,2 C 4,8 km/h (1 Bft) 93,62 %
31.07.2017 07:30 20,2 C 23,3 C 79 % 1015,1 hPa 0,0 l/m 5,2 km/h (1 Bft) O 101 2 min 0,000 mm 0,3 UV-I 228 W/m 16,4 C 20,2 C 9,7 km/h (2 Bft) 97,87 %
31.07.2017 07:32 20,3 C 23,3 C 79 % 1015,1 hPa 0,0 l/m 2,8 km/h (1 Bft) O-SO 109 2 min 0,000 mm 0,5 UV-I 235 W/m 16,5 C 20,3 C 6,4 km/h (2 Bft) 100,00 %
31.07.2017 07:34 20,3 C 23,3 C 79 % 1015,1 hPa 0,0 l/m 5,1 km/h (1 Bft) O 96 2 min 0,000 mm 0,5 UV-I 241 W/m 16,5 C 20,3 C 8,0 km/h (2 Bft) 100,00 %
31.07.2017 07:36 20,4 C 23,3 C 79 % 1015,1 hPa 0,0 l/m 4,5 km/h (1 Bft) O 90 2 min 0,000 mm 0,5 UV-I 247 W/m 16,6 C 20,4 C 6,4 km/h (2 Bft) 97,87 %
31.07.2017 07:38 20,4 C 23,3 C 79 % 1015,1 hPa 0,0 l/m 5,3 km/h (1 Bft) NO 52 2 min 0,000 mm 0,5 UV-I 250 W/m 16,6 C 20,4 C 8,0 km/h (2 Bft) 95,74 %
31.07.2017 07:40 20,4 C 23,3 C 78 % 1015,1 hPa 0,0 l/m 6,5 km/h (2 Bft) O-NO 70 2 min 0,000 mm 0,6 UV-I 255 W/m 16,4 C 20,4 C 9,7 km/h (2 Bft) 97,87 %
31.07.2017 07:42 20,5 C 23,3 C 78 % 1015,0 hPa 0,0 l/m 9,7 km/h (2 Bft) O-NO 67 2 min 0,000 mm 0,6 UV-I 260 W/m 16,5 C 19,3 C 12,9 km/h (3 Bft) 98,11 %
31.07.2017 07:44 20,5 C 23,3 C 78 % 1014,9 hPa 0,0 l/m 8,9 km/h (2 Bft) O 85 2 min 0,000 mm 0,6 UV-I 266 W/m 16,5 C 19,6 C 12,9 km/h (3 Bft) 97,87 %
31.07.2017 07:46 20,5 C 23,3 C 78 % 1014,9 hPa 0,0 l/m 5,3 km/h (1 Bft) O-NO 71 2 min 0,000 mm 0,6 UV-I 274 W/m 16,5 C 20,5 C 8,0 km/h (2 Bft) 97,87 %
31.07.2017 07:48 20,5 C 23,3 C 79 % 1014,9 hPa 0,0 l/m 4,8 km/h (1 Bft) O-NO 59 2 min 0,000 mm 0,6 UV-I 280 W/m 16,7 C 20,5 C 8,0 km/h (2 Bft) 97,87 %
31.07.2017 07:50 20,7 C 23,3 C 78 % 1014,9 hPa 0,0 l/m 2,2 km/h (1 Bft) O-NO 60 2 min 0,000 mm 0,7 UV-I 283 W/m 16,7 C 20,7 C 4,8 km/h (1 Bft) 100,00 %
31.07.2017 07:52 20,8 C 23,3 C 79 % 1014,9 hPa 0,0 l/m 3,1 km/h (1 Bft) O-NO 71 2 min 0,000 mm 0,7 UV-I 288 W/m 17,0 C 20,8 C 6,4 km/h (2 Bft) 97,87 %
31.07.2017 07:54 20,9 C 23,3 C 78 % 1014,9 hPa 0,0 l/m 6,2 km/h (2 Bft) O-NO 77 2 min 0,000 mm 0,7 UV-I 291 W/m 16,9 C 20,9 C 12,9 km/h (3 Bft) 95,74 %
31.07.2017 07:56 21,1 C 23,3 C 77 % 1014,9 hPa 0,0 l/m 6,6 km/h (2 Bft) O 90 2 min 0,000 mm 0,8 UV-I 296 W/m 16,9 C 21,0 C 11,3 km/h (2 Bft) 95,24 %
31.07.2017 07:58 21,2 C 23,3 C 77 % 1014,9 hPa 0,0 l/m 8,1 km/h (2 Bft) O 84 2 min 0,000 mm 0,8 UV-I 302 W/m 17,0 C 20,6 C 12,9 km/h (3 Bft) 89,36 %
31.07.2017 08:00 21,2 C 23,3 C 77 % 1014,9 hPa 0,0 l/m 7,7 km/h (2 Bft) O-NO 75 2 min 0,152 mm 0,8 UV-I 313 W/m 17,0 C 20,7 C 12,9 km/h (3 Bft) 93,62 %
31.07.2017 08:02 21,3 C 23,3 C 76 % 1014,9 hPa 0,0 l/m 4,7 km/h (1 Bft) O-NO 77 2 min 0,000 mm 0,8 UV-I 318 W/m 16,9 C 21,3 C 11,3 km/h (2 Bft) 97,87 %
31.07.2017 08:04 21,3 C 23,3 C 76 % 1015,0 hPa 0,0 l/m 6,3 km/h (2 Bft) O-NO 63 2 min 0,000 mm 0,9 UV-I 325 W/m 16,9 C 21,3 C 8,0 km/h (2 Bft) 91,49 %
31.07.2017 08:06 21,4 C 23,3 C 77 % 1015,0 hPa 0,0 l/m 5,7 km/h (1 Bft) O-NO 66 2 min 0,000 mm 0,9 UV-I 335 W/m 17,2 C 21,4 C 8,0 km/h (2 Bft) 91,49 %
31.07.2017 08:08 21,4 C 23,3 C 76 % 1015,0 hPa 0,0 l/m 8,7 km/h (2 Bft) O-NO 70 2 min 0,000 mm 0,9 UV-I 347 W/m 17,0 C 20,6 C 12,9 km/h (3 Bft) 95,74 %
31.07.2017 08:10 21,5 C 23,3 C 75 % 1015,0 hPa 0,0 l/m 7,9 km/h (2 Bft) O 81 2 min 0,000 mm 1,0 UV-I 355 W/m 16,9 C 21,0 C 14,5 km/h (3 Bft) 96,23 %
31.07.2017 08:12 21,6 C 23,3 C 75 % 1015,1 hPa 0,0 l/m 8,6 km/h (2 Bft) O-NO 69 2 min 0,000 mm 1,0 UV-I 369 W/m 17,0 C 20,8 C 14,5 km/h (3 Bft) 94,74 %
31.07.2017 08:14 21,6 C 23,3 C 75 % 1015,0 hPa 0,0 l/m 10,8 km/h (2 Bft) NO 40 2 min 0,000 mm 1,0 UV-I 382 W/m 17,0 C 20,2 C 14,5 km/h (3 Bft) 92,00 %
31.07.2017 08:16 21,7 C 23,3 C 75 % 1015,1 hPa 0,0 l/m 5,9 km/h (2 Bft) NO 47 2 min 0,000 mm 1,1 UV-I 397 W/m 17,1 C 21,7 C 8,0 km/h (2 Bft) 91,49 %
31.07.2017 08:18 21,8 C 23,3 C 74 % 1015,1 hPa 0,0 l/m 8,0 km/h (2 Bft) O-NO 78 2 min 0,000 mm 1,2 UV-I 409 W/m 17,0 C 21,2 C 12,9 km/h (3 Bft) 93,62 %
31.07.2017 08:20 21,9 C 23,3 C 74 % 1015,2 hPa 0,0 l/m 7,4 km/h (2 Bft) O-NO 70 2 min 0,000 mm 1,2 UV-I 417 W/m 17,0 C 21,5 C 11,3 km/h (2 Bft) 91,49 %
31.07.2017 08:22 21,9 C 23,3 C 74 % 1015,2 hPa 0,0 l/m 5,5 km/h (1 Bft) O-NO 60 2 min 0,000 mm 1,2 UV-I 428 W/m 17,0 C 21,9 C 8,0 km/h (2 Bft) 96,00 %
31.07.2017 08:24 22,1 C 23,3 C 74 % 1015,3 hPa 0,0 l/m 6,4 km/h (2 Bft) O-NO 63 2 min 0,000 mm 1,3 UV-I 435 W/m 17,2 C 22,1 C 11,3 km/h (2 Bft) 89,36 %
31.07.2017 08:26 22,2 C 23,3 C 74 % 1015,3 hPa 0,0 l/m 6,4 km/h (2 Bft) NO 36 2 min 0,000 mm 1,3 UV-I 439 W/m 17,3 C 22,2 C 8,0 km/h (2 Bft) 91,49 %
31.07.2017 08:28 22,3 C 23,3 C 74 % 1015,2 hPa 0,0 l/m 5,7 km/h (1 Bft) NO 45 2 min 0,000 mm 1,3 UV-I 443 W/m 17,4 C 22,3 C 8,0 km/h (2 Bft) 93,62 %
31.07.2017 08:30 22,4 C 23,3 C 73 % 1015,2 hPa 0,0 l/m 5,9 km/h (2 Bft) NO 34 2 min 0,000 mm 1,3 UV-I 446 W/m 17,3 C 22,4 C 11,3 km/h (2 Bft) 97,37 %
31.07.2017 08:32 22,6 C 23,3 C 73 % 1015,2 hPa 0,0 l/m 7,0 km/h (2 Bft) O-NO 76 2 min 0,000 mm 1,3 UV-I 429 W/m 17,5 C 22,4 C 9,7 km/h (2 Bft) 97,92 %
31.07.2017 08:34 22,7 C 23,3 C 72 % 1015,2 hPa 0,0 l/m 7,5 km/h (2 Bft) NO 51 2 min 0,000 mm 1,4 UV-I 447 W/m 17,4 C 22,3 C 14,5 km/h (3 Bft) 97,87 %
31.07.2017 08:36 22,8 C 23,3 C 71 % 1015,2 hPa 0,0 l/m 7,6 km/h (2 Bft) O-NO 66 2 min 0,000 mm 1,4 UV-I 447 W/m 17,3 C 22,4 C 11,3 km/h (2 Bft) 97,87 %
31.07.2017 08:38 22,8 C 23,3 C 73 % 1015,2 hPa 0,0 l/m 7,5 km/h (2 Bft) NO 46 2 min 0,000 mm 1,4 UV-I 434 W/m 17,7 C 22,4 C 9,7 km/h (2 Bft) 96,00 %
31.07.2017 08:40 23,0 C 23,3 C 72 % 1015,2 hPa 0,0 l/m 8,2 km/h (2 Bft) NO 44 2 min 0,000 mm 1,4 UV-I 410 W/m 17,7 C 22,4 C 12,9 km/h (3 Bft) 95,74 %
31.07.2017 08:42 23,0 C 23,3 C 71 % 1015,2 hPa 0,0 l/m 7,2 km/h (2 Bft) NO 39 2 min 0,000 mm 1,4 UV-I 432 W/m 17,4 C 22,7 C 9,7 km/h (2 Bft) 93,62 %
31.07.2017 08:44 23,0 C 23,3 C 70 % 1015,2 hPa 0,0 l/m 6,8 km/h (2 Bft) O-NO 65 2 min 0,000 mm 1,4 UV-I 362 W/m 17,2 C 22,9 C 9,7 km/h (2 Bft) 93,62 %
31.07.2017 08:46 23,0 C 23,3 C 71 % 1015,2 hPa 0,0 l/m 6,5 km/h (2 Bft) NO 44 2 min 0,000 mm 1,4 UV-I 289 W/m 17,4 C 23,0 C 11,3 km/h (2 Bft) 96,00 %
31.07.2017 08:48 23,1 C 23,3 C 73 % 1015,2 hPa 0,0 l/m 6,7 km/h (2 Bft) NO 49 2 min 0,000 mm 1,6 UV-I 384 W/m 18,0 C 23,0 C 9,7 km/h (2 Bft) 95,74 %
31.07.2017 08:50 23,2 C 23,3 C 72 % 1015,2 hPa 0,0 l/m 6,7 km/h (2 Bft) NO 45 2 min 0,000 mm 1,7 UV-I 480 W/m 17,9 C 23,1 C 8,0 km/h (2 Bft) 95,74 %
31.07.2017 08:52 23,3 C 23,3 C 70 % 1015,2 hPa 0,0 l/m 7,7 km/h (2 Bft) NO 45 2 min 0,000 mm 1,7 UV-I 485 W/m 17,5 C 22,9 C 9,7 km/h (2 Bft) 97,87 %
31.07.2017 08:54 23,4 C 23,3 C 71 % 1015,2 hPa 0,0 l/m 5,6 km/h (1 Bft) NO 42 2 min 0,000 mm 1,8 UV-I 491 W/m 17,8 C 23,4 C 9,7 km/h (2 Bft) 91,49 %
31.07.2017 08:56 23,6 C 23,3 C 71 % 1015,2 hPa 0,0 l/m 5,2 km/h (1 Bft) N 5 2 min 0,000 mm 1,8 UV-I 497 W/m 18,0 C 23,6 C 8,0 km/h (2 Bft) 91,49 %
31.07.2017 08:58 23,7 C 23,3 C 70 % 1015,1 hPa 0,0 l/m 5,6 km/h (1 Bft) N 10 2 min 0,000 mm 1,8 UV-I 482 W/m 17,9 C 23,7 C 11,3 km/h (2 Bft) 93,62 %
31.07.2017 09:00 23,8 C 23,3 C 70 % 1015,1 hPa 0,0 l/m 4,8 km/h (1 Bft) O-NO 58 2 min 0,000 mm 1,8 UV-I 483 W/m 18,0 C 23,8 C 9,7 km/h (2 Bft) 91,49 %
31.07.2017 09:02 23,8 C 23,3 C 68 % 1015,1 hPa 0,0 l/m 6,8 km/h (2 Bft) NO 53 2 min 0,280 mm 1,8 UV-I 473 W/m 17,5 C 23,7 C 9,7 km/h (2 Bft) 97,50 %
31.07.2017 09:04 23,7 C 23,3 C 70 % 1015,1 hPa 0,0 l/m 9,2 km/h (2 Bft) NO 52 2 min 0,000 mm 1,9 UV-I 478 W/m 17,9 C 22,9 C 14,5 km/h (3 Bft) 92,00 %
31.07.2017 09:06 23,7 C 23,3 C 70 % 1015,1 hPa 0,0 l/m 8,8 km/h (2 Bft) N-NO 15 2 min 0,000 mm 1,9 UV-I 452 W/m 17,9 C 23,0 C 14,5 km/h (3 Bft) 91,67 %
31.07.2017 09:08 23,7 C 23,3 C 69 % 1015,1 hPa 0,0 l/m 8,9 km/h (2 Bft) NO 56 2 min 0,000 mm 1,9 UV-I 454 W/m 17,7 C 23,0 C 17,7 km/h (3 Bft) 96,72 %
31.07.2017 09:10 23,6 C 23,3 C 68 % 1015,2 hPa 0,0 l/m 8,0 km/h (2 Bft) O-NO 65 2 min 0,000 mm 1,9 UV-I 464 W/m 17,3 C 23,1 C 14,5 km/h (3 Bft) 97,44 %
31.07.2017 09:12 23,6 C 23,9 C 70 % 1015,1 hPa 0,0 l/m 7,3 km/h (2 Bft) O-NO 66 2 min 0,000 mm 2,0 UV-I 489 W/m 17,8 C 23,3 C 9,7 km/h (2 Bft) 98,00 %
31.07.2017 09:14 23,7 C 23,9 C 71 % 1015,1 hPa 0,0 l/m 6,0 km/h (2 Bft) N 11 2 min 0,000 mm 2,0 UV-I 472 W/m 18,1 C 23,7 C 14,5 km/h (3 Bft) 95,83 %
31.07.2017 09:16 23,7 C 23,9 C 71 % 1015,2 hPa 0,0 l/m 9,4 km/h (2 Bft) N-NO 18 2 min 0,000 mm 2,1 UV-I 508 W/m 18,1 C 22,9 C 12,9 km/h (3 Bft) 93,62 %
31.07.2017 09:18 23,8 C 23,3 C 71 % 1015,2 hPa 0,0 l/m 1,7 km/h (1 Bft) N 5 2 min 0,000 mm 2,1 UV-I 499 W/m 18,2 C 23,8 C 4,8 km/h (1 Bft) 95,74 %
31.07.2017 09:20 23,8 C 23,3 C 70 % 1015,2 hPa 0,0 l/m 6,7 km/h (2 Bft) N-NW 338 2 min 0,000 mm 2,1 UV-I 444 W/m 18,0 C 23,7 C 9,7 km/h (2 Bft) 93,75 %
31.07.2017 09:22 23,8 C 23,9 C 71 % 1015,2 hPa 0,0 l/m 6,2 km/h (2 Bft) N-NO 15 2 min 0,000 mm 2,2 UV-I 498 W/m 18,2 C 23,8 C 11,3 km/h (2 Bft) 92,68 %
31.07.2017 09:24 23,8 C 23,9 C 70 % 1015,2 hPa 0,0 l/m 6,7 km/h (2 Bft) N-NO 23 2 min 0,000 mm 2,3 UV-I 520 W/m 18,0 C 23,7 C 11,3 km/h (2 Bft) 95,74 %
31.07.2017 09:26 23,8 C 23,9 C 69 % 1015,3 hPa 0,0 l/m 4,5 km/h (1 Bft) NO 49 2 min 0,000 mm 2,4 UV-I 554 W/m 17,8 C 23,8 C 8,0 km/h (2 Bft) 100,00 %
31.07.2017 09:28 23,9 C 23,9 C 70 % 1015,3 hPa 0,0 l/m 3,0 km/h (1 Bft) N 5 2 min 0,000 mm 2,5 UV-I 557 W/m 18,1 C 23,9 C 9,7 km/h (2 Bft) 97,87 %
31.07.2017 09:30 24,0 C 23,9 C 70 % 1015,3 hPa 0,0 l/m 2,2 km/h (1 Bft) N-NW 327 2 min 0,000 mm 2,5 UV-I 575 W/m 18,2 C 24,0 C 6,4 km/h (2 Bft) 97,87 %
31.07.2017 09:32 24,0 C 23,9 C 69 % 1015,3 hPa 0,0 l/m 1,9 km/h (1 Bft) N-NW 327 2 min 0,000 mm 2,5 UV-I 575 W/m 18,0 C 24,0 C 4,8 km/h (1 Bft) 95,74 %
31.07.2017 09:34 24,1 C 23,9 C 69 % 1015,3 hPa 0,0 l/m 1,5 km/h (1 Bft) NW 311 2 min 0,000 mm 2,5 UV-I 546 W/m 18,0 C 24,1 C 3,2 km/h (1 Bft) 97,87 %
31.07.2017 09:36 24,1 C 23,9 C 68 % 1015,3 hPa 0,0 l/m 1,4 km/h (1 Bft) NW 313 2 min 0,000 mm 2,5 UV-I 533 W/m 17,8 C 24,1 C 3,2 km/h (1 Bft) 95,74 %
31.07.2017 09:38 24,2 C 23,9 C 69 % 1015,4 hPa 0,0 l/m 3,2 km/h (1 Bft) NO 39 2 min 0,000 mm 2,6 UV-I 558 W/m 18,1 C 24,2 C 8,0 km/h (2 Bft) 97,87 %
31.07.2017 09:40 24,3 C 23,9 C 70 % 1015,4 hPa 0,0 l/m 4,7 km/h (1 Bft) N-NO 31 2 min 0,000 mm 2,7 UV-I 554 W/m 18,5 C 24,3 C 8,0 km/h (2 Bft) 97,87 %
31.07.2017 09:42 24,3 C 23,9 C 67 % 1015,4 hPa 0,0 l/m 2,8 km/h (1 Bft) N-NO 32 2 min 0,000 mm 2,8 UV-I 594 W/m 17,8 C 24,3 C 6,4 km/h (2 Bft) 95,74 %
31.07.2017 09:44 24,4 C 23,9 C 68 % 1015,3 hPa 0,0 l/m 1,7 km/h (1 Bft) N-NW 345 2 min 0,000 mm 2,8 UV-I 574 W/m 18,1 C 24,4 C 4,8 km/h (1 Bft) 97,87 %
31.07.2017 09:46 24,4 C 23,9 C 70 % 1015,3 hPa 0,0 l/m 1,4 km/h (1 Bft) N-NO 24 2 min 0,000 mm 2,9 UV-I 584 W/m 18,6 C 24,4 C 6,4 km/h (2 Bft) 97,87 %
31.07.2017 09:48 24,6 C 23,9 C 68 % 1015,3 hPa 0,0 l/m 5,0 km/h (1 Bft) NO 42 2 min 0,000 mm 2,9 UV-I 591 W/m 18,3 C 24,6 C 14,5 km/h (3 Bft) 100,00 %
31.07.2017 09:50 24,7 C 23,9 C 70 % 1015,3 hPa 0,0 l/m 7,3 km/h (2 Bft) N 11 2 min 0,000 mm 3,0 UV-I 609 W/m 18,8 C 24,5 C 14,5 km/h (3 Bft) 95,74 %
31.07.2017 09:52 24,6 C 23,9 C 68 % 1015,3 hPa 0,0 l/m 3,3 km/h (1 Bft) N-NO 27 2 min 0,000 mm 3,1 UV-I 614 W/m 18,3 C 24,6 C 8,0 km/h (2 Bft) 97,87 %
31.07.2017 09:54 24,6 C 23,9 C 71 % 1015,4 hPa 0,0 l/m 8,7 km/h (2 Bft) NO 46 2 min 0,000 mm 3,1 UV-I 619 W/m 19,0 C 24,0 C 14,5 km/h (3 Bft) 93,75 %
31.07.2017 09:56 24,7 C 23,9 C 68 % 1015,4 hPa 0,0 l/m 3,3 km/h (1 Bft) N 9 2 min 0,000 mm 3,2 UV-I 629 W/m 18,4 C 24,7 C 9,7 km/h (2 Bft) 97,87 %
31.07.2017 09:58 24,6 C 23,9 C 69 % 1015,5 hPa 0,0 l/m 2,3 km/h (1 Bft) N-NW 330 2 min 0,000 mm 3,2 UV-I 638 W/m 18,5 C 24,6 C 6,4 km/h (2 Bft) 97,87 %
31.07.2017 10:00 24,6 C 23,9 C 70 % 1015,5 hPa 0,0 l/m 2,8 km/h (1 Bft) NW 317 2 min 0,000 mm 3,3 UV-I 645 W/m 18,8 C 24,6 C 4,8 km/h (1 Bft) 89,47 %
31.07.2017 10:02 24,6 C 23,9 C 67 % 1015,4 hPa 0,0 l/m 3,1 km/h (1 Bft) N-NO 17 2 min 0,355 mm 3,3 UV-I 648 W/m 18,1 C 24,6 C 11,3 km/h (2 Bft) 96,08 %
31.07.2017 10:04 24,6 C 23,9 C 69 % 1015,5 hPa 0,0 l/m 5,0 km/h (1 Bft) N 355 2 min 0,000 mm 3,3 UV-I 651 W/m 18,5 C 24,6 C 11,3 km/h (2 Bft) 93,62 %
31.07.2017 10:06 24,5 C 23,9 C 67 % 1015,5 hPa 0,0 l/m 2,7 km/h (1 Bft) N-NO 17 2 min 0,000 mm 3,3 UV-I 630 W/m 18,0 C 24,5 C 8,0 km/h (2 Bft) 93,62 %
31.07.2017 10:08 24,5 C 23,9 C 69 % 1015,5 hPa 0,0 l/m 2,9 km/h (1 Bft) N-NW 330 2 min 0,000 mm 3,4 UV-I 648 W/m 18,4 C 24,5 C 8,0 km/h (2 Bft) 97,87 %
31.07.2017 10:10 24,6 C 23,9 C 68 % 1015,4 hPa 0,0 l/m 2,4 km/h (1 Bft) NO 51 2 min 0,000 mm 3,4 UV-I 622 W/m 18,3 C 24,6 C 4,8 km/h (1 Bft) 95,74 %
31.07.2017 10:12 24,6 C 23,9 C 68 % 1015,5 hPa 0,0 l/m 3,3 km/h (1 Bft) N-NO 21 2 min 0,000 mm 2,6 UV-I 661 W/m 18,3 C 24,6 C 6,4 km/h (2 Bft) 95,74 %
31.07.2017 10:14 24,6 C 23,9 C 67 % 1015,5 hPa 0,0 l/m 5,4 km/h (1 Bft) N-NO 28 2 min 0,000 mm 2,6 UV-I 664 W/m 18,1 C 24,6 C 12,9 km/h (3 Bft) 95,74 %
31.07.2017 10:16 24,6 C 23,9 C 67 % 1015,5 hPa 0,0 l/m 4,8 km/h (1 Bft) O-NO 60 2 min 0,000 mm 2,5 UV-I 670 W/m 18,1 C 24,6 C 9,7 km/h (2 Bft) 96,00 %
31.07.2017 10:18 24,6 C 23,9 C 68 % 1015,5 hPa 0,0 l/m 5,5 km/h (1 Bft) O-NO 58 2 min 0,000 mm 2,0 UV-I 675 W/m 18,3 C 24,6 C 8,0 km/h (2 Bft) 92,00 %
31.07.2017 10:20 24,7 C 23,9 C 68 % 1015,5 hPa 0,0 l/m 3,0 km/h (1 Bft) W-NW 300 2 min 0,000 mm 2,6 UV-I 681 W/m 18,4 C 24,7 C 6,4 km/h (2 Bft) 91,43 %
31.07.2017 10:22 24,8 C 23,9 C 68 % 1015,5 hPa 0,0 l/m 5,6 km/h (1 Bft) O 96 2 min 0,000 mm 3,2 UV-I 685 W/m 18,5 C 24,8 C 12,9 km/h (3 Bft) 96,00 %
31.07.2017 10:24 25,0 C 23,9 C 68 % 1015,6 hPa 0,0 l/m 2,2 km/h (1 Bft) NO 52 2 min 0,000 mm 3,2 UV-I 695 W/m 18,7 C 25,0 C 6,4 km/h (2 Bft) 97,87 %
31.07.2017 10:26 25,1 C 23,9 C 68 % 1015,6 hPa 0,0 l/m 4,4 km/h (1 Bft) NO 46 2 min 0,000 mm 3,6 UV-I 702 W/m 18,8 C 25,1 C 6,4 km/h (2 Bft) 95,74 %
31.07.2017 10:28 25,1 C 23,9 C 65 % 1015,6 hPa 0,0 l/m 1,2 km/h (1 Bft) W-NW 298 2 min 0,000 mm 3,2 UV-I 706 W/m 18,0 C 25,1 C 3,2 km/h (1 Bft) 96,23 %
31.07.2017 10:30 24,9 C 23,9 C 65 % 1015,6 hPa 0,0 l/m 2,2 km/h (1 Bft) NW 315 2 min 0,000 mm 3,8 UV-I 712 W/m 17,9 C 24,9 C 4,8 km/h (1 Bft) 93,62 %
31.07.2017 10:32 25,1 C 23,9 C 66 % 1015,5 hPa 0,0 l/m 1,0 km/h (0 Bft) N 355 2 min 0,000 mm 3,9 UV-I 716 W/m 18,3 C 25,1 C 3,2 km/h (1 Bft) 97,92 %
31.07.2017 10:34 25,1 C 23,9 C 64 % 1015,5 hPa 0,0 l/m 1,0 km/h (0 Bft) N-NW 333 2 min 0,000 mm 3,8 UV-I 718 W/m 17,8 C 25,1 C 3,2 km/h (1 Bft) 97,14 %
31.07.2017 10:36 25,0 C 23,9 C 65 % 1015,5 hPa 0,0 l/m 1,2 km/h (1 Bft) NO 46 2 min 0,000 mm 3,5 UV-I 724 W/m 17,9 C 25,0 C 3,2 km/h (1 Bft) 100,00 %
31.07.2017 10:38 25,1 C 23,9 C 65 % 1015,5 hPa 0,0 l/m 5,0 km/h (1 Bft) NO 38 2 min 0,000 mm 4,3 UV-I 728 W/m 18,0 C 25,1 C 8,0 km/h (2 Bft) 93,62 %
31.07.2017 10:40 25,3 C 23,9 C 64 % 1015,5 hPa 0,0 l/m 4,2 km/h (1 Bft) O-NO 74 2 min 0,000 mm 4,3 UV-I 725 W/m 18,0 C 25,3 C 8,0 km/h (2 Bft) 100,00 %
31.07.2017 10:42 25,4 C 23,9 C 68 % 1015,5 hPa 0,0 l/m 7,8 km/h (2 Bft) N-NO 21 2 min 0,000 mm 3,8 UV-I 730 W/m 19,1 C 25,1 C 12,9 km/h (3 Bft) 100,00 %
31.07.2017 10:44 25,6 C 23,9 C 63 % 1015,5 hPa 0,0 l/m 5,8 km/h (2 Bft) NO 54 2 min 0,000 mm 4,2 UV-I 726 W/m 18,0 C 25,6 C 8,0 km/h (2 Bft) 91,49 %
31.07.2017 10:46 25,4 C 23,9 C 65 % 1015,5 hPa 0,0 l/m 4,7 km/h (1 Bft) O-NO 61 2 min 0,000 mm 4,2 UV-I 746 W/m 18,3 C 25,4 C 6,4 km/h (2 Bft) 97,87 %
31.07.2017 10:48 25,3 C 23,9 C 62 % 1015,5 hPa 0,0 l/m 3,5 km/h (1 Bft) O 100 2 min 0,000 mm 4,5 UV-I 742 W/m 17,5 C 25,3 C 6,4 km/h (2 Bft) 97,87 %
31.07.2017 10:50 25,2 C 23,9 C 63 % 1015,4 hPa 0,0 l/m 1,0 km/h (0 Bft) O-SO 107 2 min 0,000 mm 4,5 UV-I 722 W/m 17,6 C 25,2 C 3,2 km/h (1 Bft) 95,74 %
31.07.2017 10:52 25,3 C 23,9 C 66 % 1015,4 hPa 0,0 l/m 4,8 km/h (1 Bft) N-NO 26 2 min 0,000 mm 4,3 UV-I 700 W/m 18,5 C 25,3 C 11,3 km/h (2 Bft) 98,00 %
31.07.2017 10:54 25,5 C 23,9 C 65 % 1015,4 hPa 0,0 l/m 4,5 km/h (1 Bft) NO 56 2 min 0,000 mm 3,8 UV-I 622 W/m 18,4 C 25,5 C 8,0 km/h (2 Bft) 95,74 %
31.07.2017 10:56 25,6 C 23,9 C 64 % 1015,4 hPa 0,0 l/m 4,6 km/h (1 Bft) NO 48 2 min 0,000 mm 4,7 UV-I 742 W/m 18,3 C 25,6 C 8,0 km/h (2 Bft) 95,74 %
31.07.2017 10:58 25,5 C 23,9 C 62 % 1015,4 hPa 0,0 l/m 0,6 km/h (0 Bft) NO 42 2 min 0,000 mm 4,7 UV-I 754 W/m 17,7 C 25,5 C 4,8 km/h (1 Bft) 97,87 %
31.07.2017 11:00 25,6 C 23,9 C 62 % 1015,3 hPa 0,0 l/m 2,5 km/h (1 Bft) N 9 2 min 0,000 mm 4,8 UV-I 747 W/m 17,8 C 25,6 C 8,0 km/h (2 Bft) 95,74 %
31.07.2017 11:02 25,7 C 23,9 C 61 % 1015,3 hPa 0,0 l/m 3,8 km/h (1 Bft) N-NO 19 2 min 0,457 mm 4,6 UV-I 758 W/m 17,6 C 25,7 C 14,5 km/h (3 Bft) 100,00 %
31.07.2017 11:04 25,8 C 23,9 C 64 % 1015,4 hPa 0,0 l/m 4,0 km/h (1 Bft) NO 42 2 min 0,000 mm 4,8 UV-I 759 W/m 18,5 C 25,8 C 6,4 km/h (2 Bft) 94,00 %
31.07.2017 11:06 25,8 C 23,9 C 64 % 1015,3 hPa 0,0 l/m 2,6 km/h (1 Bft) N-NO 14 2 min 0,000 mm 4,9 UV-I 762 W/m 18,5 C 25,8 C 6,4 km/h (2 Bft) 97,87 %
31.07.2017 11:08 25,9 C 23,9 C 64 % 1015,4 hPa 0,0 l/m 2,6 km/h (1 Bft) N-NW 333 2 min 0,000 mm 4,9 UV-I 765 W/m 18,6 C 25,9 C 6,4 km/h (2 Bft) 100,00 %
31.07.2017 11:10 25,9 C 23,9 C 62 % 1015,3 hPa 0,0 l/m 0,8 km/h (0 Bft) N-NW 332 2 min 0,000 mm 5,0 UV-I 769 W/m 18,0 C 25,9 C 3,2 km/h (1 Bft) 96,00 %
31.07.2017 11:12 26,1 C 23,9 C 65 % 1015,2 hPa 0,0 l/m 1,7 km/h (1 Bft) N-NW 338 2 min 0,000 mm 5,0 UV-I 773 W/m 19,0 C 26,1 C 6,4 km/h (2 Bft) 97,92 %
31.07.2017 11:14 26,2 C 23,9 C 65 % 1015,2 hPa 0,0 l/m 3,6 km/h (1 Bft) N 11 2 min 0,000 mm 5,1 UV-I 776 W/m 19,1 C 26,2 C 11,3 km/h (2 Bft) 100,00 %
31.07.2017 11:16 26,4 C 23,9 C 64 % 1015,3 hPa 0,0 l/m 4,5 km/h (1 Bft) N 11 2 min 0,000 mm 4,6 UV-I 773 W/m 19,0 C 26,4 C 11,3 km/h (2 Bft) 97,87 %
31.07.2017 11:18 26,4 C 23,9 C 61 % 1015,2 hPa 0,0 l/m 5,2 km/h (1 Bft) N-NO 28 2 min 0,000 mm 4,6 UV-I 771 W/m 18,3 C 26,4 C 12,9 km/h (3 Bft) 94,29 %
31.07.2017 11:20 26,4 C 23,9 C 64 % 1015,2 hPa 0,0 l/m 3,8 km/h (1 Bft) N-NW 346 2 min 0,000 mm 5,2 UV-I 787 W/m 19,0 C 26,4 C 6,4 km/h (2 Bft) 94,00 %
31.07.2017 11:22 26,7 C 23,9 C 63 % 1015,2 hPa 0,0 l/m 2,3 km/h (1 Bft) N 9 2 min 0,000 mm 4,8 UV-I 800 W/m 19,1 C 26,7 C 8,0 km/h (2 Bft) 94,00 %
31.07.2017 11:24 26,8 C 23,9 C 60 % 1015,1 hPa 0,0 l/m 4,3 km/h (1 Bft) O-NO 63 2 min 0,000 mm 5,3 UV-I 797 W/m 18,4 C 26,8 C 9,7 km/h (2 Bft) 100,00 %
31.07.2017 11:26 27,0 C 23,9 C 62 % 1015,1 hPa 0,0 l/m 6,9 km/h (2 Bft) NO 34 2 min 0,000 mm 5,2 UV-I 781 W/m 19,1 C 26,9 C 11,3 km/h (2 Bft) 97,87 %
31.07.2017 11:28 26,9 C 23,9 C 60 % 1015,1 hPa 0,0 l/m 5,6 km/h (1 Bft) N-NO 24 2 min 0,000 mm 5,2 UV-I 796 W/m 18,5 C 26,9 C 9,7 km/h (2 Bft) 97,87 %
31.07.2017 11:30 27,1 C 23,9 C 59 % 1015,2 hPa 0,0 l/m 5,3 km/h (1 Bft) N-NO 31 2 min 0,000 mm 5,5 UV-I 826 W/m 18,4 C 27,1 C 9,7 km/h (2 Bft) 93,62 %
31.07.2017 11:32 27,1 C 23,9 C 60 % 1015,3 hPa 0,0 l/m 8,8 km/h (2 Bft) O-NO 68 2 min 0,000 mm 5,6 UV-I 830 W/m 18,6 C 26,7 C 14,5 km/h (3 Bft) 96,23 %
31.07.2017 11:34 26,9 C 23,9 C 59 % 1015,3 hPa 0,0 l/m 5,4 km/h (1 Bft) O-NO 60 2 min 0,000 mm 5,6 UV-I 834 W/m 18,2 C 26,9 C 8,0 km/h (2 Bft) 97,87 %
31.07.2017 11:36 26,9 C 23,9 C 62 % 1015,3 hPa 0,0 l/m 5,0 km/h (1 Bft) O-NO 57 2 min 0,000 mm 5,7 UV-I 823 W/m 19,0 C 26,9 C 9,7 km/h (2 Bft) 91,67 %
31.07.2017 11:38 27,0 C 23,9 C 59 % 1015,2 hPa 0,0 l/m 9,7 km/h (2 Bft) O-SO 113 2 min 0,000 mm 5,5 UV-I 802 W/m 18,3 C 26,4 C 16,1 km/h (3 Bft) 93,62 %
31.07.2017 11:40 27,1 C 23,9 C 60 % 1015,2 hPa 0,0 l/m 6,8 km/h (2 Bft) O 90 2 min 0,000 mm 5,6 UV-I 824 W/m 18,6 C 27,0 C 11,3 km/h (2 Bft) 95,74 %
31.07.2017 11:42 27,2 C 23,9 C 58 % 1015,2 hPa 0,0 l/m 5,6 km/h (1 Bft) O-NO 63 2 min 0,000 mm 5,6 UV-I 817 W/m 18,2 C 27,2 C 8,0 km/h (2 Bft) 93,62 %
31.07.2017 11:44 27,1 C 23,9 C 61 % 1015,2 hPa 0,0 l/m 3,3 km/h (1 Bft) O-NO 66 2 min 0,000 mm 5,8 UV-I 839 W/m 18,9 C 27,1 C 6,4 km/h (2 Bft) 93,62 %
31.07.2017 11:46 26,8 C 23,9 C 57 % 1015,3 hPa 0,0 l/m 1,0 km/h (0 Bft) O-NO 62 2 min 0,000 mm 5,6 UV-I 806 W/m 17,6 C 26,8 C 6,4 km/h (2 Bft) 88,00 %
31.07.2017 11:48 27,0 C 23,9 C 61 % 1015,3 hPa 0,0 l/m 6,4 km/h (2 Bft) O-NO 61 2 min 0,000 mm 5,7 UV-I 812 W/m 18,8 C 27,0 C 9,7 km/h (2 Bft) 98,00 %
31.07.2017 11:50 27,2 C 23,9 C 62 % 1015,3 hPa 0,0 l/m 6,2 km/h (2 Bft) NO 41 2 min 0,000 mm 5,7 UV-I 851 W/m 19,3 C 27,2 C 9,7 km/h (2 Bft) 91,67 %
31.07.2017 11:52 27,3 C 23,9 C 60 % 1015,3 hPa 0,0 l/m 5,4 km/h (1 Bft) N-NO 26 2 min 0,000 mm 6,1 UV-I 892 W/m 18,8 C 27,3 C 9,7 km/h (2 Bft) 97,87 %
31.07.2017 11:54 27,3 C 23,9 C 57 % 1015,3 hPa 0,0 l/m 3,8 km/h (1 Bft) O-NO 64 2 min 0,000 mm 5,8 UV-I 833 W/m 18,0 C 27,3 C 6,4 km/h (2 Bft) 95,74 %
31.07.2017 11:56 27,2 C 23,9 C 59 % 1015,3 hPa 0,0 l/m 6,2 km/h (2 Bft) N-NO 25 2 min 0,000 mm 5,1 UV-I 674 W/m 18,5 C 27,2 C 11,3 km/h (2 Bft) 93,62 %
31.07.2017 11:58 27,2 C 23,9 C 61 % 1015,3 hPa 0,0 l/m 2,1 km/h (1 Bft) N-NO 25 2 min 0,000 mm 5,6 UV-I 719 W/m 19,0 C 27,2 C 4,8 km/h (1 Bft) 93,62 %
31.07.2017 12:00 27,1 C 23,9 C 56 % 1015,3 hPa 0,0 l/m 1,2 km/h (1 Bft) O 93 2 min 0,000 mm 5,8 UV-I 829 W/m 17,5 C 27,1 C 3,2 km/h (1 Bft) 95,74 %
31.07.2017 12:02 27,2 C 23,9 C 59 % 1015,3 hPa 0,0 l/m 4,4 km/h (1 Bft) N-NO 24 2 min 0,534 mm 5,5 UV-I 755 W/m 18,5 C 27,2 C 8,0 km/h (2 Bft) 94,74 %
31.07.2017 12:04 27,3 C 23,9 C 59 % 1015,3 hPa 0,0 l/m 7,8 km/h (2 Bft) NO 34 2 min 0,000 mm 5,3 UV-I 735 W/m 18,6 C 27,0 C 12,9 km/h (3 Bft) 92,00 %
31.07.2017 12:06 27,3 C 24,4 C 57 % 1015,3 hPa 0,0 l/m 1,9 km/h (1 Bft) N 11 2 min 0,000 mm 5,2 UV-I 714 W/m 18,0 C 27,3 C 6,4 km/h (2 Bft) 91,49 %
31.07.2017 12:08 27,4 C 24,4 C 55 % 1015,3 hPa 0,0 l/m 1,2 km/h (1 Bft) W-NW 299 2 min 0,000 mm 5,4 UV-I 744 W/m 17,5 C 27,4 C 3,2 km/h (1 Bft) 93,62 %
31.07.2017 12:10 27,4 C 24,4 C 61 % 1015,3 hPa 0,0 l/m 3,5 km/h (1 Bft) N-NO 18 2 min 0,000 mm 6,0 UV-I 796 W/m 19,2 C 27,4 C 8,0 km/h (2 Bft) 89,36 %
31.07.2017 12:12 27,6 C 24,4 C 61 % 1015,3 hPa 0,0 l/m 4,8 km/h (1 Bft) NO 38 2 min 0,000 mm 5,8 UV-I 808 W/m 19,4 C 27,6 C 8,0 km/h (2 Bft) 93,62 %
31.07.2017 12:14 27,7 C 24,4 C 58 % 1015,3 hPa 0,0 l/m 4,5 km/h (1 Bft) N-NW 333 2 min 0,000 mm 5,7 UV-I 807 W/m 18,7 C 27,7 C 8,0 km/h (2 Bft) 96,00 %
31.07.2017 12:16 27,8 C 24,4 C 56 % 1015,4 hPa 0,0 l/m 2,1 km/h (1 Bft) N-NW 327 2 min 0,000 mm 6,0 UV-I 824 W/m 18,2 C 27,8 C 4,8 km/h (1 Bft) 95,74 %
31.07.2017 12:18 27,7 C 24,4 C 57 % 1015,3 hPa 0,0 l/m 1,3 km/h (1 Bft) N-NW 340 2 min 0,000 mm 6,1 UV-I 845 W/m 18,4 C 27,7 C 3,2 km/h (1 Bft) 95,74 %
31.07.2017 12:20 27,7 C 24,4 C 55 % 1015,3 hPa 0,0 l/m 1,0 km/h (0 Bft) N-NO 26 2 min 0,000 mm 6,0 UV-I 813 W/m 17,8 C 27,7 C 4,8 km/h (1 Bft) 95,74 %
31.07.2017 12:22 27,7 C 24,4 C 55 % 1015,3 hPa 0,0 l/m 3,4 km/h (1 Bft) NO 34 2 min 0,000 mm 6,0 UV-I 813 W/m 17,8 C 27,7 C 6,4 km/h (2 Bft) 95,74 %
31.07.2017 12:24 27,7 C 24,4 C 54 % 1015,3 hPa 0,0 l/m 2,1 km/h (1 Bft) NO 34 2 min 0,000 mm 6,3 UV-I 838 W/m 17,5 C 27,7 C 4,8 km/h (1 Bft) 97,87 %
31.07.2017 12:26 27,9 C 24,4 C 58 % 1015,2 hPa 0,0 l/m 6,6 km/h (2 Bft) NO 42 2 min 0,000 mm 6,3 UV-I 874 W/m 18,9 C 27,9 C 11,3 km/h (2 Bft) 97,22 %
31.07.2017 12:28 28,2 C 24,4 C 57 % 1015,2 hPa 0,0 l/m 3,9 km/h (1 Bft) N-NW 348 2 min 0,000 mm 6,3 UV-I 859 W/m 18,9 C 28,2 C 8,0 km/h (2 Bft) 94,23 %
31.07.2017 12:30 28,2 C 24,4 C 57 % 1015,2 hPa 0,0 l/m 7,1 km/h (2 Bft) N-NO 28 2 min 0,000 mm 6,3 UV-I 859 W/m 18,9 C 28,1 C 14,5 km/h (3 Bft) 93,62 %
31.07.2017 12:32 28,1 C 24,4 C 56 % 1015,2 hPa 0,0 l/m 5,8 km/h (2 Bft) N 360 2 min 0,000 mm 6,3 UV-I 851 W/m 18,5 C 28,1 C 12,9 km/h (3 Bft) 97,87 %
31.07.2017 12:34 28,1 C 24,4 C 55 % 1015,2 hPa 0,0 l/m 1,7 km/h (1 Bft) NW 305 2 min 0,000 mm 6,2 UV-I 836 W/m 18,2 C 28,1 C 4,8 km/h (1 Bft) 94,00 %
31.07.2017 12:36 27,9 C 24,4 C 57 % 1015,2 hPa 0,0 l/m 2,3 km/h (1 Bft) N-NW 334 2 min 0,000 mm 6,2 UV-I 721 W/m 18,6 C 27,9 C 6,4 km/h (2 Bft) 95,74 %
31.07.2017 12:38 27,9 C 24,4 C 54 % 1015,2 hPa 0,0 l/m 2,1 km/h (1 Bft) NW 311 2 min 0,000 mm 6,2 UV-I 852 W/m 17,7 C 27,9 C 3,2 km/h (1 Bft) 96,00 %
31.07.2017 12:40 27,8 C 24,4 C 53 % 1015,2 hPa 0,0 l/m 1,8 km/h (1 Bft) N 11 2 min 0,000 mm 6,4 UV-I 861 W/m 17,3 C 27,8 C 4,8 km/h (1 Bft) 91,49 %
31.07.2017 12:42 28,1 C 24,4 C 56 % 1015,2 hPa 0,0 l/m 6,7 km/h (2 Bft) NO 36 2 min 0,000 mm 6,4 UV-I 859 W/m 18,5 C 28,1 C 14,5 km/h (3 Bft) 86,84 %
31.07.2017 12:44 28,1 C 24,4 C 54 % 1015,1 hPa 0,0 l/m 2,2 km/h (1 Bft) N-NO 22 2 min 0,000 mm 6,3 UV-I 852 W/m 17,9 C 28,1 C 8,0 km/h (2 Bft) 93,62 %
31.07.2017 12:46 28,2 C 24,4 C 58 % 1015,1 hPa 0,0 l/m 2,5 km/h (1 Bft) NO 36 2 min 0,000 mm 6,4 UV-I 859 W/m 19,1 C 28,2 C 6,4 km/h (2 Bft) 97,96 %
31.07.2017 12:48 28,3 C 24,4 C 56 % 1015,2 hPa 0,0 l/m 7,5 km/h (2 Bft) N-NO 24 2 min 0,000 mm 6,4 UV-I 861 W/m 18,7 C 28,1 C 12,9 km/h (3 Bft) 95,74 %
31.07.2017 12:50 28,4 C 24,4 C 56 % 1015,1 hPa 0,0 l/m 9,4 km/h (2 Bft) N-NO 23 2 min 0,000 mm 6,5 UV-I 865 W/m 18,8 C 28,0 C 17,7 km/h (3 Bft) 97,87 %
31.07.2017 12:52 28,6 C 24,4 C 58 % 1015,1 hPa 0,0 l/m 8,3 km/h (2 Bft) N-NW 336 2 min 0,000 mm 6,5 UV-I 852 W/m 19,5 C 28,3 C 17,7 km/h (3 Bft) 97,87 %
31.07.2017 12:54 28,7 C 24,4 C 56 % 1015,1 hPa 0,0 l/m 5,8 km/h (2 Bft) N-NO 15 2 min 0,000 mm 6,5 UV-I 868 W/m 19,0 C 28,7 C 12,9 km/h (3 Bft) 100,00 %
31.07.2017 12:56 28,7 C 24,4 C 56 % 1015,1 hPa 0,0 l/m 2,6 km/h (1 Bft) NW 308 2 min 0,000 mm 6,4 UV-I 833 W/m 19,0 C 28,7 C 8,0 km/h (2 Bft) 97,87 %
31.07.2017 12:58 28,8 C 24,4 C 56 % 1015,1 hPa 0,0 l/m 2,8 km/h (1 Bft) N 5 2 min 0,000 mm 6,4 UV-I 866 W/m 19,1 C 28,8 C 12,9 km/h (3 Bft) 97,87 %
31.07.2017 13:00 28,8 C 24,4 C 54 % 1015,2 hPa 0,0 l/m 2,6 km/h (1 Bft) N-NW 333 2 min 0,559 mm 6,4 UV-I 872 W/m 18,5 C 28,8 C 9,7 km/h (2 Bft) 96,00 %
31.07.2017 13:02 28,6 C 24,4 C 56 % 1015,1 hPa 0,0 l/m 2,1 km/h (1 Bft) N-NO 14 2 min 0,000 mm 6,5 UV-I 865 W/m 18,9 C 28,6 C 4,8 km/h (1 Bft) 100,00 %
31.07.2017 13:04 28,5 C 24,4 C 58 % 1015,0 hPa 0,0 l/m 4,0 km/h (1 Bft) N-NO 28 2 min 0,000 mm 6,3 UV-I 833 W/m 19,4 C 28,5 C 12,9 km/h (3 Bft) 95,74 %
31.07.2017 13:06 28,8 C 24,4 C 55 % 1015,1 hPa 0,0 l/m 2,4 km/h (1 Bft) NW 320 2 min 0,000 mm 6,4 UV-I 861 W/m 18,8 C 28,8 C 9,7 km/h (2 Bft) 100,00 %
31.07.2017 13:08 28,9 C 24,4 C 56 % 1015,0 hPa 0,0 l/m 7,7 km/h (2 Bft) N-NO 28 2 min 0,000 mm 6,4 UV-I 860 W/m 19,2 C 28,7 C 16,1 km/h (3 Bft) 97,87 %
31.07.2017 13:10 28,9 C 25,0 C 57 % 1015,0 hPa 0,0 l/m 6,0 km/h (2 Bft) N-NO 24 2 min 0,000 mm 6,4 UV-I 860 W/m 19,5 C 28,9 C 14,5 km/h (3 Bft) 100,00 %
31.07.2017 13:12 29,1 C 25,0 C 56 % 1015,0 hPa 0,0 l/m 6,4 km/h (2 Bft) N 11 2 min 0,000 mm 6,4 UV-I 852 W/m 19,4 C 29,1 C 14,5 km/h (3 Bft) 97,87 %
31.07.2017 13:14 29,2 C 25,0 C 56 % 1014,9 hPa 0,0 l/m 10,1 km/h (2 Bft) NO 43 2 min 0,000 mm 6,4 UV-I 846 W/m 19,5 C 28,8 C 12,9 km/h (3 Bft) 97,96 %
31.07.2017 13:16 29,3 C 25,0 C 53 % 1014,9 hPa 0,0 l/m 5,5 km/h (1 Bft) N-NO 20 2 min 0,000 mm 6,4 UV-I 848 W/m 18,7 C 29,3 C 11,3 km/h (2 Bft) 100,00 %
31.07.2017 13:18 29,3 C 25,0 C 50 % 1015,0 hPa 0,0 l/m 5,9 km/h (2 Bft) N-NO 29 2 min 0,000 mm 6,4 UV-I 849 W/m 17,8 C 29,3 C 17,7 km/h (3 Bft) 97,87 %
31.07.2017 13:20 29,2 C 25,0 C 50 % 1015,0 hPa 0,0 l/m 4,2 km/h (1 Bft) N-NO 30 2 min 0,000 mm 6,3 UV-I 853 W/m 17,7 C 29,2 C 14,5 km/h (3 Bft) 100,00 %
31.07.2017 13:22 29,2 C 25,0 C 49 % 1015,0 hPa 0,0 l/m 5,5 km/h (1 Bft) N 5 2 min 0,000 mm 6,4 UV-I 854 W/m 17,4 C 29,2 C 14,5 km/h (3 Bft) 94,74 %
31.07.2017 13:24 29,1 C 25,0 C 52 % 1015,0 hPa 0,0 l/m 1,5 km/h (1 Bft) W 280 2 min 0,000 mm 6,4 UV-I 852 W/m 18,2 C 29,1 C 4,8 km/h (1 Bft) 100,00 %
31.07.2017 13:26 29,1 C 25,0 C 52 % 1015,0 hPa 0,0 l/m 4,3 km/h (1 Bft) NO 47 2 min 0,000 mm 6,4 UV-I 852 W/m 18,2 C 29,1 C 17,7 km/h (3 Bft) 95,74 %
31.07.2017 13:28 29,2 C 25,0 C 51 % 1015,0 hPa 0,0 l/m 9,8 km/h (2 Bft) O-NO 72 2 min 0,000 mm 6,4 UV-I 852 W/m 18,0 C 28,8 C 14,5 km/h (3 Bft) 95,74 %
31.07.2017 13:30 29,3 C 25,0 C 54 % 1014,9 hPa 0,0 l/m 12,4 km/h (3 Bft) O-NO 72 2 min 0,000 mm 6,4 UV-I 851 W/m 19,0 C 28,7 C 17,7 km/h (3 Bft) 97,87 %
31.07.2017 13:32 29,3 C 25,0 C 52 % 1015,0 hPa 0,0 l/m 5,0 km/h (1 Bft) N-NO 19 2 min 0,000 mm 6,3 UV-I 850 W/m 18,4 C 29,3 C 8,0 km/h (2 Bft) 93,62 %
31.07.2017 13:34 29,3 C 25,0 C 52 % 1014,9 hPa 0,0 l/m 8,2 km/h (2 Bft) NO 34 2 min 0,000 mm 6,3 UV-I 846 W/m 18,4 C 29,1 C 14,5 km/h (3 Bft) 95,74 %
31.07.2017 13:36 29,3 C 25,0 C 53 % 1014,9 hPa 0,0 l/m 6,4 km/h (2 Bft) NW 318 2 min 0,000 mm 6,3 UV-I 846 W/m 18,7 C 29,3 C 14,5 km/h (3 Bft) 97,87 %
31.07.2017 13:38 29,3 C 25,0 C 50 % 1014,9 hPa 0,0 l/m 4,4 km/h (1 Bft) N-NO 27 2 min 0,000 mm 6,3 UV-I 843 W/m 17,8 C 29,3 C 9,7 km/h (2 Bft) 95,74 %
31.07.2017 13:40 29,3 C 25,0 C 52 % 1014,9 hPa 0,0 l/m 9,0 km/h (2 Bft) O-NO 74 2 min 0,000 mm 6,3 UV-I 844 W/m 18,4 C 29,0 C 14,5 km/h (3 Bft) 93,62 %
31.07.2017 13:42 29,3 C 25,0 C 52 % 1014,9 hPa 0,0 l/m 7,3 km/h (2 Bft) NO 44 2 min 0,000 mm 6,3 UV-I 805 W/m 18,4 C 29,2 C 12,9 km/h (3 Bft) 93,62 %
31.07.2017 13:44 29,2 C 25,0 C 50 % 1014,8 hPa 0,0 l/m 6,6 km/h (2 Bft) O 80 2 min 0,000 mm 6,3 UV-I 844 W/m 17,7 C 29,2 C 12,9 km/h (3 Bft) 96,23 %
31.07.2017 13:46 29,3 C 25,0 C 51 % 1014,8 hPa 0,0 l/m 6,9 km/h (2 Bft) NO 40 2 min 0,000 mm 6,2 UV-I 843 W/m 18,1 C 29,2 C 9,7 km/h (2 Bft) 96,00 %
31.07.2017 13:48 29,3 C 25,0 C 52 % 1014,8 hPa 0,0 l/m 6,4 km/h (2 Bft) O-NO 63 2 min 0,000 mm 6,1 UV-I 842 W/m 18,4 C 29,3 C 14,5 km/h (3 Bft) 94,87 %
31.07.2017 13:50 29,5 C 25,0 C 53 % 1014,7 hPa 0,0 l/m 8,1 km/h (2 Bft) NO 50 2 min 0,000 mm 6,2 UV-I 842 W/m 18,9 C 29,3 C 14,5 km/h (3 Bft) 93,62 %
31.07.2017 13:52 29,7 C 25,0 C 49 % 1014,6 hPa 0,0 l/m 11,4 km/h (2 Bft) O-NO 59 2 min 0,000 mm 6,2 UV-I 841 W/m 17,8 C 29,2 C 17,7 km/h (3 Bft) 96,00 %
31.07.2017 13:54 29,7 C 25,0 C 49 % 1014,7 hPa 0,0 l/m 11,3 km/h (2 Bft) NO 49 2 min 0,000 mm 6,2 UV-I 826 W/m 17,8 C 29,3 C 17,7 km/h (3 Bft) 95,74 %
31.07.2017 13:56 29,4 C 25,0 C 47 % 1014,7 hPa 0,0 l/m 11,1 km/h (2 Bft) O 98 2 min 0,000 mm 6,1 UV-I 833 W/m 16,9 C 28,9 C 16,1 km/h (3 Bft) 98,00 %
31.07.2017 13:58 29,3 C 25,0 C 50 % 1014,6 hPa 0,0 l/m 5,5 km/h (1 Bft) NO 46 2 min 0,000 mm 6,1 UV-I 834 W/m 17,8 C 29,3 C 9,7 km/h (2 Bft) 97,87 %
31.07.2017 14:00 29,3 C 25,0 C 51 % 1014,6 hPa 0,0 l/m 10,0 km/h (2 Bft) NO 46 2 min 0,000 mm 6,1 UV-I 835 W/m 18,1 C 28,9 C 16,1 km/h (3 Bft) 97,87 %
31.07.2017 14:02 29,4 C 25,0 C 49 % 1014,7 hPa 0,0 l/m 12,3 km/h (3 Bft) O 79 2 min 0,609 mm 6,1 UV-I 830 W/m 17,5 C 28,8 C 16,1 km/h (3 Bft) 97,87 %
31.07.2017 14:04 29,5 C 25,0 C 49 % 1014,7 hPa 0,0 l/m 7,1 km/h (2 Bft) NO 55 2 min 0,000 mm 6,1 UV-I 832 W/m 17,6 C 29,4 C 12,9 km/h (3 Bft) 93,62 %
31.07.2017 14:06 29,6 C 25,0 C 48 % 1014,6 hPa 0,0 l/m 6,0 km/h (2 Bft) NO 44 2 min 0,000 mm 6,0 UV-I 831 W/m 17,4 C 29,6 C 9,7 km/h (2 Bft) 95,74 %
31.07.2017 14:08 29,6 C 25,0 C 49 % 1014,6 hPa 0,0 l/m 9,9 km/h (2 Bft) O 96 2 min 0,000 mm 6,0 UV-I 829 W/m 17,7 C 29,3 C 14,5 km/h (3 Bft) 97,87 %
31.07.2017 14:10 29,6 C 25,0 C 49 % 1014,6 hPa 0,0 l/m 8,2 km/h (2 Bft) O-NO 62 2 min 0,000 mm 5,9 UV-I 821 W/m 17,7 C 29,4 C 12,9 km/h (3 Bft) 100,00 %
31.07.2017 14:12 29,6 C 25,0 C 48 % 1014,7 hPa 0,0 l/m 6,8 km/h (2 Bft) NO 38 2 min 0,000 mm 5,9 UV-I 822 W/m 17,4 C 29,6 C 9,7 km/h (2 Bft) 97,87 %
31.07.2017 14:14 29,6 C 25,0 C 45 % 1014,7 hPa 0,0 l/m 9,8 km/h (2 Bft) O-NO 63 2 min 0,000 mm 5,9 UV-I 823 W/m 16,4 C 29,3 C 16,1 km/h (3 Bft) 97,37 %
31.07.2017 14:16 29,6 C 25,0 C 48 % 1014,7 hPa 0,0 l/m 7,0 km/h (2 Bft) N-NO 23 2 min 0,000 mm 5,9 UV-I 821 W/m 17,4 C 29,5 C 14,5 km/h (3 Bft) 97,87 %
31.07.2017 14:18 29,7 C 25,0 C 48 % 1014,6 hPa 0,0 l/m 10,7 km/h (2 Bft) N-NO 32 2 min 0,000 mm 5,9 UV-I 818 W/m 17,5 C 29,3 C 16,1 km/h (3 Bft) 96,00 %
31.07.2017 14:20 29,8 C 25,0 C 44 % 1014,6 hPa 0,0 l/m 7,7 km/h (2 Bft) NO 55 2 min 0,000 mm 5,8 UV-I 816 W/m 16,2 C 29,7 C 12,9 km/h (3 Bft) 96,00 %
31.07.2017 14:22 29,8 C 25,0 C 46 % 1014,6 hPa 0,0 l/m 3,9 km/h (1 Bft) O 92 2 min 0,000 mm 5,8 UV-I 814 W/m 16,9 C 29,8 C 11,3 km/h (2 Bft) 97,87 %
31.07.2017 14:24 29,9 C 25,0 C 47 % 1014,6 hPa 0,0 l/m 6,1 km/h (2 Bft) O-NO 69 2 min 0,000 mm 5,8 UV-I 814 W/m 17,3 C 29,9 C 9,7 km/h (2 Bft) 97,87 %
31.07.2017 14:26 30,0 C 25,0 C 48 % 1014,5 hPa 0,0 l/m 6,5 km/h (2 Bft) N-NO 32 2 min 0,000 mm 5,8 UV-I 805 W/m 17,8 C 30,0 C 11,3 km/h (2 Bft) 97,87 %
31.07.2017 14:28 30,2 C 25,0 C 46 % 1014,6 hPa 0,0 l/m 10,6 km/h (2 Bft) NO 45 2 min 0,000 mm 5,6 UV-I 806 W/m 17,3 C 29,9 C 16,1 km/h (3 Bft) 100,00 %
31.07.2017 14:30 30,2 C 25,0 C 46 % 1014,5 hPa 0,0 l/m 8,6 km/h (2 Bft) NO 49 2 min 0,000 mm 5,7 UV-I 804 W/m 17,3 C 30,0 C 14,5 km/h (3 Bft) 97,87 %
31.07.2017 14:32 30,3 C 25,0 C 48 % 1014,5 hPa 0,0 l/m 9,9 km/h (2 Bft) N 11 2 min 0,000 mm 5,6 UV-I 800 W/m 18,0 C 30,0 C 17,7 km/h (3 Bft) 98,00 %
31.07.2017 14:34 30,3 C 25,0 C 45 % 1014,5 hPa 0,0 l/m 5,7 km/h (1 Bft) N-NO 22 2 min 0,000 mm 5,6 UV-I 799 W/m 17,0 C 30,3 C 9,7 km/h (2 Bft) 97,87 %
31.07.2017 14:36 30,2 C 25,0 C 47 % 1014,6 hPa 0,0 l/m 8,6 km/h (2 Bft) NO 37 2 min 0,000 mm 5,6 UV-I 796 W/m 17,6 C 30,0 C 14,5 km/h (3 Bft) 95,74 %
31.07.2017 14:38 30,3 C 25,0 C 44 % 1014,6 hPa 0,0 l/m 10,2 km/h (2 Bft) O-NO 69 2 min 0,000 mm 5,5 UV-I 793 W/m 16,7 C 30,0 C 14,5 km/h (3 Bft) 97,87 %
31.07.2017 14:40 30,2 C 25,0 C 44 % 1014,6 hPa 0,0 l/m 7,0 km/h (2 Bft) NO 54 2 min 0,000 mm 5,5 UV-I 790 W/m 16,6 C 30,1 C 9,7 km/h (2 Bft) 97,87 %
31.07.2017 14:42 30,2 C 25,0 C 42 % 1014,5 hPa 0,0 l/m 6,2 km/h (2 Bft) O-NO 57 2 min 0,000 mm 5,5 UV-I 788 W/m 15,8 C 30,2 C 9,7 km/h (2 Bft) 100,00 %
31.07.2017 14:44 30,2 C 25,0 C 42 % 1014,6 hPa 0,0 l/m 5,6 km/h (1 Bft) NO 47 2 min 0,000 mm 5,4 UV-I 784 W/m 15,8 C 30,2 C 9,7 km/h (2 Bft) 91,49 %
31.07.2017 14:46 30,2 C 25,0 C 46 % 1014,5 hPa 0,0 l/m 6,6 km/h (2 Bft) NO 49 2 min 0,000 mm 5,4 UV-I 780 W/m 17,3 C 30,2 C 14,5 km/h (3 Bft) 100,00 %
31.07.2017 14:48 30,5 C 25,0 C 47 % 1014,6 hPa 0,0 l/m 11,4 km/h (2 Bft) O 81 2 min 0,000 mm 5,3 UV-I 780 W/m 17,9 C 30,2 C 16,1 km/h (3 Bft) 100,00 %
31.07.2017 14:50 30,4 C 25,0 C 46 % 1014,5 hPa 0,0 l/m 8,9 km/h (2 Bft) NO 47 2 min 0,000 mm 5,3 UV-I 775 W/m 17,5 C 30,2 C 14,5 km/h (3 Bft) 100,00 %
31.07.2017 14:52 30,4 C 25,6 C 46 % 1014,6 hPa 0,0 l/m 7,1 km/h (2 Bft) O-SO 106 2 min 0,000 mm 5,3 UV-I 772 W/m 17,5 C 30,3 C 12,9 km/h (3 Bft) 95,74 %
31.07.2017 14:54 30,4 C 25,6 C 44 % 1014,5 hPa 0,0 l/m 5,8 km/h (2 Bft) N-NO 18 2 min 0,000 mm 5,2 UV-I 769 W/m 16,7 C 30,4 C 11,3 km/h (2 Bft) 91,49 %
31.07.2017 14:56 30,4 C 25,6 C 46 % 1014,5 hPa 0,0 l/m 7,7 km/h (2 Bft) NO 47 2 min 0,000 mm 5,2 UV-I 766 W/m 17,5 C 30,3 C 14,5 km/h (3 Bft) 93,62 %
31.07.2017 14:58 30,6 C 25,6 C 48 % 1014,4 hPa 0,0 l/m 6,0 km/h (2 Bft) NO 52 2 min 0,000 mm 5,1 UV-I 765 W/m 18,3 C 30,6 C 11,3 km/h (2 Bft) 95,74 %
31.07.2017 15:00 30,7 C 25,6 C 44 % 1014,4 hPa 0,0 l/m 5,1 km/h (1 Bft) N-NO 26 2 min 0,000 mm 5,1 UV-I 761 W/m 17,0 C 30,7 C 12,9 km/h (3 Bft) 97,87 %
31.07.2017 15:02 30,7 C 25,6 C 48 % 1014,4 hPa 0,0 l/m 7,3 km/h (2 Bft) N-NO 29 2 min 0,584 mm 5,0 UV-I 756 W/m 18,4 C 30,6 C 12,9 km/h (3 Bft) 97,87 %
31.07.2017 15:04 30,6 C 25,6 C 45 % 1014,4 hPa 0,0 l/m 9,3 km/h (2 Bft) N 5 2 min 0,000 mm 5,0 UV-I 752 W/m 17,3 C 30,4 C 14,5 km/h (3 Bft) 93,62 %
31.07.2017 15:06 30,7 C 25,6 C 45 % 1014,4 hPa 0,0 l/m 6,7 km/h (2 Bft) O-NO 69 2 min 0,000 mm 4,9 UV-I 750 W/m 17,4 C 30,7 C 14,5 km/h (3 Bft) 94,74 %
31.07.2017 15:08 30,7 C 25,6 C 46 % 1014,4 hPa 0,0 l/m 8,6 km/h (2 Bft) NO 44 2 min 0,000 mm 4,9 UV-I 745 W/m 17,7 C 30,5 C 14,5 km/h (3 Bft) 93,62 %
31.07.2017 15:10 30,8 C 25,6 C 48 % 1014,4 hPa 0,0 l/m 6,7 km/h (2 Bft) O 90 2 min 0,000 mm 4,9 UV-I 744 W/m 18,5 C 30,8 C 9,7 km/h (2 Bft) 95,74 %
31.07.2017 15:12 30,7 C 25,6 C 46 % 1014,4 hPa 0,0 l/m 7,1 km/h (2 Bft) NO 44 2 min 0,000 mm 4,8 UV-I 741 W/m 17,7 C 30,6 C 9,7 km/h (2 Bft) 95,74 %
31.07.2017 15:14 30,7 C 25,6 C 48 % 1014,3 hPa 0,0 l/m 5,9 km/h (2 Bft) NO 50 2 min 0,000 mm 4,8 UV-I 738 W/m 18,4 C 30,7 C 11,3 km/h (2 Bft) 95,74 %
31.07.2017 15:16 30,9 C 25,6 C 48 % 1014,4 hPa 0,0 l/m 9,7 km/h (2 Bft) O 89 2 min 0,000 mm 4,7 UV-I 733 W/m 18,6 C 30,7 C 14,5 km/h (3 Bft) 95,74 %
31.07.2017 15:18 31,0 C 25,6 C 45 % 1014,4 hPa 0,0 l/m 12,4 km/h (3 Bft) O-SO 105 2 min 0,000 mm 4,7 UV-I 725 W/m 17,6 C 30,7 C 17,7 km/h (3 Bft) 95,74 %
31.07.2017 15:20 30,9 C 25,6 C 46 % 1014,4 hPa 0,0 l/m 8,9 km/h (2 Bft) NO 40 2 min 0,000 mm 4,6 UV-I 723 W/m 17,9 C 30,7 C 12,9 km/h (3 Bft) 93,62 %
31.07.2017 15:22 30,9 C 25,6 C 49 % 1014,3 hPa 0,0 l/m 8,0 km/h (2 Bft) O-NO 75 2 min 0,000 mm 4,6 UV-I 721 W/m 18,9 C 30,8 C 12,9 km/h (3 Bft) 89,36 %
31.07.2017 15:24 31,0 C 25,6 C 48 % 1014,3 hPa 0,0 l/m 9,5 km/h (2 Bft) N-NO 17 2 min 0,000 mm 4,6 UV-I 718 W/m 18,7 C 30,8 C 16,1 km/h (3 Bft) 93,62 %
31.07.2017 15:26 30,9 C 25,6 C 47 % 1014,3 hPa 0,0 l/m 7,7 km/h (2 Bft) N-NO 17 2 min 0,000 mm 4,5 UV-I 715 W/m 18,2 C 30,8 C 12,9 km/h (3 Bft) 94,00 %
31.07.2017 15:28 30,9 C 25,6 C 48 % 1014,3 hPa 0,0 l/m 7,9 km/h (2 Bft) NO 49 2 min 0,000 mm 4,5 UV-I 712 W/m 18,6 C 30,8 C 14,5 km/h (3 Bft) 87,23 %
31.07.2017 15:30 30,8 C 25,6 C 46 % 1014,3 hPa 0,0 l/m 3,8 km/h (1 Bft) N-NW 335 2 min 0,000 mm 4,4 UV-I 709 W/m 17,8 C 30,8 C 6,4 km/h (2 Bft) 91,49 %
31.07.2017 15:32 30,9 C 25,6 C 49 % 1014,3 hPa 0,0 l/m 7,1 km/h (2 Bft) N-NW 342 2 min 0,000 mm 4,3 UV-I 703 W/m 18,9 C 30,9 C 14,5 km/h (3 Bft) 95,74 %
31.07.2017 15:34 31,1 C 25,6 C 46 % 1014,3 hPa 0,0 l/m 10,1 km/h (2 Bft) O-NO 76 2 min 0,000 mm 4,3 UV-I 700 W/m 18,1 C 30,9 C 16,1 km/h (3 Bft) 93,62 %
31.07.2017 15:36 31,1 C 25,6 C 44 % 1014,3 hPa 0,0 l/m 13,9 km/h (3 Bft) N-NO 31 2 min 0,000 mm 4,3 UV-I 700 W/m 17,4 C 30,7 C 19,3 km/h (3 Bft) 94,00 %
31.07.2017 15:38 31,1 C 25,6 C 46 % 1014,3 hPa 0,0 l/m 9,3 km/h (2 Bft) NO 55 2 min 0,000 mm 4,2 UV-I 697 W/m 18,1 C 30,9 C 14,5 km/h (3 Bft) 95,74 %
31.07.2017 15:40 31,1 C 25,6 C 44 % 1014,3 hPa 0,0 l/m 7,0 km/h (2 Bft) N-NO 15 2 min 0,000 mm 4,2 UV-I 693 W/m 17,4 C 31,1 C 14,5 km/h (3 Bft) 93,62 %
31.07.2017 15:42 31,2 C 25,6 C 45 % 1014,2 hPa 0,0 l/m 8,5 km/h (2 Bft) N 351 2 min 0,000 mm 4,1 UV-I 690 W/m 17,8 C 31,1 C 17,7 km/h (3 Bft) 94,59 %
31.07.2017 15:44 31,3 C 25,6 C 42 % 1014,2 hPa 0,0 l/m 5,8 km/h (2 Bft) N-NO 30 2 min 0,000 mm 4,1 UV-I 683 W/m 16,8 C 31,3 C 14,5 km/h (3 Bft) 93,62 %
31.07.2017 15:46 31,2 C 25,6 C 44 % 1014,2 hPa 0,0 l/m 6,8 km/h (2 Bft) N 355 2 min 0,000 mm 4,0 UV-I 679 W/m 17,5 C 31,2 C 14,5 km/h (3 Bft) 95,74 %
31.07.2017 15:48 31,3 C 25,6 C 42 % 1014,2 hPa 0,0 l/m 5,9 km/h (2 Bft) NO 43 2 min 0,000 mm 4,0 UV-I 674 W/m 16,8 C 31,3 C 11,3 km/h (2 Bft) 97,87 %
31.07.2017 15:50 31,3 C 25,6 C 44 % 1014,2 hPa 0,0 l/m 12,3 km/h (3 Bft) N-NO 28 2 min 0,000 mm 3,9 UV-I 669 W/m 17,6 C 31,0 C 19,3 km/h (3 Bft) 91,49 %
31.07.2017 15:52 31,2 C 25,6 C 43 % 1014,2 hPa 0,0 l/m 8,1 km/h (2 Bft) N-NO 30 2 min 0,000 mm 3,9 UV-I 666 W/m 17,1 C 31,1 C 11,3 km/h (2 Bft) 95,83 %
31.07.2017 15:54 31,1 C 25,6 C 44 % 1014,2 hPa 0,0 l/m 8,6 km/h (2 Bft) NO 42 2 min 0,000 mm 3,8 UV-I 662 W/m 17,4 C 31,0 C 17,7 km/h (3 Bft) 100,00 %
31.07.2017 15:56 31,2 C 25,6 C 49 % 1014,2 hPa 0,0 l/m 8,6 km/h (2 Bft) NO 36 2 min 0,000 mm 3,8 UV-I 656 W/m 19,2 C 31,1 C 16,1 km/h (3 Bft) 95,74 %
31.07.2017 15:58 31,2 C 25,6 C 47 % 1014,1 hPa 0,0 l/m 7,5 km/h (2 Bft) N-NO 30 2 min 0,000 mm 3,7 UV-I 651 W/m 18,5 C 31,1 C 14,5 km/h (3 Bft) 93,62 %
31.07.2017 16:00 31,2 C 25,6 C 45 % 1014,1 hPa 0,0 l/m 10,1 km/h (2 Bft) N-NW 344 2 min 0,000 mm 3,6 UV-I 647 W/m 17,8 C 31,0 C 17,7 km/h (3 Bft) 94,00 %
31.07.2017 16:02 31,3 C 25,6 C 46 % 1014,1 hPa 0,0 l/m 8,3 km/h (2 Bft) N-NO 32 2 min 0,559 mm 3,6 UV-I 643 W/m 18,3 C 31,2 C 16,1 km/h (3 Bft) 100,00 %
31.07.2017 16:04 31,4 C 25,6 C 46 % 1014,1 hPa 0,0 l/m 10,4 km/h (2 Bft) NO 49 2 min 0,000 mm 3,5 UV-I 638 W/m 18,4 C 31,2 C 16,1 km/h (3 Bft) 97,87 %
31.07.2017 16:06 31,4 C 25,6 C 43 % 1014,1 hPa 0,0 l/m 12,5 km/h (3 Bft) O-NO 61 2 min 0,000 mm 3,5 UV-I 634 W/m 17,3 C 31,1 C 19,3 km/h (3 Bft) 97,87 %
31.07.2017 16:08 31,4 C 25,6 C 44 % 1014,1 hPa 0,0 l/m 8,5 km/h (2 Bft) O-NO 67 2 min 0,000 mm 3,4 UV-I 627 W/m 17,6 C 31,3 C 14,5 km/h (3 Bft) 100,00 %
31.07.2017 16:10 31,4 C 25,6 C 43 % 1014,1 hPa 0,0 l/m 7,0 km/h (2 Bft) NO 55 2 min 0,000 mm 3,4 UV-I 623 W/m 17,3 C 31,4 C 9,7 km/h (2 Bft) 97,87 %
31.07.2017 16:12 31,5 C 25,6 C 45 % 1014,1 hPa 0,0 l/m 9,9 km/h (2 Bft) NO 38 2 min 0,000 mm 3,3 UV-I 619 W/m 18,1 C 31,3 C 17,7 km/h (3 Bft) 97,87 %
31.07.2017 16:14 31,5 C 25,6 C 40 % 1014,1 hPa 0,0 l/m 14,1 km/h (3 Bft) O-NO 67 2 min 0,000 mm 3,3 UV-I 613 W/m 16,2 C 31,2 C 22,5 km/h (4 Bft) 93,62 %
31.07.2017 16:16 31,4 C 25,6 C 43 % 1014,1 hPa 0,0 l/m 9,4 km/h (2 Bft) NO 37 2 min 0,000 mm 3,2 UV-I 608 W/m 17,3 C 31,3 C 16,1 km/h (3 Bft) 100,00 %
31.07.2017 16:18 31,4 C 25,6 C 43 % 1014,1 hPa 0,0 l/m 8,2 km/h (2 Bft) N-NO 19 2 min 0,000 mm 3,2 UV-I 606 W/m 17,3 C 31,3 C 14,5 km/h (3 Bft) 100,00 %
31.07.2017 16:20 31,3 C 25,6 C 43 % 1014,0 hPa 0,0 l/m 7,9 km/h (2 Bft) NO 46 2 min 0,000 mm 3,2 UV-I 602 W/m 17,2 C 31,2 C 14,5 km/h (3 Bft) 100,00 %
31.07.2017 16:22 31,4 C 25,6 C 41 % 1014,0 hPa 0,0 l/m 9,6 km/h (2 Bft) O-NO 75 2 min 0,000 mm 3,1 UV-I 598 W/m 16,5 C 31,2 C 19,3 km/h (3 Bft) 97,87 %
31.07.2017 16:24 31,5 C 25,6 C 42 % 1014,1 hPa 0,0 l/m 12,6 km/h (3 Bft) NO 49 2 min 0,000 mm 3,1 UV-I 592 W/m 17,0 C 31,3 C 17,7 km/h (3 Bft) 97,87 %
31.07.2017 16:26 31,5 C 25,6 C 42 % 1013,9 hPa 0,0 l/m 11,4 km/h (2 Bft) NO 56 2 min 0,000 mm 3,0 UV-I 587 W/m 17,0 C 31,3 C 16,1 km/h (3 Bft) 98,11 %
31.07.2017 16:28 31,4 C 25,6 C 40 % 1013,9 hPa 0,0 l/m 10,1 km/h (2 Bft) O-NO 59 2 min 0,000 mm 3,0 UV-I 583 W/m 16,1 C 31,2 C 16,1 km/h (3 Bft) 98,00 %
31.07.2017 16:30 31,4 C 25,6 C 43 % 1013,9 hPa 0,0 l/m 10,4 km/h (2 Bft) NO 44 2 min 0,000 mm 2,9 UV-I 579 W/m 17,3 C 31,2 C 14,5 km/h (3 Bft) 97,87 %
31.07.2017 16:32 31,4 C 25,6 C 43 % 1013,8 hPa 0,0 l/m 12,8 km/h (3 Bft) N-NO 19 2 min 0,000 mm 2,9 UV-I 573 W/m 17,3 C 31,1 C 22,5 km/h (4 Bft) 100,00 %
31.07.2017 16:34 31,4 C 25,6 C 43 % 1013,8 hPa 0,0 l/m 11,9 km/h (2 Bft) N-NO 15 2 min 0,000 mm 2,8 UV-I 568 W/m 17,3 C 31,2 C 17,7 km/h (3 Bft) 100,00 %
31.07.2017 16:36 31,4 C 25,6 C 43 % 1013,7 hPa 0,0 l/m 13,2 km/h (3 Bft) N 350 2 min 0,000 mm 2,8 UV-I 562 W/m 17,3 C 31,1 C 19,3 km/h (3 Bft) 100,00 %
31.07.2017 16:38 31,4 C 25,6 C 43 % 1013,8 hPa 0,0 l/m 11,3 km/h (2 Bft) NO 48 2 min 0,000 mm 2,7 UV-I 557 W/m 17,3 C 31,2 C 17,7 km/h (3 Bft) 93,88 %
31.07.2017 16:40 31,5 C 25,6 C 42 % 1013,7 hPa 0,0 l/m 12,5 km/h (3 Bft) NO 53 2 min 0,000 mm 2,7 UV-I 551 W/m 17,0 C 31,3 C 20,9 km/h (4 Bft) 90,00 %
31.07.2017 16:42 31,6 C 25,6 C 41 % 1013,7 hPa 0,0 l/m 11,5 km/h (2 Bft) NO 55 2 min 0,000 mm 2,6 UV-I 548 W/m 16,7 C 31,4 C 17,7 km/h (3 Bft) 97,87 %
31.07.2017 16:44 31,6 C 25,6 C 40 % 1013,8 hPa 0,0 l/m 15,6 km/h (3 Bft) NO 45 2 min 0,000 mm 2,6 UV-I 545 W/m 16,3 C 31,3 C 20,9 km/h (4 Bft) 97,87 %
31.07.2017 16:46 31,6 C 25,6 C 40 % 1013,8 hPa 0,0 l/m 11,0 km/h (2 Bft) NO 52 2 min 0,000 mm 2,5 UV-I 541 W/m 16,3 C 31,4 C 19,3 km/h (3 Bft) 95,74 %
31.07.2017 16:48 31,7 C 26,1 C 40 % 1013,8 hPa 0,0 l/m 9,3 km/h (2 Bft) NO 49 2 min 0,000 mm 2,5 UV-I 538 W/m 16,4 C 31,6 C 19,3 km/h (3 Bft) 93,62 %
31.07.2017 16:50 31,6 C 26,1 C 41 % 1013,8 hPa 0,0 l/m 13,9 km/h (3 Bft) NO 46 2 min 0,000 mm 2,4 UV-I 531 W/m 16,7 C 31,3 C 17,7 km/h (3 Bft) 100,00 %
31.07.2017 16:52 31,4 C 26,1 C 43 % 1013,8 hPa 0,0 l/m 10,2 km/h (2 Bft) N-NO 25 2 min 0,000 mm 2,2 UV-I 534 W/m 17,3 C 31,2 C 14,5 km/h (3 Bft) 93,62 %
31.07.2017 16:54 31,4 C 26,1 C 44 % 1013,7 hPa 0,0 l/m 9,7 km/h (2 Bft) N-NO 24 2 min 0,000 mm 2,1 UV-I 481 W/m 17,6 C 31,2 C 16,1 km/h (3 Bft) 97,37 %
31.07.2017 16:56 31,3 C 26,1 C 42 % 1013,8 hPa 0,0 l/m 9,3 km/h (2 Bft) N-NO 17 2 min 0,000 mm 2,2 UV-I 408 W/m 16,8 C 31,2 C 14,5 km/h (3 Bft) 100,00 %
31.07.2017 16:58 31,4 C 26,1 C 44 % 1013,8 hPa 0,0 l/m 8,7 km/h (2 Bft) O-NO 61 2 min 0,000 mm 2,2 UV-I 504 W/m 17,6 C 31,3 C 14,5 km/h (3 Bft) 93,88 %
31.07.2017 17:00 31,5 C 26,1 C 40 % 1013,8 hPa 0,0 l/m 14,1 km/h (3 Bft) O 80 2 min 0,000 mm 2,2 UV-I 501 W/m 16,2 C 31,2 C 19,3 km/h (3 Bft) 95,92 %
31.07.2017 17:02 31,5 C 26,1 C 40 % 1013,8 hPa 0,0 l/m 10,5 km/h (2 Bft) NO 48 2 min 0,508 mm 2,2 UV-I 497 W/m 16,2 C 31,3 C 16,1 km/h (3 Bft) 97,96 %
31.07.2017 17:04 31,4 C 26,1 C 40 % 1013,7 hPa 0,0 l/m 10,8 km/h (2 Bft) N-NO 32 2 min 0,000 mm 2,1 UV-I 490 W/m 16,1 C 31,2 C 17,7 km/h (3 Bft) 97,87 %
31.07.2017 17:06 31,4 C 26,1 C 43 % 1013,7 hPa 0,0 l/m 10,3 km/h (2 Bft) NO 50 2 min 0,000 mm 2,1 UV-I 483 W/m 17,3 C 31,2 C 17,7 km/h (3 Bft) 95,74 %
31.07.2017 17:08 31,4 C 26,1 C 43 % 1013,7 hPa 0,0 l/m 11,7 km/h (2 Bft) NO 34 2 min 0,000 mm 2,0 UV-I 476 W/m 17,3 C 31,2 C 17,7 km/h (3 Bft) 95,92 %
31.07.2017 17:10 31,4 C 26,1 C 42 % 1013,7 hPa 0,0 l/m 13,3 km/h (3 Bft) NO 42 2 min 0,000 mm 2,0 UV-I 472 W/m 16,9 C 31,1 C 17,7 km/h (3 Bft) 97,37 %
31.07.2017 17:12 31,4 C 26,1 C 42 % 1013,7 hPa 0,0 l/m 14,9 km/h (3 Bft) NO 45 2 min 0,000 mm 2,0 UV-I 466 W/m 16,9 C 31,1 C 19,3 km/h (3 Bft) 97,87 %
31.07.2017 17:14 31,4 C 26,1 C 41 % 1013,6 hPa 0,0 l/m 13,0 km/h (3 Bft) NO 53 2 min 0,000 mm 1,9 UV-I 461 W/m 16,5 C 31,1 C 17,7 km/h (3 Bft) 91,49 %
31.07.2017 17:16 31,4 C 26,1 C 40 % 1013,6 hPa 0,0 l/m 13,4 km/h (3 Bft) NO 38 2 min 0,000 mm 1,9 UV-I 456 W/m 16,1 C 31,1 C 17,7 km/h (3 Bft) 94,00 %
31.07.2017 17:18 31,5 C 26,1 C 39 % 1013,6 hPa 0,0 l/m 13,5 km/h (3 Bft) O-NO 59 2 min 0,000 mm 1,8 UV-I 449 W/m 15,8 C 31,2 C 17,7 km/h (3 Bft) 95,92 %
31.07.2017 17:20 31,6 C 26,1 C 41 % 1013,5 hPa 0,0 l/m 9,6 km/h (2 Bft) O-NO 57 2 min 0,000 mm 1,8 UV-I 444 W/m 16,7 C 31,5 C 14,5 km/h (3 Bft) 95,74 %
31.07.2017 17:22 31,6 C 26,1 C 41 % 1013,5 hPa 0,0 l/m 13,1 km/h (3 Bft) NO 39 2 min 0,000 mm 1,7 UV-I 439 W/m 16,7 C 31,4 C 17,7 km/h (3 Bft) 94,74 %
31.07.2017 17:24 31,5 C 26,1 C 40 % 1013,5 hPa 0,0 l/m 13,0 km/h (3 Bft) NO 44 2 min 0,000 mm 1,7 UV-I 434 W/m 16,2 C 31,2 C 20,9 km/h (4 Bft) 96,00 %
31.07.2017 17:26 31,4 C 26,1 C 40 % 1013,5 hPa 0,0 l/m 15,9 km/h (3 Bft) O-NO 63 2 min 0,000 mm 1,7 UV-I 429 W/m 16,1 C 31,0 C 20,9 km/h (4 Bft) 97,87 %
31.07.2017 17:28 31,4 C 26,1 C 40 % 1013,5 hPa 0,0 l/m 14,7 km/h (3 Bft) NO 56 2 min 0,000 mm 1,6 UV-I 423 W/m 16,1 C 31,1 C 20,9 km/h (4 Bft) 97,87 %
31.07.2017 17:30 31,4 C 26,1 C 40 % 1013,4 hPa 0,0 l/m 12,0 km/h (2 Bft) NO 40 2 min 0,000 mm 1,6 UV-I 417 W/m 16,1 C 31,2 C 17,7 km/h (3 Bft) 91,49 %
31.07.2017 17:32 31,5 C 26,1 C 41 % 1013,4 hPa 0,0 l/m 9,6 km/h (2 Bft) NO 50 2 min 0,000 mm 1,5 UV-I 411 W/m 16,6 C 31,4 C 14,5 km/h (3 Bft) 97,87 %
31.07.2017 17:34 31,5 C 26,1 C 42 % 1013,4 hPa 0,0 l/m 12,6 km/h (3 Bft) NO 51 2 min 0,000 mm 1,5 UV-I 406 W/m 17,0 C 31,3 C 17,7 km/h (3 Bft) 94,00 %
31.07.2017 17:36 31,4 C 26,1 C 42 % 1013,3 hPa 0,0 l/m 10,1 km/h (2 Bft) O-NO 57 2 min 0,000 mm 1,5 UV-I 402 W/m 16,9 C 31,2 C 16,1 km/h (3 Bft) 89,36 %
31.07.2017 17:38 31,5 C 26,1 C 42 % 1013,3 hPa 0,0 l/m 8,3 km/h (2 Bft) NO 53 2 min 0,000 mm 1,4 UV-I 396 W/m 17,0 C 31,4 C 14,5 km/h (3 Bft) 91,49 %
31.07.2017 17:40 31,6 C 26,1 C 41 % 1013,3 hPa 0,0 l/m 8,6 km/h (2 Bft) O-NO 63 2 min 0,000 mm 1,4 UV-I 390 W/m 16,7 C 31,5 C 19,3 km/h (3 Bft) 96,00 %
31.07.2017 17:42 31,6 C 26,1 C 41 % 1013,3 hPa 0,0 l/m 12,1 km/h (2 Bft) NO 44 2 min 0,000 mm 1,4 UV-I 384 W/m 16,7 C 31,4 C 16,1 km/h (3 Bft) 95,74 %
31.07.2017 17:44 31,5 C 26,1 C 42 % 1013,2 hPa 0,0 l/m 12,1 km/h (2 Bft) NO 56 2 min 0,000 mm 1,3 UV-I 378 W/m 17,0 C 31,3 C 17,7 km/h (3 Bft) 95,83 %
31.07.2017 17:46 31,4 C 26,1 C 42 % 1013,2 hPa 0,0 l/m 13,5 km/h (3 Bft) NO 43 2 min 0,000 mm 1,3 UV-I 373 W/m 16,9 C 31,1 C 19,3 km/h (3 Bft) 91,89 %
31.07.2017 17:48 31,4 C 26,1 C 41 % 1013,2 hPa 0,0 l/m 15,8 km/h (3 Bft) O-NO 66 2 min 0,000 mm 1,3 UV-I 366 W/m 16,5 C 31,0 C 22,5 km/h (4 Bft) 95,74 %
31.07.2017 17:50 31,3 C 26,1 C 41 % 1013,2 hPa 0,0 l/m 16,0 km/h (3 Bft) NO 49 2 min 0,000 mm 1,2 UV-I 361 W/m 16,4 C 30,9 C 20,9 km/h (4 Bft) 93,62 %
31.07.2017 17:52 31,3 C 26,1 C 42 % 1013,2 hPa 0,0 l/m 13,3 km/h (3 Bft) NO 37 2 min 0,000 mm 1,2 UV-I 356 W/m 16,8 C 31,0 C 19,3 km/h (3 Bft) 97,87 %
31.07.2017 17:54 31,3 C 26,1 C 42 % 1013,3 hPa 0,0 l/m 10,6 km/h (2 Bft) O-NO 61 2 min 0,000 mm 1,2 UV-I 350 W/m 16,8 C 31,1 C 20,9 km/h (4 Bft) 89,36 %
31.07.2017 17:56 31,3 C 26,1 C 42 % 1013,2 hPa 0,0 l/m 10,1 km/h (2 Bft) O-NO 63 2 min 0,000 mm 1,1 UV-I 345 W/m 16,8 C 31,1 C 19,3 km/h (3 Bft) 95,92 %
31.07.2017 17:58 31,3 C 26,1 C 45 % 1013,3 hPa 0,0 l/m 7,4 km/h (2 Bft) NO 53 2 min 0,000 mm 1,1 UV-I 339 W/m 17,9 C 31,2 C 14,5 km/h (3 Bft) 95,74 %
31.07.2017 18:00 31,3 C 26,1 C 43 % 1013,3 hPa 0,0 l/m 6,8 km/h (2 Bft) N-NO 23 2 min 0,407 mm 1,1 UV-I 333 W/m 17,2 C 31,3 C 9,7 km/h (2 Bft) 93,62 %
31.07.2017 18:02 31,3 C 26,1 C 43 % 1013,3 hPa 0,0 l/m 11,0 km/h (2 Bft) NO 50 2 min 0,000 mm 1,0 UV-I 327 W/m 17,2 C 31,1 C 16,1 km/h (3 Bft) 94,00 %
31.07.2017 18:04 31,2 C 26,1 C 45 % 1013,3 hPa 0,0 l/m 8,4 km/h (2 Bft) NO 36 2 min 0,000 mm 1,0 UV-I 321 W/m 17,8 C 31,1 C 12,9 km/h (3 Bft) 93,62 %
31.07.2017 18:06 31,1 C 26,1 C 45 % 1013,3 hPa 0,0 l/m 11,7 km/h (2 Bft) N 355 2 min 0,000 mm 1,0 UV-I 315 W/m 17,7 C 30,8 C 16,1 km/h (3 Bft) 97,87 %
31.07.2017 18:08 31,1 C 26,1 C 44 % 1013,3 hPa 0,0 l/m 9,4 km/h (2 Bft) NO 36 2 min 0,000 mm 1,0 UV-I 309 W/m 17,4 C 30,9 C 16,1 km/h (3 Bft) 97,87 %
31.07.2017 18:10 31,1 C 26,1 C 44 % 1013,3 hPa 0,0 l/m 10,4 km/h (2 Bft) N-NO 26 2 min 0,000 mm 0,9 UV-I 304 W/m 17,4 C 30,9 C 16,1 km/h (3 Bft) 89,36 %
31.07.2017 18:12 31,1 C 26,1 C 45 % 1013,2 hPa 0,0 l/m 9,5 km/h (2 Bft) O-NO 59 2 min 0,000 mm 0,9 UV-I 299 W/m 17,7 C 30,9 C 14,5 km/h (3 Bft) 93,62 %
31.07.2017 18:14 31,0 C 26,1 C 45 % 1013,2 hPa 0,0 l/m 11,6 km/h (2 Bft) O-NO 61 2 min 0,000 mm 0,9 UV-I 295 W/m 17,6 C 30,7 C 17,7 km/h (3 Bft) 98,00 %
31.07.2017 18:16 31,0 C 26,1 C 45 % 1013,2 hPa 0,0 l/m 11,6 km/h (2 Bft) NO 52 2 min 0,000 mm 0,8 UV-I 289 W/m 17,6 C 30,7 C 19,3 km/h (3 Bft) 95,74 %
31.07.2017 18:18 30,9 C 26,1 C 45 % 1013,2 hPa 0,0 l/m 10,9 km/h (2 Bft) NO 39 2 min 0,000 mm 0,8 UV-I 284 W/m 17,6 C 30,6 C 16,1 km/h (3 Bft) 95,74 %
31.07.2017 18:20 30,9 C 26,1 C 46 % 1013,2 hPa 0,0 l/m 7,6 km/h (2 Bft) N-NO 26 2 min 0,000 mm 0,8 UV-I 283 W/m 17,9 C 30,8 C 17,7 km/h (3 Bft) 91,67 %
31.07.2017 18:22 30,9 C 26,1 C 46 % 1013,2 hPa 0,0 l/m 7,8 km/h (2 Bft) NO 49 2 min 0,000 mm 0,8 UV-I 274 W/m 17,9 C 30,8 C 16,1 km/h (3 Bft) 95,74 %
31.07.2017 18:24 30,9 C 26,1 C 47 % 1013,2 hPa 0,0 l/m 9,1 km/h (2 Bft) NO 42 2 min 0,000 mm 0,7 UV-I 262 W/m 18,2 C 30,7 C 14,5 km/h (3 Bft) 91,49 %
31.07.2017 18:26 30,8 C 26,1 C 48 % 1013,1 hPa 0,0 l/m 13,5 km/h (3 Bft) NO 36 2 min 0,000 mm 0,7 UV-I 256 W/m 18,5 C 30,4 C 19,3 km/h (3 Bft) 93,62 %
31.07.2017 18:28 30,7 C 26,1 C 48 % 1013,1 hPa 0,0 l/m 9,2 km/h (2 Bft) O-NO 61 2 min 0,000 mm 0,7 UV-I 221 W/m 18,4 C 30,5 C 12,9 km/h (3 Bft) 95,74 %
31.07.2017 18:30 30,6 C 26,1 C 48 % 1013,1 hPa 0,0 l/m 9,0 km/h (2 Bft) NO 37 0 min 0,000 mm 0,6 UV-I 101 W/m 18,3 C 30,4 C 14,5 km/h (3 Bft) 97,87 %
31.07.2017 18:32 30,4 C 26,1 C 49 % 1013,1 hPa 0,0 l/m 10,5 km/h (2 Bft) O-NO 60 0 min 0,000 mm 0,5 UV-I 89 W/m 18,5 C 30,1 C 19,3 km/h (3 Bft) 95,74 %
31.07.2017 18:34 30,2 C 26,1 C 49 % 1013,1 hPa 0,0 l/m 6,5 km/h (2 Bft) N-NO 22 0 min 0,000 mm 0,5 UV-I 84 W/m 18,3 C 30,2 C 11,3 km/h (2 Bft) 96,00 %
31.07.2017 18:36 30,0 C 26,1 C 50 % 1013,1 hPa 0,0 l/m 6,2 km/h (2 Bft) N 5 0 min 0,000 mm 0,5 UV-I 87 W/m 18,4 C 30,0 C 11,3 km/h (2 Bft) 95,74 %
31.07.2017 18:38 29,8 C 26,1 C 50 % 1013,1 hPa 0,0 l/m 7,6 km/h (2 Bft) N-NO 16 0 min 0,000 mm 0,5 UV-I 98 W/m 18,2 C 29,7 C 12,9 km/h (3 Bft) 91,49 %
31.07.2017 18:40 29,7 C 26,1 C 50 % 1013,1 hPa 0,0 l/m 8,4 km/h (2 Bft) N-NO 25 0 min 0,000 mm 0,5 UV-I 105 W/m 18,1 C 29,5 C 19,3 km/h (3 Bft) 97,87 %
31.07.2017 18:42 29,7 C 26,1 C 50 % 1013,1 hPa 0,0 l/m 12,4 km/h (3 Bft) NO 44 0 min 0,000 mm 0,5 UV-I 109 W/m 18,1 C 29,2 C 19,3 km/h (3 Bft) 95,74 %
31.07.2017 18:44 29,7 C 26,1 C 51 % 1013,1 hPa 0,0 l/m 8,6 km/h (2 Bft) N-NO 30 0 min 0,000 mm 0,5 UV-I 164 W/m 18,5 C 29,5 C 14,5 km/h (3 Bft) 93,62 %
31.07.2017 18:46 29,8 C 26,1 C 51 % 1013,1 hPa 0,0 l/m 6,3 km/h (2 Bft) N-NO 32 2 min 0,000 mm 0,5 UV-I 214 W/m 18,5 C 29,8 C 9,7 km/h (2 Bft) 96,00 %
31.07.2017 18:48 29,8 C 26,1 C 52 % 1013,1 hPa 0,0 l/m 3,0 km/h (1 Bft) N-NO 21 2 min 0,000 mm 0,5 UV-I 208 W/m 18,9 C 29,8 C 6,4 km/h (2 Bft) 95,74 %
31.07.2017 18:50 29,9 C 26,1 C 51 % 1013,1 hPa 0,0 l/m 4,3 km/h (1 Bft) N-NO 24 2 min 0,000 mm 0,1 UV-I 199 W/m 18,6 C 29,9 C 8,0 km/h (2 Bft) 95,74 %
31.07.2017 18:52 29,9 C 26,1 C 52 % 1013,2 hPa 0,0 l/m 3,3 km/h (1 Bft) NO 34 2 min 0,000 mm 0,0 UV-I 184 W/m 19,0 C 29,9 C 6,4 km/h (2 Bft) 93,62 %
31.07.2017 18:54 29,9 C 26,1 C 50 % 1013,2 hPa 0,0 l/m 2,1 km/h (1 Bft) N-NW 338 0 min 0,000 mm 0,0 UV-I 110 W/m 18,3 C 29,9 C 4,8 km/h (1 Bft) 91,49 %
31.07.2017 18:56 29,8 C 26,1 C 50 % 1013,2 hPa 0,0 l/m 4,3 km/h (1 Bft) N-NO 26 2 min 0,000 mm 0,0 UV-I 148 W/m 18,2 C 29,8 C 9,7 km/h (2 Bft) 93,62 %
31.07.2017 18:58 29,8 C 26,1 C 51 % 1013,2 hPa 0,0 l/m 2,2 km/h (1 Bft) N-NO 14 2 min 0,000 mm 0,0 UV-I 171 W/m 18,5 C 29,8 C 6,4 km/h (2 Bft) 91,49 %
31.07.2017 19:00 29,8 C 26,1 C 51 % 1013,2 hPa 0,0 l/m 2,3 km/h (1 Bft) N-NO 31 2 min 0,000 mm 0,0 UV-I 166 W/m 18,5 C 29,8 C 6,4 km/h (2 Bft) 94,87 %
31.07.2017 19:02 29,8 C 26,1 C 51 % 1013,2 hPa 0,0 l/m 3,0 km/h (1 Bft) N 360 2 min 0,228 mm 0,0 UV-I 162 W/m 18,5 C 29,8 C 8,0 km/h (2 Bft) 96,00 %
31.07.2017 19:04 29,8 C 26,1 C 51 % 1013,2 hPa 0,0 l/m 2,9 km/h (1 Bft) N-NO 24 2 min 0,000 mm 0,0 UV-I 157 W/m 18,5 C 29,8 C 8,0 km/h (2 Bft) 97,87 %
31.07.2017 19:06 29,8 C 26,1 C 51 % 1013,2 hPa 0,0 l/m 3,1 km/h (1 Bft) NW 313 2 min 0,000 mm 0,0 UV-I 151 W/m 18,5 C 29,8 C 6,4 km/h (2 Bft) 95,74 %
31.07.2017 19:08 29,7 C 26,1 C 50 % 1013,2 hPa 0,0 l/m 3,9 km/h (1 Bft) N-NW 347 2 min 0,000 mm 0,0 UV-I 147 W/m 18,1 C 29,7 C 12,9 km/h (3 Bft) 95,74 %
31.07.2017 19:10 29,7 C 26,1 C 52 % 1013,2 hPa 0,0 l/m 3,9 km/h (1 Bft) N-NO 19 2 min 0,000 mm 0,0 UV-I 141 W/m 18,8 C 29,7 C 8,0 km/h (2 Bft) 95,74 %
31.07.2017 19:12 29,7 C 26,1 C 52 % 1013,2 hPa 0,0 l/m 3,7 km/h (1 Bft) N-NO 19 2 min 0,000 mm 0,0 UV-I 137 W/m 18,8 C 29,7 C 8,0 km/h (2 Bft) 93,62 %
31.07.2017 19:14 29,7 C 26,1 C 52 % 1013,2 hPa 0,0 l/m 4,7 km/h (1 Bft) N-NO 22 2 min 0,000 mm 0,0 UV-I 133 W/m 18,8 C 29,7 C 11,3 km/h (2 Bft) 96,00 %
31.07.2017 19:16 29,6 C 26,1 C 52 % 1013,2 hPa 0,0 l/m 3,9 km/h (1 Bft) N 10 2 min 0,000 mm 0,0 UV-I 129 W/m 18,7 C 29,6 C 8,0 km/h (2 Bft) 95,74 %
31.07.2017 19:18 29,6 C 26,1 C 52 % 1013,2 hPa 0,0 l/m 3,3 km/h (1 Bft) N-NO 32 2 min 0,000 mm 0,0 UV-I 126 W/m 18,7 C 29,6 C 6,4 km/h (2 Bft) 92,68 %
31.07.2017 19:20 29,5 C 26,1 C 52 % 1013,2 hPa 0,0 l/m 3,7 km/h (1 Bft) N-NO 28 2 min 0,000 mm 0,0 UV-I 120 W/m 18,6 C 29,5 C 11,3 km/h (2 Bft) 94,00 %
31.07.2017 19:22 29,6 C 26,1 C 52 % 1013,2 hPa 0,0 l/m 2,7 km/h (1 Bft) NO 38 2 min 0,000 mm 0,0 UV-I 115 W/m 18,7 C 29,6 C 6,4 km/h (2 Bft) 95,74 %
31.07.2017 19:24 29,5 C 26,1 C 53 % 1013,2 hPa 0,0 l/m 1,7 km/h (1 Bft) N-NO 28 2 min 0,000 mm 0,0 UV-I 111 W/m 18,9 C 29,5 C 6,4 km/h (2 Bft) 95,74 %
31.07.2017 19:26 29,4 C 26,1 C 53 % 1013,3 hPa 0,0 l/m 1,3 km/h (1 Bft) N-NW 327 2 min 0,000 mm 0,0 UV-I 106 W/m 18,8 C 29,4 C 3,2 km/h (1 Bft) 96,00 %
31.07.2017 19:28 29,4 C 26,1 C 53 % 1013,3 hPa 0,0 l/m 1,4 km/h (1 Bft) N 11 2 min 0,000 mm 0,0 UV-I 102 W/m 18,8 C 29,4 C 3,2 km/h (1 Bft) 91,49 %
31.07.2017 19:30 29,3 C 26,1 C 53 % 1013,4 hPa 0,0 l/m 1,2 km/h (1 Bft) N 355 2 min 0,000 mm 0,0 UV-I 98 W/m 18,7 C 29,3 C 4,8 km/h (1 Bft) 97,22 %
31.07.2017 19:32 29,3 C 26,1 C 53 % 1013,4 hPa 0,0 l/m 2,3 km/h (1 Bft) N-NO 12 2 min 0,000 mm 0,0 UV-I 95 W/m 18,7 C 29,3 C 6,4 km/h (2 Bft) 100,00 %
31.07.2017 19:34 29,2 C 26,1 C 53 % 1013,4 hPa 0,0 l/m 2,3 km/h (1 Bft) N 9 2 min 0,000 mm 0,0 UV-I 92 W/m 18,6 C 29,2 C 4,8 km/h (1 Bft) 97,87 %
31.07.2017 19:36 29,1 C 26,1 C 53 % 1013,4 hPa 0,0 l/m 2,5 km/h (1 Bft) N 355 2 min 0,000 mm 0,0 UV-I 88 W/m 18,5 C 29,1 C 6,4 km/h (2 Bft) 93,62 %
31.07.2017 19:38 29,1 C 26,1 C 53 % 1013,4 hPa 0,0 l/m 2,3 km/h (1 Bft) N 11 2 min 0,000 mm 0,0 UV-I 84 W/m 18,5 C 29,1 C 6,4 km/h (2 Bft) 95,74 %
31.07.2017 19:40 29,1 C 26,1 C 53 % 1013,5 hPa 0,0 l/m 1,2 km/h (1 Bft) N 355 0 min 0,000 mm 0,0 UV-I 80 W/m 18,5 C 29,1 C 4,8 km/h (1 Bft) 94,00 %
31.07.2017 19:42 29,1 C 26,1 C 54 % 1013,5 hPa 0,0 l/m 1,2 km/h (1 Bft) N-NW 345 0 min 0,000 mm 0,0 UV-I 72 W/m 18,8 C 29,1 C 3,2 km/h (1 Bft) 94,44 %
31.07.2017 19:44 29,0 C 26,1 C 52 % 1013,6 hPa 0,0 l/m 1,3 km/h (1 Bft) N-NW 327 0 min 0,000 mm 0,0 UV-I 63 W/m 18,1 C 29,0 C 3,2 km/h (1 Bft) 95,74 %
31.07.2017 19:46 28,9 C 26,1 C 54 % 1013,6 hPa 0,0 l/m 1,2 km/h (1 Bft) N-NO 16 0 min 0,000 mm 0,0 UV-I 69 W/m 18,6 C 28,9 C 3,2 km/h (1 Bft) 96,00 %
31.07.2017 19:48 28,8 C 26,1 C 55 % 1013,6 hPa 0,0 l/m 0,2 km/h (0 Bft) N-NO 15 0 min 0,000 mm 0,0 UV-I 66 W/m 18,8 C 28,8 C 1,6 km/h (1 Bft) 97,87 %
31.07.2017 19:50 28,7 C 26,1 C 54 % 1013,6 hPa 0,0 l/m 0,7 km/h (0 Bft) N 9 0 min 0,000 mm 0,0 UV-I 63 W/m 18,5 C 28,7 C 1,6 km/h (1 Bft) 97,87 %
31.07.2017 19:52 28,6 C 26,1 C 55 % 1013,6 hPa 0,0 l/m 1,3 km/h (1 Bft) N-NO 13 0 min 0,000 mm 0,0 UV-I 58 W/m 18,7 C 28,6 C 3,2 km/h (1 Bft) 93,62 %
31.07.2017 19:54 28,5 C 26,1 C 55 % 1013,6 hPa 0,0 l/m 1,3 km/h (1 Bft) N 11 0 min 0,000 mm 0,0 UV-I 46 W/m 18,6 C 28,5 C 4,8 km/h (1 Bft) 93,62 %
31.07.2017 19:56 28,4 C 26,1 C 56 % 1013,6 hPa 0,0 l/m 1,3 km/h (1 Bft) N-NO 17 0 min 0,000 mm 0,0 UV-I 37 W/m 18,8 C 28,4 C 3,2 km/h (1 Bft) 93,62 %
31.07.2017 19:58 28,3 C 26,1 C 55 % 1013,6 hPa 0,0 l/m 2,2 km/h (1 Bft) N-NO 20 0 min 0,000 mm 0,0 UV-I 43 W/m 18,4 C 28,3 C 6,4 km/h (2 Bft) 97,87 %
31.07.2017 20:00 28,2 C 26,1 C 55 % 1013,7 hPa 0,0 l/m 1,4 km/h (1 Bft) N-NO 23 0 min 0,000 mm 0,0 UV-I 43 W/m 18,3 C 28,2 C 3,2 km/h (1 Bft) 95,74 %
31.07.2017 20:02 28,1 C 26,1 C 55 % 1013,6 hPa 0,0 l/m 0,8 km/h (0 Bft) N-NO 22 0 min 0,102 mm 0,0 UV-I 35 W/m 18,2 C 28,1 C 3,2 km/h (1 Bft) 91,49 %
31.07.2017 20:04 27,9 C 26,1 C 57 % 1013,6 hPa 0,0 l/m 0,8 km/h (0 Bft) N-NO 20 0 min 0,000 mm 0,0 UV-I 37 W/m 18,6 C 27,9 C 1,6 km/h (1 Bft) 93,62 %
31.07.2017 20:06 27,8 C 26,1 C 57 % 1013,6 hPa 0,0 l/m 0,4 km/h (0 Bft) N-NO 20 0 min 0,000 mm 0,0 UV-I 33 W/m 18,5 C 27,8 C 1,6 km/h (1 Bft) 93,62 %
31.07.2017 20:08 27,8 C 26,1 C 56 % 1013,7 hPa 0,0 l/m 0,2 km/h (0 Bft) N-NO 20 0 min 0,000 mm 0,0 UV-I 31 W/m 18,2 C 27,8 C 1,6 km/h (1 Bft) 97,87 %
31.07.2017 20:10 27,9 C 26,1 C 55 % 1013,7 hPa 0,0 l/m 0,1 km/h (0 Bft) N-NO 20 0 min 0,000 mm 0,0 UV-I 28 W/m 18,0 C 27,9 C 1,6 km/h (1 Bft) 93,62 %
31.07.2017 20:12 27,9 C 26,1 C 56 % 1013,8 hPa 0,0 l/m 0,9 km/h (0 Bft) N-NW 329 0 min 0,000 mm 0,0 UV-I 25 W/m 18,3 C 27,9 C 3,2 km/h (1 Bft) 94,00 %
31.07.2017 20:14 27,9 C 26,1 C 55 % 1013,8 hPa 0,0 l/m 1,4 km/h (1 Bft) NW 323 0 min 0,000 mm 0,0 UV-I 24 W/m 18,0 C 27,9 C 3,2 km/h (1 Bft) 100,00 %
31.07.2017 20:16 28,1 C 26,1 C 55 % 1013,9 hPa 0,0 l/m 1,6 km/h (1 Bft) N-NW 336 0 min 0,000 mm 0,0 UV-I 21 W/m 18,2 C 28,1 C 3,2 km/h (1 Bft) 95,74 %
31.07.2017 20:18 28,0 C 26,1 C 55 % 1013,9 hPa 0,0 l/m 3,0 km/h (1 Bft) NW 309 0 min 0,000 mm 0,0 UV-I 19 W/m 18,1 C 28,0 C 6,4 km/h (2 Bft) 100,00 %
31.07.2017 20:20 28,0 C 26,1 C 55 % 1014,0 hPa 0,0 l/m 2,9 km/h (1 Bft) N-NW 348 0 min 0,000 mm 0,0 UV-I 16 W/m 18,1 C 28,0 C 6,4 km/h (2 Bft) 98,00 %
31.07.2017 20:22 27,9 C 26,1 C 55 % 1014,0 hPa 0,0 l/m 1,7 km/h (1 Bft) N-NW 345 0 min 0,000 mm 0,0 UV-I 14 W/m 18,0 C 27,9 C 3,2 km/h (1 Bft) 97,87 %
31.07.2017 20:24 27,8 C 26,1 C 55 % 1014,0 hPa 0,0 l/m 1,1 km/h (1 Bft) N-NW 344 0 min 0,000 mm 0,0 UV-I 12 W/m 17,9 C 27,8 C 4,8 km/h (1 Bft) 97,87 %
31.07.2017 20:26 27,8 C 26,1 C 55 % 1014,0 hPa 0,0 l/m 0,7 km/h (0 Bft) N-NW 344 0 min 0,000 mm 0,0 UV-I 12 W/m 17,9 C 27,8 C 1,6 km/h (1 Bft) 94,23 %
31.07.2017 20:28 27,8 C 26,1 C 55 % 1014,1 hPa 0,0 l/m 1,8 km/h (1 Bft) NW 311 2 min 0,000 mm 0,0 UV-I 11 W/m 17,9 C 27,8 C 4,8 km/h (1 Bft) 95,74 %
31.07.2017 20:30 27,7 C 26,1 C 55 % 1014,1 hPa 0,0 l/m 0,7 km/h (0 Bft) NW 312 0 min 0,000 mm 0,0 UV-I 11 W/m 17,8 C 27,7 C 3,2 km/h (1 Bft) 100,00 %
31.07.2017 20:32 27,7 C 26,1 C 55 % 1014,1 hPa 0,0 l/m 0,3 km/h (0 Bft) NW 312 0 min 0,000 mm 0,0 UV-I 10 W/m 17,8 C 27,7 C 3,2 km/h (1 Bft) 97,37 %
31.07.2017 20:34 27,7 C 26,1 C 55 % 1014,1 hPa 0,0 l/m 1,4 km/h (1 Bft) NW 312 0 min 0,000 mm 0,0 UV-I 9 W/m 17,8 C 27,7 C 3,2 km/h (1 Bft) 97,87 %
31.07.2017 20:36 27,6 C 26,1 C 55 % 1014,2 hPa 0,0 l/m 2,4 km/h (1 Bft) N-NW 328 0 min 0,000 mm 0,0 UV-I 9 W/m 17,7 C 27,6 C 3,2 km/h (1 Bft) 93,62 %
31.07.2017 20:38 27,6 C 26,1 C 55 % 1014,2 hPa 0,0 l/m 1,3 km/h (1 Bft) N-NW 329 0 min 0,000 mm 0,0 UV-I 8 W/m 17,7 C 27,6 C 3,2 km/h (1 Bft) 93,62 %
31.07.2017 20:40 27,6 C 26,1 C 56 % 1014,2 hPa 0,0 l/m 0,1 km/h (0 Bft) N-NW 329 0 min 0,000 mm 0,0 UV-I 7 W/m 18,0 C 27,6 C 1,6 km/h (1 Bft) 93,62 %
31.07.2017 20:42 27,5 C 26,1 C 56 % 1014,3 hPa 0,0 l/m 0,8 km/h (0 Bft) N-NW 329 0 min 0,000 mm 0,0 UV-I 7 W/m 17,9 C 27,5 C 3,2 km/h (1 Bft) 100,00 %
31.07.2017 20:44 27,4 C 25,6 C 56 % 1014,3 hPa 0,0 l/m 2,3 km/h (1 Bft) N-NW 344 0 min 0,000 mm 0,0 UV-I 7 W/m 17,8 C 27,4 C 4,8 km/h (1 Bft) 98,00 %
31.07.2017 20:46 27,3 C 25,6 C 56 % 1014,3 hPa 0,0 l/m 0,9 km/h (0 Bft) N-NW 345 0 min 0,000 mm 0,0 UV-I 6 W/m 17,7 C 27,3 C 3,2 km/h (1 Bft) 95,74 %
31.07.2017 20:48 27,3 C 25,6 C 56 % 1014,3 hPa 0,0 l/m 1,5 km/h (1 Bft) N-NW 346 0 min 0,000 mm 0,0 UV-I 5 W/m 17,7 C 27,3 C 3,2 km/h (1 Bft) 95,74 %
31.07.2017 20:50 27,2 C 25,6 C 56 % 1014,3 hPa 0,0 l/m 0,2 km/h (0 Bft) N-NW 346 0 min 0,000 mm 0,0 UV-I 5 W/m 17,6 C 27,2 C 1,6 km/h (1 Bft) 91,49 %
31.07.2017 20:52 27,2 C 25,6 C 57 % 1014,3 hPa 0,0 l/m 1,1 km/h (1 Bft) N-NW 346 0 min 0,000 mm 0,0 UV-I 5 W/m 17,9 C 27,2 C 3,2 km/h (1 Bft) 95,12 %
31.07.2017 20:54 27,1 C 25,6 C 57 % 1014,3 hPa 0,0 l/m 0,8 km/h (0 Bft) N-NW 346 0 min 0,000 mm 0,0 UV-I 5 W/m 17,8 C 27,1 C 3,2 km/h (1 Bft) 96,00 %
31.07.2017 20:56 27,0 C 25,6 C 57 % 1014,3 hPa 0,0 l/m 0,7 km/h (0 Bft) N-NW 347 0 min 0,000 mm 0,0 UV-I 4 W/m 17,7 C 27,0 C 3,2 km/h (1 Bft) 96,08 %
31.07.2017 20:58 26,9 C 25,6 C 58 % 1014,3 hPa 0,0 l/m 0,4 km/h (0 Bft) N-NW 347 0 min 0,000 mm 0,0 UV-I 0 W/m 17,9 C 26,9 C 1,6 km/h (1 Bft) 85,71 %
31.07.2017 21:00 26,7 C 25,6 C 59 % 1014,3 hPa 0,0 l/m 0,1 km/h (0 Bft) N-NW 347 0 min 0,000 mm 0,0 UV-I 0 W/m 18,0 C 26,7 C 1,6 km/h (1 Bft) 94,00 %
31.07.2017 21:02 26,7 C 25,6 C 58 % 1014,4 hPa 0,0 l/m 0,0 km/h (0 Bft) N-NW 347 0 min 0,025 mm 0,0 UV-I 0 W/m 17,7 C 26,7 C 0,0 km/h (0 Bft) 94,00 %
31.07.2017 21:04 26,7 C 25,6 C 59 % 1014,4 hPa 0,0 l/m 0,1 km/h (0 Bft) N-NW 347 0 min 0,000 mm 0,0 UV-I 0 W/m 18,0 C 26,7 C 1,6 km/h (1 Bft) 95,74 %
31.07.2017 21:06 26,6 C 25,6 C 59 % 1014,4 hPa 0,0 l/m 0,2 km/h (0 Bft) N-NW 347 0 min 0,000 mm 0,0 UV-I 0 W/m 17,9 C 26,6 C 1,6 km/h (1 Bft) 95,74 %
31.07.2017 21:08 26,6 C 25,6 C 60 % 1014,5 hPa 0,0 l/m 0,0 km/h (0 Bft) N-NW 347 0 min 0,000 mm 0,0 UV-I 0 W/m 18,2 C 26,6 C 0,0 km/h (0 Bft) 93,62 %
31.07.2017 21:10 26,5 C 25,6 C 59 % 1014,5 hPa 0,0 l/m 0,8 km/h (0 Bft) N-NW 347 0 min 0,000 mm 0,0 UV-I 0 W/m 17,8 C 26,5 C 3,2 km/h (1 Bft) 87,23 %
31.07.2017 21:12 26,4 C 25,6 C 59 % 1014,5 hPa 0,0 l/m 0,0 km/h (0 Bft) N-NW 347 0 min 0,000 mm 0,0 UV-I 0 W/m 17,7 C 26,4 C 0,0 km/h (0 Bft) 96,23 %
31.07.2017 21:14 26,3 C 25,6 C 61 % 1014,5 hPa 0,0 l/m 0,0 km/h (0 Bft) N-NW 347 0 min 0,000 mm 0,0 UV-I 0 W/m 18,2 C 26,3 C 0,0 km/h (0 Bft) 94,29 %
31.07.2017 21:16 26,1 C 25,6 C 64 % 1014,5 hPa 0,0 l/m 0,0 km/h (0 Bft) N-NW 347 0 min 0,000 mm 0,0 UV-I 0 W/m 18,7 C 26,1 C 0,0 km/h (0 Bft) 93,62 %
31.07.2017 21:18 25,7 C 25,6 C 64 % 1014,5 hPa 0,0 l/m 0,1 km/h (0 Bft) N-NW 347 0 min 0,000 mm 0,0 UV-I 0 W/m 18,4 C 25,7 C 1,6 km/h (1 Bft) 93,62 %
31.07.2017 21:20 25,4 C 25,6 C 65 % 1014,5 hPa 0,0 l/m 0,4 km/h (0 Bft) N-NW 347 0 min 0,000 mm 0,0 UV-I 0 W/m 18,3 C 25,4 C 3,2 km/h (1 Bft) 91,49 %
31.07.2017 21:22 25,2 C 25,6 C 67 % 1014,6 hPa 0,0 l/m 1,7 km/h (1 Bft) N-NW 347 0 min 0,000 mm 0,0 UV-I 0 W/m 18,6 C 25,2 C 3,2 km/h (1 Bft) 95,74 %
31.07.2017 21:24 24,9 C 25,6 C 67 % 1014,6 hPa 0,0 l/m 1,9 km/h (1 Bft) N-NW 347 0 min 0,000 mm 0,0 UV-I 0 W/m 18,3 C 24,9 C 3,2 km/h (1 Bft) 92,00 %
31.07.2017 21:26 24,8 C 25,6 C 67 % 1014,6 hPa 0,0 l/m 1,0 km/h (0 Bft) N-NW 347 0 min 0,000 mm 0,0 UV-I 0 W/m 18,2 C 24,8 C 3,2 km/h (1 Bft) 97,87 %
31.07.2017 21:28 24,8 C 25,6 C 67 % 1014,6 hPa 0,0 l/m 0,0 km/h (0 Bft) N-NW 347 0 min 0,000 mm 0,0 UV-I 0 W/m 18,2 C 24,8 C 0,0 km/h (0 Bft) 95,74 %
31.07.2017 21:30 24,8 C 25,6 C 67 % 1014,6 hPa 0,0 l/m 0,0 km/h (0 Bft) N-NW 347 0 min 0,000 mm 0,0 UV-I 0 W/m 18,2 C 24,8 C 0,0 km/h (0 Bft) 93,62 %
31.07.2017 21:32 24,9 C 25,6 C 66 % 1014,6 hPa 0,0 l/m 0,0 km/h (0 Bft) N-NW 347 0 min 0,000 mm 0,0 UV-I 0 W/m 18,1 C 24,9 C 0,0 km/h (0 Bft) 89,36 %
31.07.2017 21:34 25,0 C 25,6 C 65 % 1014,7 hPa 0,0 l/m 0,0 km/h (0 Bft) N-NW 347 0 min 0,000 mm 0,0 UV-I 0 W/m 17,9 C 25,0 C 0,0 km/h (0 Bft) 97,92 %
31.07.2017 21:36 25,0 C 25,6 C 66 % 1014,7 hPa 0,0 l/m 0,0 km/h (0 Bft) N-NW 347 0 min 0,000 mm 0,0 UV-I 0 W/m 18,2 C 25,0 C 0,0 km/h (0 Bft) 94,00 %
31.07.2017 21:38 24,8 C 25,6 C 67 % 1014,7 hPa 0,0 l/m 0,3 km/h (0 Bft) N-NW 347 0 min 0,000 mm 0,0 UV-I 0 W/m 18,2 C 24,8 C 1,6 km/h (1 Bft) 95,74 %
31.07.2017 21:40 24,7 C 25,6 C 66 % 1014,7 hPa 0,0 l/m 0,0 km/h (0 Bft) N-NW 347 0 min 0,000 mm 0,0 UV-I 0 W/m 17,9 C 24,7 C 0,0 km/h (0 Bft) 95,92 %
31.07.2017 21:42 24,7 C 25,6 C 67 % 1014,7 hPa 0,0 l/m 0,0 km/h (0 Bft) N-NW 347 0 min 0,000 mm 0,0 UV-I 0 W/m 18,1 C 24,7 C 0,0 km/h (0 Bft) 95,65 %
31.07.2017 21:44 24,8 C 25,6 C 67 % 1014,7 hPa 0,0 l/m 0,0 km/h (0 Bft) N-NW 347 0 min 0,000 mm 0,0 UV-I 0 W/m 18,2 C 24,8 C 0,0 km/h (0 Bft) 95,16 %
31.07.2017 21:46 24,8 C 25,6 C 68 % 1014,7 hPa 0,0 l/m 0,9 km/h (0 Bft) O-NO 72 0 min 0,000 mm 0,0 UV-I 0 W/m 18,5 C 24,8 C 4,8 km/h (1 Bft) 89,36 %
31.07.2017 21:48 24,7 C 25,6 C 67 % 1014,7 hPa 0,0 l/m 0,8 km/h (0 Bft) O-NO 72 0 min 0,000 mm 0,0 UV-I 0 W/m 18,1 C 24,7 C 3,2 km/h (1 Bft) 95,74 %
31.07.2017 21:50 24,7 C 25,6 C 68 % 1014,7 hPa 0,0 l/m 0,7 km/h (0 Bft) O-NO 72 0 min 0,000 mm 0,0 UV-I 0 W/m 18,4 C 24,7 C 1,6 km/h (1 Bft) 97,87 %
31.07.2017 21:52 24,6 C 25,6 C 68 % 1014,7 hPa 0,0 l/m 1,2 km/h (1 Bft) O-NO 72 0 min 0,000 mm 0,0 UV-I 0 W/m 18,3 C 24,6 C 3,2 km/h (1 Bft) 95,74 %
31.07.2017 21:54 24,6 C 25,6 C 67 % 1014,7 hPa 0,0 l/m 2,8 km/h (1 Bft) O-NO 72 0 min 0,000 mm 0,0 UV-I 0 W/m 18,1 C 24,6 C 4,8 km/h (1 Bft) 93,62 %
31.07.2017 21:56 24,6 C 25,6 C 67 % 1014,7 hPa 0,0 l/m 2,4 km/h (1 Bft) O-NO 72 0 min 0,000 mm 0,0 UV-I 0 W/m 18,1 C 24,6 C 3,2 km/h (1 Bft) 95,74 %
31.07.2017 21:58 24,6 C 25,6 C 67 % 1014,7 hPa 0,0 l/m 3,7 km/h (1 Bft) O-NO 69 0 min 0,000 mm 0,0 UV-I 0 W/m 18,1 C 24,6 C 6,4 km/h (2 Bft) 95,74 %
31.07.2017 22:00 24,8 C 25,6 C 67 % 1014,7 hPa 0,0 l/m 5,6 km/h (1 Bft) O 82 0 min 0,000 mm 0,0 UV-I 0 W/m 18,2 C 24,8 C 8,0 km/h (2 Bft) 91,49 %
31.07.2017 22:02 25,1 C 25,6 C 66 % 1014,7 hPa 0,0 l/m 6,4 km/h (2 Bft) O-NO 73 0 min 0,026 mm 0,0 UV-I 0 W/m 18,3 C 25,1 C 11,3 km/h (2 Bft) 97,87 %
31.07.2017 22:04 25,4 C 25,6 C 66 % 1014,7 hPa 0,0 l/m 9,0 km/h (2 Bft) O-NO 67 0 min 0,000 mm 0,0 UV-I 0 W/m 18,6 C 24,8 C 14,5 km/h (3 Bft) 97,87 %
31.07.2017 22:06 25,8 C 25,6 C 65 % 1014,7 hPa 0,0 l/m 11,8 km/h (2 Bft) O-NO 69 0 min 0,000 mm 0,0 UV-I 0 W/m 18,7 C 24,7 C 17,7 km/h (3 Bft) 93,62 %
31.07.2017 22:08 26,2 C 25,6 C 64 % 1014,6 hPa 0,0 l/m 9,2 km/h (2 Bft) O-NO 60 0 min 0,000 mm 0,0 UV-I 0 W/m 18,8 C 25,6 C 16,1 km/h (3 Bft) 93,62 %
31.07.2017 22:10 26,3 C 25,6 C 63 % 1014,6 hPa 0,0 l/m 13,9 km/h (3 Bft) O-NO 67 0 min 0,000 mm 0,0 UV-I 0 W/m 18,7 C 25,0 C 17,7 km/h (3 Bft) 97,87 %
31.07.2017 22:12 26,5 C 25,6 C 63 % 1014,6 hPa 0,0 l/m 10,4 km/h (2 Bft) O 83 0 min 0,000 mm 0,0 UV-I 0 W/m 18,9 C 25,8 C 17,7 km/h (3 Bft) 98,11 %
31.07.2017 22:14 26,7 C 25,6 C 62 % 1014,6 hPa 0,0 l/m 10,9 km/h (2 Bft) O-NO 76 0 min 0,000 mm 0,0 UV-I 0 W/m 18,8 C 25,9 C 17,7 km/h (3 Bft) 94,44 %
31.07.2017 22:16 26,7 C 25,6 C 62 % 1014,5 hPa 0,0 l/m 12,2 km/h (2 Bft) O 82 0 min 0,000 mm 0,0 UV-I 0 W/m 18,8 C 25,7 C 17,7 km/h (3 Bft) 93,62 %
31.07.2017 22:18 26,7 C 25,6 C 62 % 1014,5 hPa 0,0 l/m 12,5 km/h (3 Bft) O 92 0 min 0,000 mm 0,0 UV-I 0 W/m 18,8 C 25,7 C 19,3 km/h (3 Bft) 95,74 %
31.07.2017 22:20 26,8 C 25,6 C 62 % 1014,5 hPa 0,0 l/m 8,9 km/h (2 Bft) O-NO 76 0 min 0,000 mm 0,0 UV-I 0 W/m 18,9 C 26,3 C 14,5 km/h (3 Bft) 95,74 %
31.07.2017 22:22 26,8 C 25,6 C 62 % 1014,5 hPa 0,0 l/m 9,3 km/h (2 Bft) O 101 0 min 0,000 mm 0,0 UV-I 0 W/m 18,9 C 26,3 C 12,9 km/h (3 Bft) 98,00 %
31.07.2017 22:24 26,8 C 25,6 C 62 % 1014,5 hPa 0,0 l/m 10,5 km/h (2 Bft) O-SO 123 0 min 0,000 mm 0,0 UV-I 0 W/m 18,9 C 26,1 C 14,5 km/h (3 Bft) 91,49 %
31.07.2017 22:26 26,8 C 25,6 C 62 % 1014,5 hPa 0,0 l/m 10,1 km/h (2 Bft) O 92 0 min 0,000 mm 0,0 UV-I 0 W/m 18,9 C 26,1 C 16,1 km/h (3 Bft) 97,92 %
31.07.2017 22:28 26,8 C 25,6 C 62 % 1014,5 hPa 0,0 l/m 10,1 km/h (2 Bft) O 94 0 min 0,000 mm 0,0 UV-I 0 W/m 18,9 C 26,1 C 16,1 km/h (3 Bft) 100,00 %
31.07.2017 22:30 26,8 C 25,6 C 62 % 1014,5 hPa 0,0 l/m 10,6 km/h (2 Bft) O 94 0 min 0,000 mm 0,0 UV-I 0 W/m 18,9 C 26,1 C 16,1 km/h (3 Bft) 97,87 %
31.07.2017 22:32 26,8 C 25,6 C 62 % 1014,4 hPa 0,0 l/m 10,3 km/h (2 Bft) O 86 0 min 0,000 mm 0,0 UV-I 0 W/m 18,9 C 26,1 C 12,9 km/h (3 Bft) 97,87 %
31.07.2017 22:34 26,8 C 25,6 C 62 % 1014,5 hPa 0,0 l/m 9,1 km/h (2 Bft) O 98 0 min 0,000 mm 0,0 UV-I 0 W/m 18,9 C 26,3 C 14,5 km/h (3 Bft) 95,74 %
31.07.2017 22:36 26,7 C 25,6 C 63 % 1014,4 hPa 0,0 l/m 10,7 km/h (2 Bft) O 83 0 min 0,000 mm 0,0 UV-I 0 W/m 19,1 C 25,9 C 16,1 km/h (3 Bft) 100,00 %
31.07.2017 22:38 26,7 C 25,6 C 63 % 1014,4 hPa 0,0 l/m 7,3 km/h (2 Bft) O-SO 107 0 min 0,000 mm 0,0 UV-I 0 W/m 19,1 C 26,5 C 12,9 km/h (3 Bft) 94,00 %
31.07.2017 22:40 26,7 C 25,6 C 63 % 1014,5 hPa 0,0 l/m 10,7 km/h (2 Bft) O-SO 103 0 min 0,000 mm 0,0 UV-I 0 W/m 19,1 C 25,9 C 19,3 km/h (3 Bft) 92,11 %
31.07.2017 22:42 26,7 C 25,6 C 63 % 1014,5 hPa 0,0 l/m 11,5 km/h (2 Bft) O-NO 77 0 min 0,000 mm 0,0 UV-I 0 W/m 19,1 C 25,8 C 20,9 km/h (4 Bft) 97,87 %
31.07.2017 22:44 26,7 C 25,6 C 63 % 1014,5 hPa 0,0 l/m 9,2 km/h (2 Bft) O 90 0 min 0,000 mm 0,0 UV-I 0 W/m 19,1 C 26,2 C 16,1 km/h (3 Bft) 94,00 %
31.07.2017 22:46 26,7 C 25,6 C 63 % 1014,5 hPa 0,0 l/m 10,3 km/h (2 Bft) O-SO 121 0 min 0,000 mm 0,0 UV-I 0 W/m 19,1 C 26,0 C 16,1 km/h (3 Bft) 97,87 %
31.07.2017 22:48 26,6 C 25,6 C 64 % 1014,5 hPa 0,0 l/m 10,0 km/h (2 Bft) O-SO 107 0 min 0,000 mm 0,0 UV-I 0 W/m 19,2 C 25,9 C 14,5 km/h (3 Bft) 94,00 %
31.07.2017 22:50 26,6 C 25,6 C 64 % 1014,5 hPa 0,0 l/m 11,0 km/h (2 Bft) O-SO 102 0 min 0,000 mm 0,0 UV-I 0 W/m 19,2 C 25,8 C 16,1 km/h (3 Bft) 95,74 %
31.07.2017 22:52 26,6 C 25,6 C 64 % 1014,5 hPa 0,0 l/m 11,3 km/h (2 Bft) O 101 0 min 0,000 mm 0,0 UV-I 0 W/m 19,2 C 25,7 C 16,1 km/h (3 Bft) 97,87 %
31.07.2017 22:54 26,5 C 25,6 C 64 % 1014,5 hPa 0,0 l/m 8,2 km/h (2 Bft) SO 138 0 min 0,000 mm 0,0 UV-I 0 W/m 19,1 C 26,1 C 12,9 km/h (3 Bft) 93,75 %
31.07.2017 22:56 26,4 C 25,6 C 64 % 1014,5 hPa 0,0 l/m 7,6 km/h (2 Bft) O-SO 113 0 min 0,000 mm 0,0 UV-I 0 W/m 19,0 C 26,2 C 12,9 km/h (3 Bft) 98,00 %
31.07.2017 22:58 26,3 C 25,6 C 65 % 1014,4 hPa 0,0 l/m 8,8 km/h (2 Bft) O 95 0 min 0,000 mm 0,0 UV-I 0 W/m 19,2 C 25,8 C 16,1 km/h (3 Bft) 92,68 %
31.07.2017 23:00 26,1 C 25,6 C 65 % 1014,4 hPa 0,0 l/m 7,4 km/h (2 Bft) O-SO 110 0 min 0,000 mm 0,0 UV-I 0 W/m 19,0 C 25,9 C 11,3 km/h (2 Bft) 88,00 %
31.07.2017 23:02 25,9 C 25,6 C 65 % 1014,4 hPa 0,0 l/m 7,5 km/h (2 Bft) SO 144 0 min 0,076 mm 0,0 UV-I 0 W/m 18,8 C 25,7 C 14,5 km/h (3 Bft) 95,74 %
31.07.2017 23:04 25,8 C 25,6 C 65 % 1014,3 hPa 0,0 l/m 9,8 km/h (2 Bft) O-SO 115 0 min 0,000 mm 0,0 UV-I 0 W/m 18,7 C 25,1 C 16,1 km/h (3 Bft) 97,87 %
31.07.2017 23:06 25,7 C 25,6 C 66 % 1014,3 hPa 0,0 l/m 9,8 km/h (2 Bft) O-SO 106 0 min 0,000 mm 0,0 UV-I 0 W/m 18,9 C 25,0 C 14,5 km/h (3 Bft) 95,74 %
31.07.2017 23:08 25,7 C 25,6 C 66 % 1014,3 hPa 0,0 l/m 9,1 km/h (2 Bft) SO 131 0 min 0,000 mm 0,0 UV-I 0 W/m 18,9 C 25,1 C 12,9 km/h (3 Bft) 97,87 %
31.07.2017 23:10 25,6 C 25,6 C 66 % 1014,3 hPa 0,0 l/m 6,9 km/h (2 Bft) O-SO 110 0 min 0,000 mm 0,0 UV-I 0 W/m 18,8 C 25,5 C 12,9 km/h (3 Bft) 97,87 %
31.07.2017 23:12 25,6 C 25,6 C 66 % 1014,3 hPa 0,0 l/m 10,6 km/h (2 Bft) O-SO 109 0 min 0,000 mm 0,0 UV-I 0 W/m 18,8 C 24,7 C 16,1 km/h (3 Bft) 100,00 %
31.07.2017 23:14 25,6 C 25,6 C 66 % 1014,3 hPa 0,0 l/m 9,5 km/h (2 Bft) SO 128 0 min 0,000 mm 0,0 UV-I 0 W/m 18,8 C 24,9 C 12,9 km/h (3 Bft) 97,87 %
31.07.2017 23:16 25,5 C 25,6 C 66 % 1014,2 hPa 0,0 l/m 9,3 km/h (2 Bft) O-SO 111 0 min 0,000 mm 0,0 UV-I 0 W/m 18,7 C 24,9 C 14,5 km/h (3 Bft) 97,87 %
31.07.2017 23:18 25,5 C 25,6 C 66 % 1014,2 hPa 0,0 l/m 7,9 km/h (2 Bft) O-SO 111 0 min 0,000 mm 0,0 UV-I 0 W/m 18,7 C 25,1 C 11,3 km/h (2 Bft) 97,87 %
31.07.2017 23:20 25,4 C 25,6 C 67 % 1014,2 hPa 0,0 l/m 10,2 km/h (2 Bft) O-SO 104 0 min 0,000 mm 0,0 UV-I 0 W/m 18,8 C 24,6 C 14,5 km/h (3 Bft) 96,23 %
31.07.2017 23:22 25,4 C 25,6 C 67 % 1014,2 hPa 0,0 l/m 7,1 km/h (2 Bft) O-SO 117 0 min 0,000 mm 0,0 UV-I 0 W/m 18,8 C 25,2 C 11,3 km/h (2 Bft) 97,87 %
31.07.2017 23:24 25,3 C 25,6 C 67 % 1014,2 hPa 0,0 l/m 5,8 km/h (2 Bft) SO 134 0 min 0,000 mm 0,0 UV-I 0 W/m 18,7 C 25,3 C 9,7 km/h (2 Bft) 97,87 %
31.07.2017 23:26 25,3 C 25,6 C 67 % 1014,2 hPa 0,0 l/m 8,5 km/h (2 Bft) O-SO 105 0 min 0,000 mm 0,0 UV-I 0 W/m 18,7 C 24,8 C 11,3 km/h (2 Bft) 100,00 %
31.07.2017 23:28 25,3 C 25,6 C 67 % 1014,2 hPa 0,0 l/m 8,4 km/h (2 Bft) O-SO 109 0 min 0,000 mm 0,0 UV-I 0 W/m 18,7 C 24,8 C 12,9 km/h (3 Bft) 95,74 %
31.07.2017 23:30 25,3 C 25,6 C 67 % 1014,1 hPa 0,0 l/m 9,1 km/h (2 Bft) O-SO 109 0 min 0,000 mm 0,0 UV-I 0 W/m 18,7 C 24,7 C 12,9 km/h (3 Bft) 97,87 %
31.07.2017 23:32 25,1 C 25,6 C 68 % 1014,1 hPa 0,0 l/m 7,7 km/h (2 Bft) O 99 0 min 0,000 mm 0,0 UV-I 0 W/m 18,8 C 24,8 C 11,3 km/h (2 Bft) 98,00 %
31.07.2017 23:34 24,9 C 25,6 C 68 % 1014,1 hPa 0,0 l/m 8,6 km/h (2 Bft) O-SO 103 0 min 0,000 mm 0,0 UV-I 0 W/m 18,6 C 24,4 C 12,9 km/h (3 Bft) 98,00 %
31.07.2017 23:36 24,8 C 25,6 C 69 % 1014,0 hPa 0,0 l/m 6,2 km/h (2 Bft) O-SO 105 0 min 0,000 mm 0,0 UV-I 0 W/m 18,7 C 24,8 C 9,7 km/h (2 Bft) 97,87 %
31.07.2017 23:38 24,7 C 25,6 C 69 % 1014,0 hPa 0,0 l/m 7,0 km/h (2 Bft) O 88 0 min 0,000 mm 0,0 UV-I 0 W/m 18,6 C 24,5 C 11,3 km/h (2 Bft) 97,87 %
31.07.2017 23:40 24,7 C 25,6 C 69 % 1014,0 hPa 0,0 l/m 9,1 km/h (2 Bft) O-SO 117 0 min 0,000 mm 0,0 UV-I 0 W/m 18,6 C 24,0 C 14,5 km/h (3 Bft) 97,87 %
31.07.2017 23:42 24,8 C 25,6 C 69 % 1013,9 hPa 0,0 l/m 7,8 km/h (2 Bft) SO 138 0 min 0,000 mm 0,0 UV-I 0 W/m 18,7 C 24,4 C 14,5 km/h (3 Bft) 95,74 %
31.07.2017 23:44 24,8 C 25,6 C 69 % 1013,9 hPa 0,0 l/m 8,7 km/h (2 Bft) S-SO 157 0 min 0,000 mm 0,0 UV-I 0 W/m 18,7 C 24,2 C 12,9 km/h (3 Bft) 97,87 %
31.07.2017 23:46 24,8 C 25,6 C 69 % 1013,9 hPa 0,0 l/m 9,6 km/h (2 Bft) O-SO 111 0 min 0,000 mm 0,0 UV-I 0 W/m 18,7 C 24,0 C 12,9 km/h (3 Bft) 97,87 %
31.07.2017 23:48 24,7 C 25,6 C 69 % 1013,9 hPa 0,0 l/m 8,9 km/h (2 Bft) SO 130 0 min 0,000 mm 0,0 UV-I 0 W/m 18,6 C 24,1 C 12,9 km/h (3 Bft) 100,00 %
31.07.2017 23:50 24,6 C 25,6 C 69 % 1013,9 hPa 0,0 l/m 9,6 km/h (2 Bft) O-SO 113 0 min 0,000 mm 0,0 UV-I 0 W/m 18,5 C 23,8 C 12,9 km/h (3 Bft) 93,62 %
31.07.2017 23:52 24,4 C 25,6 C 70 % 1013,9 hPa 0,0 l/m 6,2 km/h (2 Bft) O-SO 115 0 min 0,000 mm 0,0 UV-I 0 W/m 18,6 C 24,4 C 11,3 km/h (2 Bft) 100,00 %
31.07.2017 23:54 24,4 C 25,6 C 70 % 1013,9 hPa 0,0 l/m 6,9 km/h (2 Bft) SO 133 0 min 0,000 mm 0,0 UV-I 0 W/m 18,6 C 24,3 C 11,3 km/h (2 Bft) 98,00 %
31.07.2017 23:56 24,3 C 25,6 C 70 % 1013,9 hPa 0,0 l/m 4,5 km/h (1 Bft) O-SO 103 0 min 0,000 mm 0,0 UV-I 0 W/m 18,5 C 24,3 C 6,4 km/h (2 Bft) 95,74 %
31.07.2017 23:58 24,3 C 25,6 C 70 % 1013,8 hPa 0,0 l/m 7,4 km/h (2 Bft) SO 128 0 min 0,000 mm 0,0 UV-I 0 W/m 18,5 C 24,0 C 11,3 km/h (2 Bft) 95,74 %
_ Min-Zeit 05:58 04:16 17:18 01:36 - 02:26 - - - - - - 05:58 04:12 02:26 06:52
Minimum _ 18,4 C 23,3 C 39 % 1013,1 hPa - 0,0 km/h (0 Bft) - - - - - - 15,6 C 15,6 C 0,0 km/h (0 Bft) 85,11 %
_ Max-Zeit 16:48 16:48 06:24 10:24 00:00 04:12 - - 05:50 14:02 12:50 11:52 12:52 16:48 04:12 01:34
Maximum _ 31,7 C 26,1 C 85 % 1015,6 hPa 0,0 l/m 17,8 km/h
SW (3 Bft)
- - 2 min 0,609 mm 6,5 UV-I 892 W/m 19,5 C 31,6 C 24,1 km/h
W-SW (4 Bft)
100,00 %
Durchschnitt _ 25,1 C 24,6 C 65 % 1014,4 hPa #0,0 l/m 5,9 km/h (2 Bft) NO - #13:12 h #5,639 mm 3,6 UV-I 465 W/m 17,5 C 24,9 C 10,2 km/h (2 Bft) 95,99 %